<?xml version="1.0" encoding="UTF-8" standalone="no" ?>
<gpx xmlns="http://www.topografix.com/GPX/1/1" xmlns:xsi="http://www.w3.org/2001/XMLSchema-instance" xsi:schemaLocation="http://www.topografix.com/GPX/1/1 http://www.topografix.com/GPX/1/1/gpx.xsd" version="1.1" creator="VisuGPX - https://www.visugpx.com">
  <metadata>
    <name>St Jean de la Poterie 2018</name>
    <desc><![CDATA[St Jean-Baptiste de la poterie mort mais content ]]></desc>
  </metadata>
  <trk>
    <name><![CDATA[St Jean de la Poterie 2018_1]]></name>
    <trkseg>
      <trkpt lat="47.63273" lon="-2.12102">
        <ele>104</ele>
        <time>2018-03-18T07:36:20.000Z</time>
      </trkpt>
      <trkpt lat="47.63272" lon="-2.12102">
        <ele>102</ele>
        <time>2018-03-18T07:36:21.000Z</time>
      </trkpt>
      <trkpt lat="47.63257" lon="-2.12094">
        <ele>99</ele>
        <time>2018-03-18T07:38:46.000Z</time>
      </trkpt>
      <trkpt lat="47.6324" lon="-2.12074">
        <ele>98</ele>
        <time>2018-03-18T07:38:54.000Z</time>
      </trkpt>
      <trkpt lat="47.6324" lon="-2.12074">
        <ele>98</ele>
        <time>2018-03-18T07:38:55.000Z</time>
      </trkpt>
      <trkpt lat="47.63226" lon="-2.12083">
        <ele>97</ele>
        <time>2018-03-18T07:39:02.000Z</time>
      </trkpt>
      <trkpt lat="47.63222" lon="-2.12129">
        <ele>93</ele>
        <time>2018-03-18T07:39:08.000Z</time>
      </trkpt>
      <trkpt lat="47.63239" lon="-2.12186">
        <ele>93</ele>
        <time>2018-03-18T07:39:14.000Z</time>
      </trkpt>
      <trkpt lat="47.63263" lon="-2.12226">
        <ele>92</ele>
        <time>2018-03-18T07:39:20.000Z</time>
      </trkpt>
      <trkpt lat="47.63293" lon="-2.12267">
        <ele>92</ele>
        <time>2018-03-18T07:39:28.000Z</time>
      </trkpt>
      <trkpt lat="47.6332" lon="-2.12304">
        <ele>91</ele>
        <time>2018-03-18T07:39:36.000Z</time>
      </trkpt>
      <trkpt lat="47.6335" lon="-2.12339">
        <ele>90</ele>
        <time>2018-03-18T07:39:45.000Z</time>
      </trkpt>
      <trkpt lat="47.63379" lon="-2.12373">
        <ele>91</ele>
        <time>2018-03-18T07:39:56.000Z</time>
      </trkpt>
      <trkpt lat="47.63388" lon="-2.12391">
        <ele>92</ele>
        <time>2018-03-18T07:40:02.000Z</time>
      </trkpt>
      <trkpt lat="47.63361" lon="-2.1242">
        <ele>94</ele>
        <time>2018-03-18T07:40:17.000Z</time>
      </trkpt>
      <trkpt lat="47.63333" lon="-2.12455">
        <ele>98</ele>
        <time>2018-03-18T07:40:41.000Z</time>
      </trkpt>
      <trkpt lat="47.63321" lon="-2.12472">
        <ele>99</ele>
        <time>2018-03-18T07:40:48.000Z</time>
      </trkpt>
      <trkpt lat="47.633" lon="-2.12479">
        <ele>100</ele>
        <time>2018-03-18T07:40:57.000Z</time>
      </trkpt>
      <trkpt lat="47.633" lon="-2.12479">
        <ele>100</ele>
        <time>2018-03-18T07:40:57.000Z</time>
      </trkpt>
      <trkpt lat="47.63298" lon="-2.1248">
        <ele>100</ele>
        <time>2018-03-18T07:40:58.000Z</time>
      </trkpt>
      <trkpt lat="47.63295" lon="-2.12481">
        <ele>100</ele>
        <time>2018-03-18T07:40:59.000Z</time>
      </trkpt>
      <trkpt lat="47.63292" lon="-2.12481">
        <ele>100</ele>
        <time>2018-03-18T07:41:00.000Z</time>
      </trkpt>
      <trkpt lat="47.63288" lon="-2.12481">
        <ele>99</ele>
        <time>2018-03-18T07:41:01.000Z</time>
      </trkpt>
      <trkpt lat="47.63286" lon="-2.12481">
        <ele>99</ele>
        <time>2018-03-18T07:41:02.000Z</time>
      </trkpt>
      <trkpt lat="47.6328" lon="-2.12479">
        <ele>100</ele>
        <time>2018-03-18T07:41:05.000Z</time>
      </trkpt>
      <trkpt lat="47.63279" lon="-2.12475">
        <ele>99</ele>
        <time>2018-03-18T07:41:07.000Z</time>
      </trkpt>
      <trkpt lat="47.63276" lon="-2.12473">
        <ele>99</ele>
        <time>2018-03-18T07:41:09.000Z</time>
      </trkpt>
      <trkpt lat="47.63274" lon="-2.12473">
        <ele>99</ele>
        <time>2018-03-18T07:41:10.000Z</time>
      </trkpt>
      <trkpt lat="47.63269" lon="-2.12469">
        <ele>99</ele>
        <time>2018-03-18T07:41:12.000Z</time>
      </trkpt>
      <trkpt lat="47.63267" lon="-2.12463">
        <ele>99</ele>
        <time>2018-03-18T07:41:14.000Z</time>
      </trkpt>
      <trkpt lat="47.63268" lon="-2.12459">
        <ele>99</ele>
        <time>2018-03-18T07:41:15.000Z</time>
      </trkpt>
      <trkpt lat="47.63269" lon="-2.12455">
        <ele>99</ele>
        <time>2018-03-18T07:41:16.000Z</time>
      </trkpt>
      <trkpt lat="47.63234" lon="-2.12446">
        <ele>99</ele>
        <time>2018-03-18T07:41:30.000Z</time>
      </trkpt>
      <trkpt lat="47.6323" lon="-2.12447">
        <ele>98</ele>
        <time>2018-03-18T07:41:31.000Z</time>
      </trkpt>
      <trkpt lat="47.63225" lon="-2.12448">
        <ele>98</ele>
        <time>2018-03-18T07:41:32.000Z</time>
      </trkpt>
      <trkpt lat="47.6322" lon="-2.1245">
        <ele>98</ele>
        <time>2018-03-18T07:41:33.000Z</time>
      </trkpt>
      <trkpt lat="47.63213" lon="-2.12456">
        <ele>98</ele>
        <time>2018-03-18T07:41:35.000Z</time>
      </trkpt>
      <trkpt lat="47.63212" lon="-2.12461">
        <ele>99</ele>
        <time>2018-03-18T07:41:37.000Z</time>
      </trkpt>
      <trkpt lat="47.63213" lon="-2.12465">
        <ele>99</ele>
        <time>2018-03-18T07:41:39.000Z</time>
      </trkpt>
      <trkpt lat="47.63216" lon="-2.12467">
        <ele>99</ele>
        <time>2018-03-18T07:41:42.000Z</time>
      </trkpt>
      <trkpt lat="47.63219" lon="-2.12467">
        <ele>99</ele>
        <time>2018-03-18T07:41:44.000Z</time>
      </trkpt>
      <trkpt lat="47.63222" lon="-2.12467">
        <ele>99</ele>
        <time>2018-03-18T07:41:46.000Z</time>
      </trkpt>
      <trkpt lat="47.63225" lon="-2.12466">
        <ele>99</ele>
        <time>2018-03-18T07:41:48.000Z</time>
      </trkpt>
      <trkpt lat="47.63228" lon="-2.12465">
        <ele>99</ele>
        <time>2018-03-18T07:41:50.000Z</time>
      </trkpt>
      <trkpt lat="47.63232" lon="-2.12464">
        <ele>99</ele>
        <time>2018-03-18T07:41:52.000Z</time>
      </trkpt>
      <trkpt lat="47.63237" lon="-2.12465">
        <ele>100</ele>
        <time>2018-03-18T07:41:54.000Z</time>
      </trkpt>
      <trkpt lat="47.63242" lon="-2.12465">
        <ele>100</ele>
        <time>2018-03-18T07:41:56.000Z</time>
      </trkpt>
      <trkpt lat="47.63245" lon="-2.12463">
        <ele>100</ele>
        <time>2018-03-18T07:41:58.000Z</time>
      </trkpt>
      <trkpt lat="47.63248" lon="-2.12461">
        <ele>100</ele>
        <time>2018-03-18T07:42:00.000Z</time>
      </trkpt>
      <trkpt lat="47.63251" lon="-2.1246">
        <ele>100</ele>
        <time>2018-03-18T07:42:02.000Z</time>
      </trkpt>
      <trkpt lat="47.63255" lon="-2.12462">
        <ele>101</ele>
        <time>2018-03-18T07:42:04.000Z</time>
      </trkpt>
      <trkpt lat="47.63256" lon="-2.12466">
        <ele>101</ele>
        <time>2018-03-18T07:42:07.000Z</time>
      </trkpt>
      <trkpt lat="47.63254" lon="-2.12469">
        <ele>101</ele>
        <time>2018-03-18T07:42:10.000Z</time>
      </trkpt>
      <trkpt lat="47.63251" lon="-2.12471">
        <ele>101</ele>
        <time>2018-03-18T07:42:12.000Z</time>
      </trkpt>
      <trkpt lat="47.63247" lon="-2.12474">
        <ele>101</ele>
        <time>2018-03-18T07:42:14.000Z</time>
      </trkpt>
      <trkpt lat="47.63243" lon="-2.12475">
        <ele>101</ele>
        <time>2018-03-18T07:42:16.000Z</time>
      </trkpt>
      <trkpt lat="47.6324" lon="-2.12477">
        <ele>101</ele>
        <time>2018-03-18T07:42:18.000Z</time>
      </trkpt>
      <trkpt lat="47.63238" lon="-2.1248">
        <ele>101</ele>
        <time>2018-03-18T07:42:20.000Z</time>
      </trkpt>
      <trkpt lat="47.63238" lon="-2.12486">
        <ele>100</ele>
        <time>2018-03-18T07:42:23.000Z</time>
      </trkpt>
      <trkpt lat="47.63237" lon="-2.1249">
        <ele>100</ele>
        <time>2018-03-18T07:42:25.000Z</time>
      </trkpt>
      <trkpt lat="47.63233" lon="-2.12492">
        <ele>99</ele>
        <time>2018-03-18T07:42:27.000Z</time>
      </trkpt>
      <trkpt lat="47.63228" lon="-2.12493">
        <ele>99</ele>
        <time>2018-03-18T07:42:29.000Z</time>
      </trkpt>
      <trkpt lat="47.63225" lon="-2.12493">
        <ele>99</ele>
        <time>2018-03-18T07:42:30.000Z</time>
      </trkpt>
      <trkpt lat="47.63221" lon="-2.12493">
        <ele>98</ele>
        <time>2018-03-18T07:42:31.000Z</time>
      </trkpt>
      <trkpt lat="47.63186" lon="-2.12513">
        <ele>92</ele>
        <time>2018-03-18T07:42:40.000Z</time>
      </trkpt>
      <trkpt lat="47.63181" lon="-2.12526">
        <ele>91</ele>
        <time>2018-03-18T07:42:45.000Z</time>
      </trkpt>
      <trkpt lat="47.63205" lon="-2.12557">
        <ele>92</ele>
        <time>2018-03-18T07:43:02.000Z</time>
      </trkpt>
      <trkpt lat="47.63235" lon="-2.12585">
        <ele>94</ele>
        <time>2018-03-18T07:43:19.000Z</time>
      </trkpt>
      <trkpt lat="47.63269" lon="-2.12608">
        <ele>96</ele>
        <time>2018-03-18T07:43:35.000Z</time>
      </trkpt>
      <trkpt lat="47.63304" lon="-2.12613">
        <ele>99</ele>
        <time>2018-03-18T07:43:51.000Z</time>
      </trkpt>
      <trkpt lat="47.63304" lon="-2.12666">
        <ele>96</ele>
        <time>2018-03-18T07:44:02.000Z</time>
      </trkpt>
      <trkpt lat="47.63288" lon="-2.12713">
        <ele>98</ele>
        <time>2018-03-18T07:44:17.000Z</time>
      </trkpt>
      <trkpt lat="47.63285" lon="-2.12767">
        <ele>99</ele>
        <time>2018-03-18T07:44:30.000Z</time>
      </trkpt>
      <trkpt lat="47.63279" lon="-2.12819">
        <ele>102</ele>
        <time>2018-03-18T07:44:44.000Z</time>
      </trkpt>
      <trkpt lat="47.6327" lon="-2.12868">
        <ele>103</ele>
        <time>2018-03-18T07:45:01.000Z</time>
      </trkpt>
      <trkpt lat="47.63247" lon="-2.12908">
        <ele>105</ele>
        <time>2018-03-18T07:45:16.000Z</time>
      </trkpt>
      <trkpt lat="47.63218" lon="-2.1294">
        <ele>108</ele>
        <time>2018-03-18T07:45:33.000Z</time>
      </trkpt>
      <trkpt lat="47.63215" lon="-2.12973">
        <ele>109</ele>
        <time>2018-03-18T07:45:43.000Z</time>
      </trkpt>
      <trkpt lat="47.63198" lon="-2.12984">
        <ele>109</ele>
        <time>2018-03-18T07:45:49.000Z</time>
      </trkpt>
      <trkpt lat="47.63184" lon="-2.12993">
        <ele>110</ele>
        <time>2018-03-18T07:45:55.000Z</time>
      </trkpt>
      <trkpt lat="47.63174" lon="-2.13027">
        <ele>109</ele>
        <time>2018-03-18T07:46:04.000Z</time>
      </trkpt>
      <trkpt lat="47.63162" lon="-2.1307">
        <ele>110</ele>
        <time>2018-03-18T07:46:16.000Z</time>
      </trkpt>
      <trkpt lat="47.63158" lon="-2.13075">
        <ele>110</ele>
        <time>2018-03-18T07:46:18.000Z</time>
      </trkpt>
      <trkpt lat="47.63144" lon="-2.13078">
        <ele>111</ele>
        <time>2018-03-18T07:46:23.000Z</time>
      </trkpt>
      <trkpt lat="47.63123" lon="-2.13065">
        <ele>112</ele>
        <time>2018-03-18T07:46:30.000Z</time>
      </trkpt>
      <trkpt lat="47.6309" lon="-2.13035">
        <ele>112</ele>
        <time>2018-03-18T07:46:40.000Z</time>
      </trkpt>
      <trkpt lat="47.63065" lon="-2.12991">
        <ele>112</ele>
        <time>2018-03-18T07:46:51.000Z</time>
      </trkpt>
      <trkpt lat="47.63047" lon="-2.12967">
        <ele>112</ele>
        <time>2018-03-18T07:46:59.000Z</time>
      </trkpt>
      <trkpt lat="47.63029" lon="-2.12982">
        <ele>112</ele>
        <time>2018-03-18T07:47:06.000Z</time>
      </trkpt>
      <trkpt lat="47.63003" lon="-2.13018">
        <ele>114</ele>
        <time>2018-03-18T07:47:19.000Z</time>
      </trkpt>
      <trkpt lat="47.62976" lon="-2.1305">
        <ele>114</ele>
        <time>2018-03-18T07:47:32.000Z</time>
      </trkpt>
      <trkpt lat="47.62969" lon="-2.13061">
        <ele>115</ele>
        <time>2018-03-18T07:47:36.000Z</time>
      </trkpt>
      <trkpt lat="47.62975" lon="-2.13102">
        <ele>117</ele>
        <time>2018-03-18T07:47:45.000Z</time>
      </trkpt>
      <trkpt lat="47.6299" lon="-2.13154">
        <ele>116</ele>
        <time>2018-03-18T07:47:56.000Z</time>
      </trkpt>
      <trkpt lat="47.63001" lon="-2.13209">
        <ele>115</ele>
        <time>2018-03-18T07:48:07.000Z</time>
      </trkpt>
      <trkpt lat="47.63002" lon="-2.13263">
        <ele>116</ele>
        <time>2018-03-18T07:48:17.000Z</time>
      </trkpt>
      <trkpt lat="47.62995" lon="-2.13315">
        <ele>115</ele>
        <time>2018-03-18T07:48:26.000Z</time>
      </trkpt>
      <trkpt lat="47.62992" lon="-2.13364">
        <ele>117</ele>
        <time>2018-03-18T07:48:35.000Z</time>
      </trkpt>
      <trkpt lat="47.63014" lon="-2.13361">
        <ele>117</ele>
        <time>2018-03-18T07:48:43.000Z</time>
      </trkpt>
      <trkpt lat="47.63049" lon="-2.1335">
        <ele>119</ele>
        <time>2018-03-18T07:48:54.000Z</time>
      </trkpt>
      <trkpt lat="47.63084" lon="-2.13343">
        <ele>117</ele>
        <time>2018-03-18T07:49:05.000Z</time>
      </trkpt>
      <trkpt lat="47.6312" lon="-2.13339">
        <ele>117</ele>
        <time>2018-03-18T07:49:16.000Z</time>
      </trkpt>
      <trkpt lat="47.63137" lon="-2.13337">
        <ele>115</ele>
        <time>2018-03-18T07:49:21.000Z</time>
      </trkpt>
      <trkpt lat="47.63157" lon="-2.13324">
        <ele>114</ele>
        <time>2018-03-18T07:49:27.000Z</time>
      </trkpt>
      <trkpt lat="47.63194" lon="-2.13305">
        <ele>114</ele>
        <time>2018-03-18T07:49:38.000Z</time>
      </trkpt>
      <trkpt lat="47.63232" lon="-2.13295">
        <ele>115</ele>
        <time>2018-03-18T07:49:47.000Z</time>
      </trkpt>
      <trkpt lat="47.63269" lon="-2.13285">
        <ele>116</ele>
        <time>2018-03-18T07:49:56.000Z</time>
      </trkpt>
      <trkpt lat="47.63308" lon="-2.13275">
        <ele>116</ele>
        <time>2018-03-18T07:50:06.000Z</time>
      </trkpt>
      <trkpt lat="47.63343" lon="-2.1327">
        <ele>116</ele>
        <time>2018-03-18T07:50:15.000Z</time>
      </trkpt>
      <trkpt lat="47.63364" lon="-2.13282">
        <ele>115</ele>
        <time>2018-03-18T07:50:20.000Z</time>
      </trkpt>
      <trkpt lat="47.63365" lon="-2.13318">
        <ele>115</ele>
        <time>2018-03-18T07:50:26.000Z</time>
      </trkpt>
      <trkpt lat="47.6337" lon="-2.13373">
        <ele>115</ele>
        <time>2018-03-18T07:50:36.000Z</time>
      </trkpt>
      <trkpt lat="47.63374" lon="-2.13431">
        <ele>115</ele>
        <time>2018-03-18T07:50:47.000Z</time>
      </trkpt>
      <trkpt lat="47.63376" lon="-2.13489">
        <ele>115</ele>
        <time>2018-03-18T07:50:57.000Z</time>
      </trkpt>
      <trkpt lat="47.63378" lon="-2.13546">
        <ele>113</ele>
        <time>2018-03-18T07:51:05.000Z</time>
      </trkpt>
      <trkpt lat="47.63373" lon="-2.1356">
        <ele>113</ele>
        <time>2018-03-18T07:51:08.000Z</time>
      </trkpt>
      <trkpt lat="47.63343" lon="-2.13564">
        <ele>114</ele>
        <time>2018-03-18T07:51:17.000Z</time>
      </trkpt>
      <trkpt lat="47.63305" lon="-2.13569">
        <ele>116</ele>
        <time>2018-03-18T07:51:29.000Z</time>
      </trkpt>
      <trkpt lat="47.63291" lon="-2.13569">
        <ele>116</ele>
        <time>2018-03-18T07:51:33.000Z</time>
      </trkpt>
      <trkpt lat="47.63268" lon="-2.13553">
        <ele>118</ele>
        <time>2018-03-18T07:51:42.000Z</time>
      </trkpt>
      <trkpt lat="47.6323" lon="-2.13551">
        <ele>120</ele>
        <time>2018-03-18T07:51:55.000Z</time>
      </trkpt>
      <trkpt lat="47.63193" lon="-2.13549">
        <ele>122</ele>
        <time>2018-03-18T07:52:07.000Z</time>
      </trkpt>
      <trkpt lat="47.63157" lon="-2.13545">
        <ele>122</ele>
        <time>2018-03-18T07:52:21.000Z</time>
      </trkpt>
      <trkpt lat="47.63139" lon="-2.13583">
        <ele>121</ele>
        <time>2018-03-18T07:52:34.000Z</time>
      </trkpt>
      <trkpt lat="47.63148" lon="-2.13597">
        <ele>121</ele>
        <time>2018-03-18T07:52:39.000Z</time>
      </trkpt>
      <trkpt lat="47.63167" lon="-2.13634">
        <ele>121</ele>
        <time>2018-03-18T07:52:49.000Z</time>
      </trkpt>
      <trkpt lat="47.63147" lon="-2.13651">
        <ele>120</ele>
        <time>2018-03-18T07:52:59.000Z</time>
      </trkpt>
      <trkpt lat="47.63138" lon="-2.1367">
        <ele>120</ele>
        <time>2018-03-18T07:53:05.000Z</time>
      </trkpt>
      <trkpt lat="47.63152" lon="-2.13702">
        <ele>118</ele>
        <time>2018-03-18T07:53:14.000Z</time>
      </trkpt>
      <trkpt lat="47.6315" lon="-2.13755">
        <ele>113</ele>
        <time>2018-03-18T07:53:25.000Z</time>
      </trkpt>
      <trkpt lat="47.63116" lon="-2.13739">
        <ele>113</ele>
        <time>2018-03-18T07:53:40.000Z</time>
      </trkpt>
      <trkpt lat="47.63101" lon="-2.13707">
        <ele>113</ele>
        <time>2018-03-18T07:53:52.000Z</time>
      </trkpt>
      <trkpt lat="47.63115" lon="-2.13688">
        <ele>115</ele>
        <time>2018-03-18T07:54:04.000Z</time>
      </trkpt>
      <trkpt lat="47.63109" lon="-2.13634">
        <ele>120</ele>
        <time>2018-03-18T07:54:25.000Z</time>
      </trkpt>
      <trkpt lat="47.63106" lon="-2.13589">
        <ele>122</ele>
        <time>2018-03-18T07:54:42.000Z</time>
      </trkpt>
      <trkpt lat="47.63087" lon="-2.13592">
        <ele>122</ele>
        <time>2018-03-18T07:54:53.000Z</time>
      </trkpt>
      <trkpt lat="47.63051" lon="-2.13584">
        <ele>123</ele>
        <time>2018-03-18T07:55:04.000Z</time>
      </trkpt>
      <trkpt lat="47.63016" lon="-2.13574">
        <ele>124</ele>
        <time>2018-03-18T07:55:14.000Z</time>
      </trkpt>
      <trkpt lat="47.62984" lon="-2.13603">
        <ele>124</ele>
        <time>2018-03-18T07:55:24.000Z</time>
      </trkpt>
      <trkpt lat="47.62978" lon="-2.13634">
        <ele>123</ele>
        <time>2018-03-18T07:55:30.000Z</time>
      </trkpt>
      <trkpt lat="47.62985" lon="-2.13657">
        <ele>123</ele>
        <time>2018-03-18T07:55:38.000Z</time>
      </trkpt>
      <trkpt lat="47.62968" lon="-2.13677">
        <ele>120</ele>
        <time>2018-03-18T07:55:45.000Z</time>
      </trkpt>
      <trkpt lat="47.62973" lon="-2.13707">
        <ele>117</ele>
        <time>2018-03-18T07:55:52.000Z</time>
      </trkpt>
      <trkpt lat="47.62942" lon="-2.13719">
        <ele>114</ele>
        <time>2018-03-18T07:56:04.000Z</time>
      </trkpt>
      <trkpt lat="47.62959" lon="-2.13755">
        <ele>111</ele>
        <time>2018-03-18T07:56:13.000Z</time>
      </trkpt>
      <trkpt lat="47.62985" lon="-2.13791">
        <ele>106</ele>
        <time>2018-03-18T07:56:24.000Z</time>
      </trkpt>
      <trkpt lat="47.62996" lon="-2.1379">
        <ele>106</ele>
        <time>2018-03-18T07:56:29.000Z</time>
      </trkpt>
      <trkpt lat="47.63019" lon="-2.13765">
        <ele>104</ele>
        <time>2018-03-18T07:56:39.000Z</time>
      </trkpt>
      <trkpt lat="47.63042" lon="-2.13744">
        <ele>103</ele>
        <time>2018-03-18T07:56:50.000Z</time>
      </trkpt>
      <trkpt lat="47.63052" lon="-2.13744">
        <ele>104</ele>
        <time>2018-03-18T07:56:54.000Z</time>
      </trkpt>
      <trkpt lat="47.63052" lon="-2.13744">
        <ele>104</ele>
        <time>2018-03-18T07:56:54.000Z</time>
      </trkpt>
      <trkpt lat="47.63057" lon="-2.13743">
        <ele>104</ele>
        <time>2018-03-18T07:56:56.000Z</time>
      </trkpt>
      <trkpt lat="47.63062" lon="-2.13742">
        <ele>105</ele>
        <time>2018-03-18T07:56:58.000Z</time>
      </trkpt>
      <trkpt lat="47.63066" lon="-2.13744">
        <ele>105</ele>
        <time>2018-03-18T07:57:00.000Z</time>
      </trkpt>
      <trkpt lat="47.63069" lon="-2.13744">
        <ele>106</ele>
        <time>2018-03-18T07:57:01.000Z</time>
      </trkpt>
      <trkpt lat="47.63073" lon="-2.13747">
        <ele>106</ele>
        <time>2018-03-18T07:57:03.000Z</time>
      </trkpt>
      <trkpt lat="47.63076" lon="-2.1375">
        <ele>106</ele>
        <time>2018-03-18T07:57:04.000Z</time>
      </trkpt>
      <trkpt lat="47.63078" lon="-2.13755">
        <ele>107</ele>
        <time>2018-03-18T07:57:06.000Z</time>
      </trkpt>
      <trkpt lat="47.63078" lon="-2.13761">
        <ele>107</ele>
        <time>2018-03-18T07:57:08.000Z</time>
      </trkpt>
      <trkpt lat="47.63077" lon="-2.13766">
        <ele>108</ele>
        <time>2018-03-18T07:57:10.000Z</time>
      </trkpt>
      <trkpt lat="47.63075" lon="-2.13772">
        <ele>108</ele>
        <time>2018-03-18T07:57:12.000Z</time>
      </trkpt>
      <trkpt lat="47.63073" lon="-2.13777">
        <ele>108</ele>
        <time>2018-03-18T07:57:14.000Z</time>
      </trkpt>
      <trkpt lat="47.6307" lon="-2.13782">
        <ele>108</ele>
        <time>2018-03-18T07:57:16.000Z</time>
      </trkpt>
      <trkpt lat="47.63066" lon="-2.13786">
        <ele>108</ele>
        <time>2018-03-18T07:57:18.000Z</time>
      </trkpt>
      <trkpt lat="47.63064" lon="-2.13788">
        <ele>108</ele>
        <time>2018-03-18T07:57:19.000Z</time>
      </trkpt>
      <trkpt lat="47.63042" lon="-2.13826">
        <ele>104</ele>
        <time>2018-03-18T07:57:34.000Z</time>
      </trkpt>
      <trkpt lat="47.6303" lon="-2.13829">
        <ele>103</ele>
        <time>2018-03-18T07:57:38.000Z</time>
      </trkpt>
      <trkpt lat="47.6302" lon="-2.13838">
        <ele>102</ele>
        <time>2018-03-18T07:57:46.000Z</time>
      </trkpt>
      <trkpt lat="47.63059" lon="-2.1386">
        <ele>103</ele>
        <time>2018-03-18T07:58:03.000Z</time>
      </trkpt>
      <trkpt lat="47.63089" lon="-2.13889">
        <ele>101</ele>
        <time>2018-03-18T07:58:16.000Z</time>
      </trkpt>
      <trkpt lat="47.63119" lon="-2.13916">
        <ele>103</ele>
        <time>2018-03-18T07:58:36.000Z</time>
      </trkpt>
      <trkpt lat="47.63152" lon="-2.13931">
        <ele>104</ele>
        <time>2018-03-18T07:58:55.000Z</time>
      </trkpt>
      <trkpt lat="47.63179" lon="-2.13897">
        <ele>101</ele>
        <time>2018-03-18T07:59:24.000Z</time>
      </trkpt>
      <trkpt lat="47.63207" lon="-2.13861">
        <ele>99</ele>
        <time>2018-03-18T07:59:39.000Z</time>
      </trkpt>
      <trkpt lat="47.63223" lon="-2.13813">
        <ele>101</ele>
        <time>2018-03-18T07:59:59.000Z</time>
      </trkpt>
      <trkpt lat="47.63243" lon="-2.13769">
        <ele>99</ele>
        <time>2018-03-18T08:00:21.000Z</time>
      </trkpt>
      <trkpt lat="47.63245" lon="-2.13766">
        <ele>100</ele>
        <time>2018-03-18T08:00:23.000Z</time>
      </trkpt>
      <trkpt lat="47.63248" lon="-2.13763">
        <ele>101</ele>
        <time>2018-03-18T08:00:26.000Z</time>
      </trkpt>
      <trkpt lat="47.6325" lon="-2.1376">
        <ele>101</ele>
        <time>2018-03-18T08:00:28.000Z</time>
      </trkpt>
      <trkpt lat="47.63252" lon="-2.13756">
        <ele>102</ele>
        <time>2018-03-18T08:00:30.000Z</time>
      </trkpt>
      <trkpt lat="47.63255" lon="-2.13753">
        <ele>102</ele>
        <time>2018-03-18T08:00:32.000Z</time>
      </trkpt>
      <trkpt lat="47.63258" lon="-2.13752">
        <ele>103</ele>
        <time>2018-03-18T08:00:34.000Z</time>
      </trkpt>
      <trkpt lat="47.63261" lon="-2.13753">
        <ele>103</ele>
        <time>2018-03-18T08:00:36.000Z</time>
      </trkpt>
      <trkpt lat="47.63264" lon="-2.13755">
        <ele>103</ele>
        <time>2018-03-18T08:00:39.000Z</time>
      </trkpt>
      <trkpt lat="47.63266" lon="-2.13758">
        <ele>104</ele>
        <time>2018-03-18T08:00:42.000Z</time>
      </trkpt>
      <trkpt lat="47.63269" lon="-2.13758">
        <ele>105</ele>
        <time>2018-03-18T08:00:46.000Z</time>
      </trkpt>
      <trkpt lat="47.63272" lon="-2.13754">
        <ele>105</ele>
        <time>2018-03-18T08:00:48.000Z</time>
      </trkpt>
      <trkpt lat="47.63296" lon="-2.1375">
        <ele>106</ele>
        <time>2018-03-18T08:01:01.000Z</time>
      </trkpt>
      <trkpt lat="47.63309" lon="-2.13773">
        <ele>108</ele>
        <time>2018-03-18T08:01:15.000Z</time>
      </trkpt>
      <trkpt lat="47.63311" lon="-2.1379">
        <ele>109</ele>
        <time>2018-03-18T08:01:25.000Z</time>
      </trkpt>
      <trkpt lat="47.63294" lon="-2.1382">
        <ele>112</ele>
        <time>2018-03-18T08:01:44.000Z</time>
      </trkpt>
      <trkpt lat="47.63287" lon="-2.13837">
        <ele>112</ele>
        <time>2018-03-18T08:01:50.000Z</time>
      </trkpt>
      <trkpt lat="47.63295" lon="-2.13876">
        <ele>113</ele>
        <time>2018-03-18T08:02:02.000Z</time>
      </trkpt>
      <trkpt lat="47.63304" lon="-2.13905">
        <ele>112</ele>
        <time>2018-03-18T08:02:11.000Z</time>
      </trkpt>
      <trkpt lat="47.63325" lon="-2.13906">
        <ele>112</ele>
        <time>2018-03-18T08:02:21.000Z</time>
      </trkpt>
      <trkpt lat="47.63358" lon="-2.13922">
        <ele>113</ele>
        <time>2018-03-18T08:02:32.000Z</time>
      </trkpt>
      <trkpt lat="47.63394" lon="-2.13927">
        <ele>113</ele>
        <time>2018-03-18T08:02:43.000Z</time>
      </trkpt>
      <trkpt lat="47.63425" lon="-2.139">
        <ele>111</ele>
        <time>2018-03-18T08:02:53.000Z</time>
      </trkpt>
      <trkpt lat="47.63449" lon="-2.13878">
        <ele>110</ele>
        <time>2018-03-18T08:03:02.000Z</time>
      </trkpt>
      <trkpt lat="47.6346" lon="-2.13889">
        <ele>108</ele>
        <time>2018-03-18T08:03:06.000Z</time>
      </trkpt>
      <trkpt lat="47.63495" lon="-2.13913">
        <ele>103</ele>
        <time>2018-03-18T08:03:13.000Z</time>
      </trkpt>
      <trkpt lat="47.63504" lon="-2.13965">
        <ele>99</ele>
        <time>2018-03-18T08:03:23.000Z</time>
      </trkpt>
      <trkpt lat="47.6353" lon="-2.13966">
        <ele>101</ele>
        <time>2018-03-18T08:03:35.000Z</time>
      </trkpt>
      <trkpt lat="47.63537" lon="-2.13981">
        <ele>101</ele>
        <time>2018-03-18T08:03:41.000Z</time>
      </trkpt>
      <trkpt lat="47.63556" lon="-2.13988">
        <ele>100</ele>
        <time>2018-03-18T08:03:50.000Z</time>
      </trkpt>
      <trkpt lat="47.63572" lon="-2.13976">
        <ele>102</ele>
        <time>2018-03-18T08:04:00.000Z</time>
      </trkpt>
      <trkpt lat="47.636" lon="-2.13945">
        <ele>103</ele>
        <time>2018-03-18T08:04:14.000Z</time>
      </trkpt>
      <trkpt lat="47.63622" lon="-2.13904">
        <ele>102</ele>
        <time>2018-03-18T08:04:27.000Z</time>
      </trkpt>
      <trkpt lat="47.63635" lon="-2.13952">
        <ele>104</ele>
        <time>2018-03-18T08:04:48.000Z</time>
      </trkpt>
      <trkpt lat="47.63636" lon="-2.13956">
        <ele>103</ele>
        <time>2018-03-18T08:04:50.000Z</time>
      </trkpt>
      <trkpt lat="47.63639" lon="-2.13957">
        <ele>104</ele>
        <time>2018-03-18T08:04:52.000Z</time>
      </trkpt>
      <trkpt lat="47.63641" lon="-2.13954">
        <ele>104</ele>
        <time>2018-03-18T08:04:55.000Z</time>
      </trkpt>
      <trkpt lat="47.63644" lon="-2.13948">
        <ele>103</ele>
        <time>2018-03-18T08:04:57.000Z</time>
      </trkpt>
      <trkpt lat="47.63649" lon="-2.13946">
        <ele>102</ele>
        <time>2018-03-18T08:04:59.000Z</time>
      </trkpt>
      <trkpt lat="47.63655" lon="-2.13951">
        <ele>102</ele>
        <time>2018-03-18T08:05:02.000Z</time>
      </trkpt>
      <trkpt lat="47.63659" lon="-2.13954">
        <ele>103</ele>
        <time>2018-03-18T08:05:04.000Z</time>
      </trkpt>
      <trkpt lat="47.63663" lon="-2.13956">
        <ele>103</ele>
        <time>2018-03-18T08:05:06.000Z</time>
      </trkpt>
      <trkpt lat="47.63666" lon="-2.13957">
        <ele>103</ele>
        <time>2018-03-18T08:05:08.000Z</time>
      </trkpt>
      <trkpt lat="47.63689" lon="-2.13989">
        <ele>105</ele>
        <time>2018-03-18T08:05:26.000Z</time>
      </trkpt>
      <trkpt lat="47.63703" lon="-2.13986">
        <ele>107</ele>
        <time>2018-03-18T08:05:35.000Z</time>
      </trkpt>
      <trkpt lat="47.63728" lon="-2.14026">
        <ele>105</ele>
        <time>2018-03-18T08:05:54.000Z</time>
      </trkpt>
      <trkpt lat="47.63757" lon="-2.14058">
        <ele>102</ele>
        <time>2018-03-18T08:06:08.000Z</time>
      </trkpt>
      <trkpt lat="47.6379" lon="-2.14042">
        <ele>101</ele>
        <time>2018-03-18T08:06:24.000Z</time>
      </trkpt>
      <trkpt lat="47.63804" lon="-2.14045">
        <ele>104</ele>
        <time>2018-03-18T08:06:35.000Z</time>
      </trkpt>
      <trkpt lat="47.63823" lon="-2.14027">
        <ele>106</ele>
        <time>2018-03-18T08:06:49.000Z</time>
      </trkpt>
      <trkpt lat="47.63858" lon="-2.14016">
        <ele>108</ele>
        <time>2018-03-18T08:07:09.000Z</time>
      </trkpt>
      <trkpt lat="47.63894" lon="-2.14017">
        <ele>110</ele>
        <time>2018-03-18T08:07:28.000Z</time>
      </trkpt>
      <trkpt lat="47.6391" lon="-2.14065">
        <ele>109</ele>
        <time>2018-03-18T08:07:47.000Z</time>
      </trkpt>
      <trkpt lat="47.63926" lon="-2.14115">
        <ele>106</ele>
        <time>2018-03-18T08:07:58.000Z</time>
      </trkpt>
      <trkpt lat="47.63943" lon="-2.14133">
        <ele>104</ele>
        <time>2018-03-18T08:08:04.000Z</time>
      </trkpt>
      <trkpt lat="47.63961" lon="-2.14135">
        <ele>104</ele>
        <time>2018-03-18T08:08:11.000Z</time>
      </trkpt>
      <trkpt lat="47.63998" lon="-2.14134">
        <ele>105</ele>
        <time>2018-03-18T08:08:27.000Z</time>
      </trkpt>
      <trkpt lat="47.64035" lon="-2.14132">
        <ele>106</ele>
        <time>2018-03-18T08:08:42.000Z</time>
      </trkpt>
      <trkpt lat="47.64072" lon="-2.1413">
        <ele>106</ele>
        <time>2018-03-18T08:08:57.000Z</time>
      </trkpt>
      <trkpt lat="47.64108" lon="-2.14122">
        <ele>107</ele>
        <time>2018-03-18T08:09:11.000Z</time>
      </trkpt>
      <trkpt lat="47.64127" lon="-2.1414">
        <ele>107</ele>
        <time>2018-03-18T08:09:18.000Z</time>
      </trkpt>
      <trkpt lat="47.64128" lon="-2.14171">
        <ele>106</ele>
        <time>2018-03-18T08:09:23.000Z</time>
      </trkpt>
      <trkpt lat="47.6412" lon="-2.14222">
        <ele>106</ele>
        <time>2018-03-18T08:09:30.000Z</time>
      </trkpt>
      <trkpt lat="47.64095" lon="-2.14264">
        <ele>105</ele>
        <time>2018-03-18T08:09:36.000Z</time>
      </trkpt>
      <trkpt lat="47.64062" lon="-2.14302">
        <ele>102</ele>
        <time>2018-03-18T08:09:42.000Z</time>
      </trkpt>
      <trkpt lat="47.64045" lon="-2.14326">
        <ele>101</ele>
        <time>2018-03-18T08:09:46.000Z</time>
      </trkpt>
      <trkpt lat="47.64051" lon="-2.14354">
        <ele>101</ele>
        <time>2018-03-18T08:09:52.000Z</time>
      </trkpt>
      <trkpt lat="47.64065" lon="-2.14406">
        <ele>103</ele>
        <time>2018-03-18T08:10:07.000Z</time>
      </trkpt>
      <trkpt lat="47.64092" lon="-2.14443">
        <ele>104</ele>
        <time>2018-03-18T08:10:19.000Z</time>
      </trkpt>
      <trkpt lat="47.64107" lon="-2.1449">
        <ele>106</ele>
        <time>2018-03-18T08:10:33.000Z</time>
      </trkpt>
      <trkpt lat="47.64132" lon="-2.14491">
        <ele>107</ele>
        <time>2018-03-18T08:10:45.000Z</time>
      </trkpt>
      <trkpt lat="47.64141" lon="-2.14508">
        <ele>106</ele>
        <time>2018-03-18T08:10:53.000Z</time>
      </trkpt>
      <trkpt lat="47.6417" lon="-2.14537">
        <ele>106</ele>
        <time>2018-03-18T08:11:08.000Z</time>
      </trkpt>
      <trkpt lat="47.64177" lon="-2.1455">
        <ele>107</ele>
        <time>2018-03-18T08:11:18.000Z</time>
      </trkpt>
      <trkpt lat="47.64187" lon="-2.14564">
        <ele>107</ele>
        <time>2018-03-18T08:11:34.000Z</time>
      </trkpt>
      <trkpt lat="47.64205" lon="-2.1458">
        <ele>106</ele>
        <time>2018-03-18T08:11:48.000Z</time>
      </trkpt>
      <trkpt lat="47.64205" lon="-2.1458">
        <ele>106</ele>
        <time>2018-03-18T08:11:49.000Z</time>
      </trkpt>
      <trkpt lat="47.64214" lon="-2.1459">
        <ele>107</ele>
        <time>2018-03-18T08:11:58.000Z</time>
      </trkpt>
      <trkpt lat="47.6424" lon="-2.14567">
        <ele>106</ele>
        <time>2018-03-18T08:12:16.000Z</time>
      </trkpt>
      <trkpt lat="47.64272" lon="-2.14544">
        <ele>105</ele>
        <time>2018-03-18T08:12:38.000Z</time>
      </trkpt>
      <trkpt lat="47.64301" lon="-2.14517">
        <ele>107</ele>
        <time>2018-03-18T08:12:58.000Z</time>
      </trkpt>
      <trkpt lat="47.64327" lon="-2.14481">
        <ele>106</ele>
        <time>2018-03-18T08:13:18.000Z</time>
      </trkpt>
      <trkpt lat="47.64339" lon="-2.14467">
        <ele>107</ele>
        <time>2018-03-18T08:13:24.000Z</time>
      </trkpt>
      <trkpt lat="47.6436" lon="-2.14466">
        <ele>107</ele>
        <time>2018-03-18T08:13:35.000Z</time>
      </trkpt>
      <trkpt lat="47.64391" lon="-2.14463">
        <ele>107</ele>
        <time>2018-03-18T08:13:48.000Z</time>
      </trkpt>
      <trkpt lat="47.64393" lon="-2.14486">
        <ele>109</ele>
        <time>2018-03-18T08:13:57.000Z</time>
      </trkpt>
      <trkpt lat="47.64397" lon="-2.14523">
        <ele>109</ele>
        <time>2018-03-18T08:14:07.000Z</time>
      </trkpt>
      <trkpt lat="47.64418" lon="-2.14525">
        <ele>109</ele>
        <time>2018-03-18T08:14:16.000Z</time>
      </trkpt>
      <trkpt lat="47.64452" lon="-2.14545">
        <ele>110</ele>
        <time>2018-03-18T08:14:30.000Z</time>
      </trkpt>
      <trkpt lat="47.64474" lon="-2.14589">
        <ele>109</ele>
        <time>2018-03-18T08:14:44.000Z</time>
      </trkpt>
      <trkpt lat="47.64487" lon="-2.14638">
        <ele>109</ele>
        <time>2018-03-18T08:14:56.000Z</time>
      </trkpt>
      <trkpt lat="47.645" lon="-2.14689">
        <ele>109</ele>
        <time>2018-03-18T08:15:07.000Z</time>
      </trkpt>
      <trkpt lat="47.64514" lon="-2.14744">
        <ele>108</ele>
        <time>2018-03-18T08:15:18.000Z</time>
      </trkpt>
      <trkpt lat="47.64526" lon="-2.14799">
        <ele>107</ele>
        <time>2018-03-18T08:15:27.000Z</time>
      </trkpt>
      <trkpt lat="47.64534" lon="-2.14852">
        <ele>105</ele>
        <time>2018-03-18T08:15:34.000Z</time>
      </trkpt>
      <trkpt lat="47.64535" lon="-2.14859">
        <ele>105</ele>
        <time>2018-03-18T08:15:35.000Z</time>
      </trkpt>
      <trkpt lat="47.64536" lon="-2.14867">
        <ele>105</ele>
        <time>2018-03-18T08:15:36.000Z</time>
      </trkpt>
      <trkpt lat="47.64537" lon="-2.14872">
        <ele>105</ele>
        <time>2018-03-18T08:15:37.000Z</time>
      </trkpt>
      <trkpt lat="47.64539" lon="-2.14877">
        <ele>105</ele>
        <time>2018-03-18T08:15:38.000Z</time>
      </trkpt>
      <trkpt lat="47.64544" lon="-2.14883">
        <ele>105</ele>
        <time>2018-03-18T08:15:40.000Z</time>
      </trkpt>
      <trkpt lat="47.64547" lon="-2.14883">
        <ele>105</ele>
        <time>2018-03-18T08:15:41.000Z</time>
      </trkpt>
      <trkpt lat="47.6455" lon="-2.14881">
        <ele>105</ele>
        <time>2018-03-18T08:15:42.000Z</time>
      </trkpt>
      <trkpt lat="47.64552" lon="-2.14877">
        <ele>105</ele>
        <time>2018-03-18T08:15:43.000Z</time>
      </trkpt>
      <trkpt lat="47.64554" lon="-2.14874">
        <ele>105</ele>
        <time>2018-03-18T08:15:44.000Z</time>
      </trkpt>
      <trkpt lat="47.64556" lon="-2.1487">
        <ele>105</ele>
        <time>2018-03-18T08:15:45.000Z</time>
      </trkpt>
      <trkpt lat="47.64558" lon="-2.14866">
        <ele>105</ele>
        <time>2018-03-18T08:15:46.000Z</time>
      </trkpt>
      <trkpt lat="47.6456" lon="-2.14862">
        <ele>105</ele>
        <time>2018-03-18T08:15:47.000Z</time>
      </trkpt>
      <trkpt lat="47.64562" lon="-2.14858">
        <ele>105</ele>
        <time>2018-03-18T08:15:48.000Z</time>
      </trkpt>
      <trkpt lat="47.64565" lon="-2.14854">
        <ele>105</ele>
        <time>2018-03-18T08:15:49.000Z</time>
      </trkpt>
      <trkpt lat="47.64567" lon="-2.14851">
        <ele>105</ele>
        <time>2018-03-18T08:15:50.000Z</time>
      </trkpt>
      <trkpt lat="47.64569" lon="-2.14847">
        <ele>105</ele>
        <time>2018-03-18T08:15:51.000Z</time>
      </trkpt>
      <trkpt lat="47.64594" lon="-2.14798">
        <ele>106</ele>
        <time>2018-03-18T08:16:04.000Z</time>
      </trkpt>
      <trkpt lat="47.64602" lon="-2.14744">
        <ele>108</ele>
        <time>2018-03-18T08:16:16.000Z</time>
      </trkpt>
      <trkpt lat="47.64622" lon="-2.14696">
        <ele>107</ele>
        <time>2018-03-18T08:16:28.000Z</time>
      </trkpt>
      <trkpt lat="47.64623" lon="-2.14642">
        <ele>108</ele>
        <time>2018-03-18T08:16:37.000Z</time>
      </trkpt>
      <trkpt lat="47.64619" lon="-2.14583">
        <ele>110</ele>
        <time>2018-03-18T08:16:46.000Z</time>
      </trkpt>
      <trkpt lat="47.64619" lon="-2.14529">
        <ele>110</ele>
        <time>2018-03-18T08:16:54.000Z</time>
      </trkpt>
      <trkpt lat="47.64618" lon="-2.14468">
        <ele>110</ele>
        <time>2018-03-18T08:17:02.000Z</time>
      </trkpt>
      <trkpt lat="47.64618" lon="-2.14461">
        <ele>110</ele>
        <time>2018-03-18T08:17:03.000Z</time>
      </trkpt>
      <trkpt lat="47.64617" lon="-2.14453">
        <ele>109</ele>
        <time>2018-03-18T08:17:04.000Z</time>
      </trkpt>
      <trkpt lat="47.64617" lon="-2.14445">
        <ele>109</ele>
        <time>2018-03-18T08:17:05.000Z</time>
      </trkpt>
      <trkpt lat="47.64615" lon="-2.1443">
        <ele>109</ele>
        <time>2018-03-18T08:17:07.000Z</time>
      </trkpt>
      <trkpt lat="47.64613" lon="-2.14422">
        <ele>108</ele>
        <time>2018-03-18T08:17:08.000Z</time>
      </trkpt>
      <trkpt lat="47.64582" lon="-2.14379">
        <ele>107</ele>
        <time>2018-03-18T08:17:16.000Z</time>
      </trkpt>
      <trkpt lat="47.64548" lon="-2.14356">
        <ele>107</ele>
        <time>2018-03-18T08:17:23.000Z</time>
      </trkpt>
      <trkpt lat="47.64517" lon="-2.14329">
        <ele>109</ele>
        <time>2018-03-18T08:17:30.000Z</time>
      </trkpt>
      <trkpt lat="47.64487" lon="-2.14289">
        <ele>110</ele>
        <time>2018-03-18T08:17:38.000Z</time>
      </trkpt>
      <trkpt lat="47.64475" lon="-2.14234">
        <ele>110</ele>
        <time>2018-03-18T08:17:46.000Z</time>
      </trkpt>
      <trkpt lat="47.64468" lon="-2.14179">
        <ele>110</ele>
        <time>2018-03-18T08:17:54.000Z</time>
      </trkpt>
      <trkpt lat="47.64462" lon="-2.14123">
        <ele>111</ele>
        <time>2018-03-18T08:18:02.000Z</time>
      </trkpt>
      <trkpt lat="47.64455" lon="-2.14068">
        <ele>112</ele>
        <time>2018-03-18T08:18:10.000Z</time>
      </trkpt>
      <trkpt lat="47.64446" lon="-2.14012">
        <ele>113</ele>
        <time>2018-03-18T08:18:18.000Z</time>
      </trkpt>
      <trkpt lat="47.64435" lon="-2.13954">
        <ele>112</ele>
        <time>2018-03-18T08:18:26.000Z</time>
      </trkpt>
      <trkpt lat="47.6442" lon="-2.139">
        <ele>111</ele>
        <time>2018-03-18T08:18:33.000Z</time>
      </trkpt>
      <trkpt lat="47.64397" lon="-2.13853">
        <ele>110</ele>
        <time>2018-03-18T08:18:40.000Z</time>
      </trkpt>
      <trkpt lat="47.64372" lon="-2.13813">
        <ele>110</ele>
        <time>2018-03-18T08:18:47.000Z</time>
      </trkpt>
      <trkpt lat="47.64364" lon="-2.13797">
        <ele>110</ele>
        <time>2018-03-18T08:18:50.000Z</time>
      </trkpt>
      <trkpt lat="47.64353" lon="-2.13763">
        <ele>111</ele>
        <time>2018-03-18T08:18:56.000Z</time>
      </trkpt>
      <trkpt lat="47.64343" lon="-2.13712">
        <ele>111</ele>
        <time>2018-03-18T08:19:05.000Z</time>
      </trkpt>
      <trkpt lat="47.6433" lon="-2.13659">
        <ele>111</ele>
        <time>2018-03-18T08:19:14.000Z</time>
      </trkpt>
      <trkpt lat="47.64312" lon="-2.1361">
        <ele>112</ele>
        <time>2018-03-18T08:19:23.000Z</time>
      </trkpt>
      <trkpt lat="47.64291" lon="-2.13566">
        <ele>114</ele>
        <time>2018-03-18T08:19:32.000Z</time>
      </trkpt>
      <trkpt lat="47.64267" lon="-2.13523">
        <ele>117</ele>
        <time>2018-03-18T08:19:41.000Z</time>
      </trkpt>
      <trkpt lat="47.64252" lon="-2.13469">
        <ele>117</ele>
        <time>2018-03-18T08:19:50.000Z</time>
      </trkpt>
      <trkpt lat="47.64238" lon="-2.13417">
        <ele>117</ele>
        <time>2018-03-18T08:19:59.000Z</time>
      </trkpt>
      <trkpt lat="47.64225" lon="-2.13366">
        <ele>118</ele>
        <time>2018-03-18T08:20:08.000Z</time>
      </trkpt>
      <trkpt lat="47.64211" lon="-2.13316">
        <ele>118</ele>
        <time>2018-03-18T08:20:17.000Z</time>
      </trkpt>
      <trkpt lat="47.64202" lon="-2.13282">
        <ele>117</ele>
        <time>2018-03-18T08:20:23.000Z</time>
      </trkpt>
      <trkpt lat="47.64195" lon="-2.13265">
        <ele>117</ele>
        <time>2018-03-18T08:20:26.000Z</time>
      </trkpt>
      <trkpt lat="47.64184" lon="-2.13233">
        <ele>116</ele>
        <time>2018-03-18T08:20:31.000Z</time>
      </trkpt>
      <trkpt lat="47.64175" lon="-2.13215">
        <ele>116</ele>
        <time>2018-03-18T08:20:34.000Z</time>
      </trkpt>
      <trkpt lat="47.64179" lon="-2.13199">
        <ele>116</ele>
        <time>2018-03-18T08:20:37.000Z</time>
      </trkpt>
      <trkpt lat="47.64212" lon="-2.13199">
        <ele>115</ele>
        <time>2018-03-18T08:20:45.000Z</time>
      </trkpt>
      <trkpt lat="47.64212" lon="-2.13199">
        <ele>115</ele>
        <time>2018-03-18T08:20:45.000Z</time>
      </trkpt>
      <trkpt lat="47.64217" lon="-2.13198">
        <ele>115</ele>
        <time>2018-03-18T08:20:46.000Z</time>
      </trkpt>
      <trkpt lat="47.64221" lon="-2.13198">
        <ele>115</ele>
        <time>2018-03-18T08:20:47.000Z</time>
      </trkpt>
      <trkpt lat="47.64225" lon="-2.13197">
        <ele>115</ele>
        <time>2018-03-18T08:20:48.000Z</time>
      </trkpt>
      <trkpt lat="47.64229" lon="-2.13196">
        <ele>116</ele>
        <time>2018-03-18T08:20:49.000Z</time>
      </trkpt>
      <trkpt lat="47.64235" lon="-2.13188">
        <ele>116</ele>
        <time>2018-03-18T08:20:51.000Z</time>
      </trkpt>
      <trkpt lat="47.64236" lon="-2.13182">
        <ele>116</ele>
        <time>2018-03-18T08:20:52.000Z</time>
      </trkpt>
      <trkpt lat="47.64236" lon="-2.13175">
        <ele>115</ele>
        <time>2018-03-18T08:20:53.000Z</time>
      </trkpt>
      <trkpt lat="47.64236" lon="-2.13167">
        <ele>115</ele>
        <time>2018-03-18T08:20:54.000Z</time>
      </trkpt>
      <trkpt lat="47.64235" lon="-2.13159">
        <ele>115</ele>
        <time>2018-03-18T08:20:55.000Z</time>
      </trkpt>
      <trkpt lat="47.64233" lon="-2.13097">
        <ele>113</ele>
        <time>2018-03-18T08:21:02.000Z</time>
      </trkpt>
      <trkpt lat="47.64214" lon="-2.1305">
        <ele>112</ele>
        <time>2018-03-18T08:21:14.000Z</time>
      </trkpt>
      <trkpt lat="47.64219" lon="-2.1302">
        <ele>112</ele>
        <time>2018-03-18T08:21:24.000Z</time>
      </trkpt>
      <trkpt lat="47.64198" lon="-2.13004">
        <ele>112</ele>
        <time>2018-03-18T08:21:36.000Z</time>
      </trkpt>
      <trkpt lat="47.64186" lon="-2.12996">
        <ele>111</ele>
        <time>2018-03-18T08:21:42.000Z</time>
      </trkpt>
      <trkpt lat="47.64176" lon="-2.12964">
        <ele>109</ele>
        <time>2018-03-18T08:21:49.000Z</time>
      </trkpt>
      <trkpt lat="47.64176" lon="-2.12964">
        <ele>109</ele>
        <time>2018-03-18T08:21:49.000Z</time>
      </trkpt>
      <trkpt lat="47.64175" lon="-2.12958">
        <ele>109</ele>
        <time>2018-03-18T08:21:50.000Z</time>
      </trkpt>
      <trkpt lat="47.64175" lon="-2.12953">
        <ele>108</ele>
        <time>2018-03-18T08:21:51.000Z</time>
      </trkpt>
      <trkpt lat="47.64174" lon="-2.12948">
        <ele>108</ele>
        <time>2018-03-18T08:21:52.000Z</time>
      </trkpt>
      <trkpt lat="47.64172" lon="-2.12942">
        <ele>108</ele>
        <time>2018-03-18T08:21:54.000Z</time>
      </trkpt>
      <trkpt lat="47.64169" lon="-2.12938">
        <ele>109</ele>
        <time>2018-03-18T08:21:56.000Z</time>
      </trkpt>
      <trkpt lat="47.64166" lon="-2.12936">
        <ele>109</ele>
        <time>2018-03-18T08:21:57.000Z</time>
      </trkpt>
      <trkpt lat="47.64163" lon="-2.12932">
        <ele>109</ele>
        <time>2018-03-18T08:21:59.000Z</time>
      </trkpt>
      <trkpt lat="47.6416" lon="-2.1293">
        <ele>109</ele>
        <time>2018-03-18T08:22:01.000Z</time>
      </trkpt>
      <trkpt lat="47.64157" lon="-2.12932">
        <ele>109</ele>
        <time>2018-03-18T08:22:03.000Z</time>
      </trkpt>
      <trkpt lat="47.64154" lon="-2.12935">
        <ele>109</ele>
        <time>2018-03-18T08:22:05.000Z</time>
      </trkpt>
      <trkpt lat="47.64153" lon="-2.1294">
        <ele>108</ele>
        <time>2018-03-18T08:22:07.000Z</time>
      </trkpt>
      <trkpt lat="47.64149" lon="-2.12945">
        <ele>109</ele>
        <time>2018-03-18T08:22:09.000Z</time>
      </trkpt>
      <trkpt lat="47.64147" lon="-2.12949">
        <ele>109</ele>
        <time>2018-03-18T08:22:11.000Z</time>
      </trkpt>
      <trkpt lat="47.64144" lon="-2.12953">
        <ele>109</ele>
        <time>2018-03-18T08:22:13.000Z</time>
      </trkpt>
      <trkpt lat="47.64143" lon="-2.12958">
        <ele>109</ele>
        <time>2018-03-18T08:22:15.000Z</time>
      </trkpt>
      <trkpt lat="47.64129" lon="-2.12918">
        <ele>109</ele>
        <time>2018-03-18T08:22:43.000Z</time>
      </trkpt>
      <trkpt lat="47.64125" lon="-2.12887">
        <ele>109</ele>
        <time>2018-03-18T08:22:53.000Z</time>
      </trkpt>
      <trkpt lat="47.64111" lon="-2.12876">
        <ele>110</ele>
        <time>2018-03-18T08:22:58.000Z</time>
      </trkpt>
      <trkpt lat="47.64077" lon="-2.12867">
        <ele>110</ele>
        <time>2018-03-18T08:23:11.000Z</time>
      </trkpt>
      <trkpt lat="47.64057" lon="-2.12859">
        <ele>108</ele>
        <time>2018-03-18T08:23:18.000Z</time>
      </trkpt>
      <trkpt lat="47.64047" lon="-2.12839">
        <ele>105</ele>
        <time>2018-03-18T08:23:22.000Z</time>
      </trkpt>
      <trkpt lat="47.64053" lon="-2.12793">
        <ele>101</ele>
        <time>2018-03-18T08:23:31.000Z</time>
      </trkpt>
      <trkpt lat="47.64065" lon="-2.12792">
        <ele>100</ele>
        <time>2018-03-18T08:23:36.000Z</time>
      </trkpt>
      <trkpt lat="47.64093" lon="-2.12825">
        <ele>102</ele>
        <time>2018-03-18T08:23:50.000Z</time>
      </trkpt>
      <trkpt lat="47.64117" lon="-2.12857">
        <ele>105</ele>
        <time>2018-03-18T08:24:10.000Z</time>
      </trkpt>
      <trkpt lat="47.64142" lon="-2.12888">
        <ele>103</ele>
        <time>2018-03-18T08:24:24.000Z</time>
      </trkpt>
      <trkpt lat="47.64172" lon="-2.12917">
        <ele>103</ele>
        <time>2018-03-18T08:24:31.000Z</time>
      </trkpt>
      <trkpt lat="47.64199" lon="-2.12948">
        <ele>107</ele>
        <time>2018-03-18T08:24:54.000Z</time>
      </trkpt>
      <trkpt lat="47.64213" lon="-2.12962">
        <ele>106</ele>
        <time>2018-03-18T08:25:08.000Z</time>
      </trkpt>
      <trkpt lat="47.6423" lon="-2.12971">
        <ele>110</ele>
        <time>2018-03-18T08:25:38.000Z</time>
      </trkpt>
      <trkpt lat="47.64252" lon="-2.12968">
        <ele>112</ele>
        <time>2018-03-18T08:25:53.000Z</time>
      </trkpt>
      <trkpt lat="47.64252" lon="-2.12968">
        <ele>112</ele>
        <time>2018-03-18T08:25:54.000Z</time>
      </trkpt>
      <trkpt lat="47.6428" lon="-2.12944">
        <ele>114</ele>
        <time>2018-03-18T08:26:10.000Z</time>
      </trkpt>
      <trkpt lat="47.64294" lon="-2.12931">
        <ele>115</ele>
        <time>2018-03-18T08:26:19.000Z</time>
      </trkpt>
      <trkpt lat="47.64312" lon="-2.12945">
        <ele>117</ele>
        <time>2018-03-18T08:26:41.000Z</time>
      </trkpt>
      <trkpt lat="47.64318" lon="-2.12897">
        <ele>110</ele>
        <time>2018-03-18T08:26:52.000Z</time>
      </trkpt>
      <trkpt lat="47.64315" lon="-2.12885">
        <ele>109</ele>
        <time>2018-03-18T08:26:56.000Z</time>
      </trkpt>
      <trkpt lat="47.64284" lon="-2.12892">
        <ele>110</ele>
        <time>2018-03-18T08:27:17.000Z</time>
      </trkpt>
      <trkpt lat="47.6427" lon="-2.12898">
        <ele>110</ele>
        <time>2018-03-18T08:27:24.000Z</time>
      </trkpt>
      <trkpt lat="47.64257" lon="-2.12927">
        <ele>110</ele>
        <time>2018-03-18T08:27:34.000Z</time>
      </trkpt>
      <trkpt lat="47.64244" lon="-2.12935">
        <ele>110</ele>
        <time>2018-03-18T08:27:40.000Z</time>
      </trkpt>
      <trkpt lat="47.64224" lon="-2.12927">
        <ele>108</ele>
        <time>2018-03-18T08:27:46.000Z</time>
      </trkpt>
      <trkpt lat="47.64189" lon="-2.12917">
        <ele>106</ele>
        <time>2018-03-18T08:27:54.000Z</time>
      </trkpt>
      <trkpt lat="47.6417" lon="-2.12874">
        <ele>107</ele>
        <time>2018-03-18T08:28:11.000Z</time>
      </trkpt>
      <trkpt lat="47.64137" lon="-2.12865">
        <ele>108</ele>
        <time>2018-03-18T08:28:31.000Z</time>
      </trkpt>
      <trkpt lat="47.64149" lon="-2.1283">
        <ele>105</ele>
        <time>2018-03-18T08:28:44.000Z</time>
      </trkpt>
      <trkpt lat="47.64137" lon="-2.12813">
        <ele>104</ele>
        <time>2018-03-18T08:28:50.000Z</time>
      </trkpt>
      <trkpt lat="47.64137" lon="-2.12813">
        <ele>104</ele>
        <time>2018-03-18T08:28:51.000Z</time>
      </trkpt>
      <trkpt lat="47.64116" lon="-2.12792">
        <ele>105</ele>
        <time>2018-03-18T08:29:10.000Z</time>
      </trkpt>
      <trkpt lat="47.64112" lon="-2.12792">
        <ele>105</ele>
        <time>2018-03-18T08:29:12.000Z</time>
      </trkpt>
      <trkpt lat="47.64107" lon="-2.1279">
        <ele>105</ele>
        <time>2018-03-18T08:29:14.000Z</time>
      </trkpt>
      <trkpt lat="47.64104" lon="-2.12786">
        <ele>104</ele>
        <time>2018-03-18T08:29:16.000Z</time>
      </trkpt>
      <trkpt lat="47.64103" lon="-2.12781">
        <ele>103</ele>
        <time>2018-03-18T08:29:18.000Z</time>
      </trkpt>
      <trkpt lat="47.64103" lon="-2.12776">
        <ele>102</ele>
        <time>2018-03-18T08:29:21.000Z</time>
      </trkpt>
      <trkpt lat="47.64106" lon="-2.12773">
        <ele>101</ele>
        <time>2018-03-18T08:29:23.000Z</time>
      </trkpt>
      <trkpt lat="47.64108" lon="-2.1277">
        <ele>100</ele>
        <time>2018-03-18T08:29:24.000Z</time>
      </trkpt>
      <trkpt lat="47.64112" lon="-2.12764">
        <ele>99</ele>
        <time>2018-03-18T08:29:25.000Z</time>
      </trkpt>
      <trkpt lat="47.64115" lon="-2.12759">
        <ele>99</ele>
        <time>2018-03-18T08:29:26.000Z</time>
      </trkpt>
      <trkpt lat="47.64119" lon="-2.1276">
        <ele>98</ele>
        <time>2018-03-18T08:29:29.000Z</time>
      </trkpt>
      <trkpt lat="47.64124" lon="-2.12763">
        <ele>98</ele>
        <time>2018-03-18T08:29:31.000Z</time>
      </trkpt>
      <trkpt lat="47.64128" lon="-2.12764">
        <ele>98</ele>
        <time>2018-03-18T08:29:33.000Z</time>
      </trkpt>
      <trkpt lat="47.64133" lon="-2.12766">
        <ele>97</ele>
        <time>2018-03-18T08:29:35.000Z</time>
      </trkpt>
      <trkpt lat="47.64137" lon="-2.12769">
        <ele>97</ele>
        <time>2018-03-18T08:29:36.000Z</time>
      </trkpt>
      <trkpt lat="47.64139" lon="-2.12772">
        <ele>97</ele>
        <time>2018-03-18T08:29:37.000Z</time>
      </trkpt>
      <trkpt lat="47.64142" lon="-2.12777">
        <ele>96</ele>
        <time>2018-03-18T08:29:38.000Z</time>
      </trkpt>
      <trkpt lat="47.64144" lon="-2.12781">
        <ele>96</ele>
        <time>2018-03-18T08:29:39.000Z</time>
      </trkpt>
      <trkpt lat="47.64146" lon="-2.12785">
        <ele>96</ele>
        <time>2018-03-18T08:29:40.000Z</time>
      </trkpt>
      <trkpt lat="47.64148" lon="-2.12789">
        <ele>96</ele>
        <time>2018-03-18T08:29:41.000Z</time>
      </trkpt>
      <trkpt lat="47.64149" lon="-2.12794">
        <ele>96</ele>
        <time>2018-03-18T08:29:42.000Z</time>
      </trkpt>
      <trkpt lat="47.64169" lon="-2.12845">
        <ele>95</ele>
        <time>2018-03-18T08:29:57.000Z</time>
      </trkpt>
      <trkpt lat="47.64178" lon="-2.12869">
        <ele>95</ele>
        <time>2018-03-18T08:30:05.000Z</time>
      </trkpt>
      <trkpt lat="47.64203" lon="-2.12859">
        <ele>95</ele>
        <time>2018-03-18T08:30:21.000Z</time>
      </trkpt>
      <trkpt lat="47.64228" lon="-2.12822">
        <ele>96</ele>
        <time>2018-03-18T08:30:35.000Z</time>
      </trkpt>
      <trkpt lat="47.6424" lon="-2.12806">
        <ele>96</ele>
        <time>2018-03-18T08:30:40.000Z</time>
      </trkpt>
      <trkpt lat="47.64264" lon="-2.12823">
        <ele>95</ele>
        <time>2018-03-18T08:30:52.000Z</time>
      </trkpt>
      <trkpt lat="47.64287" lon="-2.12834">
        <ele>98</ele>
        <time>2018-03-18T08:31:02.000Z</time>
      </trkpt>
      <trkpt lat="47.64291" lon="-2.12856">
        <ele>99</ele>
        <time>2018-03-18T08:31:09.000Z</time>
      </trkpt>
      <trkpt lat="47.64322" lon="-2.12872">
        <ele>105</ele>
        <time>2018-03-18T08:31:29.000Z</time>
      </trkpt>
      <trkpt lat="47.64355" lon="-2.12878">
        <ele>109</ele>
        <time>2018-03-18T08:31:43.000Z</time>
      </trkpt>
      <trkpt lat="47.64388" lon="-2.12877">
        <ele>111</ele>
        <time>2018-03-18T08:31:57.000Z</time>
      </trkpt>
      <trkpt lat="47.64413" lon="-2.1285">
        <ele>111</ele>
        <time>2018-03-18T08:32:02.000Z</time>
      </trkpt>
      <trkpt lat="47.64429" lon="-2.12837">
        <ele>112</ele>
        <time>2018-03-18T08:32:07.000Z</time>
      </trkpt>
      <trkpt lat="47.64442" lon="-2.12842">
        <ele>111</ele>
        <time>2018-03-18T08:32:20.000Z</time>
      </trkpt>
      <trkpt lat="47.64473" lon="-2.12861">
        <ele>109</ele>
        <time>2018-03-18T08:32:38.000Z</time>
      </trkpt>
      <trkpt lat="47.64505" lon="-2.12879">
        <ele>111</ele>
        <time>2018-03-18T08:32:53.000Z</time>
      </trkpt>
      <trkpt lat="47.64537" lon="-2.12896">
        <ele>111</ele>
        <time>2018-03-18T08:33:09.000Z</time>
      </trkpt>
      <trkpt lat="47.64572" lon="-2.12914">
        <ele>110</ele>
        <time>2018-03-18T08:33:25.000Z</time>
      </trkpt>
      <trkpt lat="47.64605" lon="-2.12935">
        <ele>110</ele>
        <time>2018-03-18T08:33:38.000Z</time>
      </trkpt>
      <trkpt lat="47.64628" lon="-2.1295">
        <ele>111</ele>
        <time>2018-03-18T08:33:48.000Z</time>
      </trkpt>
      <trkpt lat="47.6463" lon="-2.12975">
        <ele>111</ele>
        <time>2018-03-18T08:33:55.000Z</time>
      </trkpt>
      <trkpt lat="47.64632" lon="-2.13032">
        <ele>113</ele>
        <time>2018-03-18T08:34:08.000Z</time>
      </trkpt>
      <trkpt lat="47.64633" lon="-2.13089">
        <ele>115</ele>
        <time>2018-03-18T08:34:20.000Z</time>
      </trkpt>
      <trkpt lat="47.64638" lon="-2.13126">
        <ele>115</ele>
        <time>2018-03-18T08:34:28.000Z</time>
      </trkpt>
      <trkpt lat="47.64646" lon="-2.13139">
        <ele>115</ele>
        <time>2018-03-18T08:34:32.000Z</time>
      </trkpt>
      <trkpt lat="47.64656" lon="-2.13151">
        <ele>115</ele>
        <time>2018-03-18T08:34:36.000Z</time>
      </trkpt>
      <trkpt lat="47.64683" lon="-2.13151">
        <ele>115</ele>
        <time>2018-03-18T08:34:42.000Z</time>
      </trkpt>
      <trkpt lat="47.64723" lon="-2.13153">
        <ele>114</ele>
        <time>2018-03-18T08:34:51.000Z</time>
      </trkpt>
      <trkpt lat="47.64762" lon="-2.13156">
        <ele>115</ele>
        <time>2018-03-18T08:35:00.000Z</time>
      </trkpt>
      <trkpt lat="47.64774" lon="-2.13162">
        <ele>115</ele>
        <time>2018-03-18T08:35:05.000Z</time>
      </trkpt>
      <trkpt lat="47.64798" lon="-2.13153">
        <ele>113</ele>
        <time>2018-03-18T08:35:16.000Z</time>
      </trkpt>
      <trkpt lat="47.64809" lon="-2.13155">
        <ele>112</ele>
        <time>2018-03-18T08:35:22.000Z</time>
      </trkpt>
      <trkpt lat="47.64818" lon="-2.13194">
        <ele>114</ele>
        <time>2018-03-18T08:35:40.000Z</time>
      </trkpt>
      <trkpt lat="47.64818" lon="-2.13194">
        <ele>114</ele>
        <time>2018-03-18T08:35:40.000Z</time>
      </trkpt>
      <trkpt lat="47.64818" lon="-2.13199">
        <ele>115</ele>
        <time>2018-03-18T08:35:43.000Z</time>
      </trkpt>
      <trkpt lat="47.64819" lon="-2.13203">
        <ele>116</ele>
        <time>2018-03-18T08:35:46.000Z</time>
      </trkpt>
      <trkpt lat="47.64823" lon="-2.13206">
        <ele>117</ele>
        <time>2018-03-18T08:35:50.000Z</time>
      </trkpt>
      <trkpt lat="47.64826" lon="-2.13206">
        <ele>117</ele>
        <time>2018-03-18T08:35:53.000Z</time>
      </trkpt>
      <trkpt lat="47.64829" lon="-2.13207">
        <ele>117</ele>
        <time>2018-03-18T08:35:55.000Z</time>
      </trkpt>
      <trkpt lat="47.64832" lon="-2.13208">
        <ele>116</ele>
        <time>2018-03-18T08:35:57.000Z</time>
      </trkpt>
      <trkpt lat="47.64836" lon="-2.1321">
        <ele>116</ele>
        <time>2018-03-18T08:35:59.000Z</time>
      </trkpt>
      <trkpt lat="47.64839" lon="-2.13211">
        <ele>116</ele>
        <time>2018-03-18T08:36:01.000Z</time>
      </trkpt>
      <trkpt lat="47.64843" lon="-2.13209">
        <ele>116</ele>
        <time>2018-03-18T08:36:03.000Z</time>
      </trkpt>
      <trkpt lat="47.64846" lon="-2.13206">
        <ele>116</ele>
        <time>2018-03-18T08:36:05.000Z</time>
      </trkpt>
      <trkpt lat="47.64848" lon="-2.13203">
        <ele>117</ele>
        <time>2018-03-18T08:36:08.000Z</time>
      </trkpt>
      <trkpt lat="47.64845" lon="-2.13204">
        <ele>118</ele>
        <time>2018-03-18T08:36:19.000Z</time>
      </trkpt>
      <trkpt lat="47.64841" lon="-2.13201">
        <ele>117</ele>
        <time>2018-03-18T08:36:21.000Z</time>
      </trkpt>
      <trkpt lat="47.64838" lon="-2.13198">
        <ele>117</ele>
        <time>2018-03-18T08:36:22.000Z</time>
      </trkpt>
      <trkpt lat="47.64837" lon="-2.13192">
        <ele>117</ele>
        <time>2018-03-18T08:36:24.000Z</time>
      </trkpt>
      <trkpt lat="47.64835" lon="-2.13187">
        <ele>116</ele>
        <time>2018-03-18T08:36:26.000Z</time>
      </trkpt>
      <trkpt lat="47.64837" lon="-2.13182">
        <ele>113</ele>
        <time>2018-03-18T08:36:28.000Z</time>
      </trkpt>
      <trkpt lat="47.64838" lon="-2.13177">
        <ele>112</ele>
        <time>2018-03-18T08:36:29.000Z</time>
      </trkpt>
      <trkpt lat="47.6484" lon="-2.13173">
        <ele>111</ele>
        <time>2018-03-18T08:36:30.000Z</time>
      </trkpt>
      <trkpt lat="47.64857" lon="-2.13154">
        <ele>110</ele>
        <time>2018-03-18T08:36:43.000Z</time>
      </trkpt>
      <trkpt lat="47.64863" lon="-2.13174">
        <ele>111</ele>
        <time>2018-03-18T08:37:03.000Z</time>
      </trkpt>
      <trkpt lat="47.64877" lon="-2.13207">
        <ele>111</ele>
        <time>2018-03-18T08:37:13.000Z</time>
      </trkpt>
      <trkpt lat="47.64877" lon="-2.13207">
        <ele>111</ele>
        <time>2018-03-18T08:37:14.000Z</time>
      </trkpt>
      <trkpt lat="47.64877" lon="-2.13207">
        <ele>111</ele>
        <time>2018-03-18T08:37:15.000Z</time>
      </trkpt>
      <trkpt lat="47.64902" lon="-2.13232">
        <ele>107</ele>
        <time>2018-03-18T08:38:14.000Z</time>
      </trkpt>
      <trkpt lat="47.64902" lon="-2.13232">
        <ele>107</ele>
        <time>2018-03-18T08:38:15.000Z</time>
      </trkpt>
      <trkpt lat="47.64893" lon="-2.13246">
        <ele>109</ele>
        <time>2018-03-18T08:38:37.000Z</time>
      </trkpt>
      <trkpt lat="47.64866" lon="-2.13281">
        <ele>113</ele>
        <time>2018-03-18T08:39:11.000Z</time>
      </trkpt>
      <trkpt lat="47.64866" lon="-2.13286">
        <ele>113</ele>
        <time>2018-03-18T08:39:16.000Z</time>
      </trkpt>
      <trkpt lat="47.64867" lon="-2.1329">
        <ele>112</ele>
        <time>2018-03-18T08:39:18.000Z</time>
      </trkpt>
      <trkpt lat="47.64867" lon="-2.13297">
        <ele>112</ele>
        <time>2018-03-18T08:39:20.000Z</time>
      </trkpt>
      <trkpt lat="47.64867" lon="-2.13302">
        <ele>114</ele>
        <time>2018-03-18T08:39:22.000Z</time>
      </trkpt>
      <trkpt lat="47.64871" lon="-2.13307">
        <ele>112</ele>
        <time>2018-03-18T08:39:26.000Z</time>
      </trkpt>
      <trkpt lat="47.64874" lon="-2.1331">
        <ele>112</ele>
        <time>2018-03-18T08:39:29.000Z</time>
      </trkpt>
      <trkpt lat="47.64877" lon="-2.13314">
        <ele>112</ele>
        <time>2018-03-18T08:39:32.000Z</time>
      </trkpt>
      <trkpt lat="47.6488" lon="-2.13316">
        <ele>112</ele>
        <time>2018-03-18T08:39:34.000Z</time>
      </trkpt>
      <trkpt lat="47.64885" lon="-2.13317">
        <ele>111</ele>
        <time>2018-03-18T08:39:36.000Z</time>
      </trkpt>
      <trkpt lat="47.64889" lon="-2.13316">
        <ele>111</ele>
        <time>2018-03-18T08:39:38.000Z</time>
      </trkpt>
      <trkpt lat="47.64894" lon="-2.13313">
        <ele>111</ele>
        <time>2018-03-18T08:39:41.000Z</time>
      </trkpt>
      <trkpt lat="47.64897" lon="-2.13307">
        <ele>112</ele>
        <time>2018-03-18T08:39:44.000Z</time>
      </trkpt>
      <trkpt lat="47.64896" lon="-2.13302">
        <ele>112</ele>
        <time>2018-03-18T08:39:46.000Z</time>
      </trkpt>
      <trkpt lat="47.64893" lon="-2.13299">
        <ele>111</ele>
        <time>2018-03-18T08:39:48.000Z</time>
      </trkpt>
      <trkpt lat="47.6489" lon="-2.13298">
        <ele>111</ele>
        <time>2018-03-18T08:39:50.000Z</time>
      </trkpt>
      <trkpt lat="47.64888" lon="-2.13298">
        <ele>111</ele>
        <time>2018-03-18T08:39:52.000Z</time>
      </trkpt>
      <trkpt lat="47.64885" lon="-2.13297">
        <ele>110</ele>
        <time>2018-03-18T08:39:54.000Z</time>
      </trkpt>
      <trkpt lat="47.6488" lon="-2.13297">
        <ele>112</ele>
        <time>2018-03-18T08:39:58.000Z</time>
      </trkpt>
      <trkpt lat="47.64877" lon="-2.13296">
        <ele>112</ele>
        <time>2018-03-18T08:40:00.000Z</time>
      </trkpt>
      <trkpt lat="47.64875" lon="-2.13292">
        <ele>111</ele>
        <time>2018-03-18T08:40:02.000Z</time>
      </trkpt>
      <trkpt lat="47.64876" lon="-2.13286">
        <ele>111</ele>
        <time>2018-03-18T08:40:05.000Z</time>
      </trkpt>
      <trkpt lat="47.6488" lon="-2.13283">
        <ele>111</ele>
        <time>2018-03-18T08:40:07.000Z</time>
      </trkpt>
      <trkpt lat="47.64882" lon="-2.13281">
        <ele>111</ele>
        <time>2018-03-18T08:40:08.000Z</time>
      </trkpt>
      <trkpt lat="47.64885" lon="-2.13278">
        <ele>112</ele>
        <time>2018-03-18T08:40:09.000Z</time>
      </trkpt>
      <trkpt lat="47.64887" lon="-2.13275">
        <ele>112</ele>
        <time>2018-03-18T08:40:10.000Z</time>
      </trkpt>
      <trkpt lat="47.6489" lon="-2.1327">
        <ele>112</ele>
        <time>2018-03-18T08:40:11.000Z</time>
      </trkpt>
      <trkpt lat="47.64893" lon="-2.13265">
        <ele>112</ele>
        <time>2018-03-18T08:40:12.000Z</time>
      </trkpt>
      <trkpt lat="47.64927" lon="-2.13237">
        <ele>110</ele>
        <time>2018-03-18T08:40:25.000Z</time>
      </trkpt>
      <trkpt lat="47.64945" lon="-2.13224">
        <ele>108</ele>
        <time>2018-03-18T08:40:29.000Z</time>
      </trkpt>
      <trkpt lat="47.64962" lon="-2.13234">
        <ele>108</ele>
        <time>2018-03-18T08:40:36.000Z</time>
      </trkpt>
      <trkpt lat="47.64983" lon="-2.13275">
        <ele>106</ele>
        <time>2018-03-18T08:40:49.000Z</time>
      </trkpt>
      <trkpt lat="47.64989" lon="-2.13289">
        <ele>107</ele>
        <time>2018-03-18T08:40:55.000Z</time>
      </trkpt>
      <trkpt lat="47.65017" lon="-2.13275">
        <ele>106</ele>
        <time>2018-03-18T08:41:04.000Z</time>
      </trkpt>
      <trkpt lat="47.65031" lon="-2.13283">
        <ele>105</ele>
        <time>2018-03-18T08:41:10.000Z</time>
      </trkpt>
      <trkpt lat="47.65043" lon="-2.13312">
        <ele>105</ele>
        <time>2018-03-18T08:41:20.000Z</time>
      </trkpt>
      <trkpt lat="47.65068" lon="-2.13269">
        <ele>103</ele>
        <time>2018-03-18T08:41:30.000Z</time>
      </trkpt>
      <trkpt lat="47.65097" lon="-2.13257">
        <ele>102</ele>
        <time>2018-03-18T08:41:46.000Z</time>
      </trkpt>
      <trkpt lat="47.65101" lon="-2.13257">
        <ele>102</ele>
        <time>2018-03-18T08:41:47.000Z</time>
      </trkpt>
      <trkpt lat="47.65105" lon="-2.13257">
        <ele>101</ele>
        <time>2018-03-18T08:41:48.000Z</time>
      </trkpt>
      <trkpt lat="47.65109" lon="-2.13258">
        <ele>101</ele>
        <time>2018-03-18T08:41:49.000Z</time>
      </trkpt>
      <trkpt lat="47.65114" lon="-2.13263">
        <ele>100</ele>
        <time>2018-03-18T08:41:51.000Z</time>
      </trkpt>
      <trkpt lat="47.65117" lon="-2.13268">
        <ele>100</ele>
        <time>2018-03-18T08:41:52.000Z</time>
      </trkpt>
      <trkpt lat="47.65117" lon="-2.13272">
        <ele>100</ele>
        <time>2018-03-18T08:41:53.000Z</time>
      </trkpt>
      <trkpt lat="47.65118" lon="-2.13276">
        <ele>100</ele>
        <time>2018-03-18T08:41:54.000Z</time>
      </trkpt>
      <trkpt lat="47.65116" lon="-2.13283">
        <ele>100</ele>
        <time>2018-03-18T08:41:56.000Z</time>
      </trkpt>
      <trkpt lat="47.65113" lon="-2.13288">
        <ele>100</ele>
        <time>2018-03-18T08:41:58.000Z</time>
      </trkpt>
      <trkpt lat="47.65111" lon="-2.1329">
        <ele>100</ele>
        <time>2018-03-18T08:42:00.000Z</time>
      </trkpt>
      <trkpt lat="47.65108" lon="-2.13291">
        <ele>100</ele>
        <time>2018-03-18T08:42:02.000Z</time>
      </trkpt>
      <trkpt lat="47.65104" lon="-2.13291">
        <ele>100</ele>
        <time>2018-03-18T08:42:04.000Z</time>
      </trkpt>
      <trkpt lat="47.651" lon="-2.1329">
        <ele>100</ele>
        <time>2018-03-18T08:42:06.000Z</time>
      </trkpt>
      <trkpt lat="47.65096" lon="-2.13289">
        <ele>100</ele>
        <time>2018-03-18T08:42:08.000Z</time>
      </trkpt>
      <trkpt lat="47.65092" lon="-2.1329">
        <ele>100</ele>
        <time>2018-03-18T08:42:10.000Z</time>
      </trkpt>
      <trkpt lat="47.65089" lon="-2.13294">
        <ele>101</ele>
        <time>2018-03-18T08:42:13.000Z</time>
      </trkpt>
      <trkpt lat="47.65088" lon="-2.13298">
        <ele>101</ele>
        <time>2018-03-18T08:42:15.000Z</time>
      </trkpt>
      <trkpt lat="47.6506" lon="-2.13337">
        <ele>108</ele>
        <time>2018-03-18T08:42:43.000Z</time>
      </trkpt>
      <trkpt lat="47.6506" lon="-2.13337">
        <ele>108</ele>
        <time>2018-03-18T08:42:44.000Z</time>
      </trkpt>
      <trkpt lat="47.6506" lon="-2.13355">
        <ele>109</ele>
        <time>2018-03-18T08:42:59.000Z</time>
      </trkpt>
      <trkpt lat="47.65025" lon="-2.13357">
        <ele>113</ele>
        <time>2018-03-18T08:43:30.000Z</time>
      </trkpt>
      <trkpt lat="47.65019" lon="-2.13407">
        <ele>113</ele>
        <time>2018-03-18T08:43:57.000Z</time>
      </trkpt>
      <trkpt lat="47.65023" lon="-2.1343">
        <ele>114</ele>
        <time>2018-03-18T08:44:09.000Z</time>
      </trkpt>
      <trkpt lat="47.65042" lon="-2.13448">
        <ele>112</ele>
        <time>2018-03-18T08:44:24.000Z</time>
      </trkpt>
      <trkpt lat="47.6505" lon="-2.13474">
        <ele>114</ele>
        <time>2018-03-18T08:44:41.000Z</time>
      </trkpt>
      <trkpt lat="47.65066" lon="-2.13484">
        <ele>114</ele>
        <time>2018-03-18T08:44:53.000Z</time>
      </trkpt>
      <trkpt lat="47.65091" lon="-2.13486">
        <ele>115</ele>
        <time>2018-03-18T08:45:06.000Z</time>
      </trkpt>
      <trkpt lat="47.65101" lon="-2.13468">
        <ele>114</ele>
        <time>2018-03-18T08:45:12.000Z</time>
      </trkpt>
      <trkpt lat="47.65139" lon="-2.13467">
        <ele>111</ele>
        <time>2018-03-18T08:45:25.000Z</time>
      </trkpt>
      <trkpt lat="47.6516" lon="-2.13475">
        <ele>109</ele>
        <time>2018-03-18T08:45:32.000Z</time>
      </trkpt>
      <trkpt lat="47.65165" lon="-2.13501">
        <ele>108</ele>
        <time>2018-03-18T08:45:40.000Z</time>
      </trkpt>
      <trkpt lat="47.65163" lon="-2.13555">
        <ele>108</ele>
        <time>2018-03-18T08:45:55.000Z</time>
      </trkpt>
      <trkpt lat="47.6516" lon="-2.13608">
        <ele>109</ele>
        <time>2018-03-18T08:46:10.000Z</time>
      </trkpt>
      <trkpt lat="47.65179" lon="-2.13659">
        <ele>109</ele>
        <time>2018-03-18T08:46:18.000Z</time>
      </trkpt>
      <trkpt lat="47.6521" lon="-2.13689">
        <ele>109</ele>
        <time>2018-03-18T08:46:27.000Z</time>
      </trkpt>
      <trkpt lat="47.65243" lon="-2.1372">
        <ele>108</ele>
        <time>2018-03-18T08:46:37.000Z</time>
      </trkpt>
      <trkpt lat="47.65273" lon="-2.13753">
        <ele>109</ele>
        <time>2018-03-18T08:46:48.000Z</time>
      </trkpt>
      <trkpt lat="47.65289" lon="-2.13803">
        <ele>111</ele>
        <time>2018-03-18T08:47:01.000Z</time>
      </trkpt>
      <trkpt lat="47.65287" lon="-2.13856">
        <ele>113</ele>
        <time>2018-03-18T08:47:15.000Z</time>
      </trkpt>
      <trkpt lat="47.65285" lon="-2.13909">
        <ele>116</ele>
        <time>2018-03-18T08:47:31.000Z</time>
      </trkpt>
      <trkpt lat="47.65277" lon="-2.13964">
        <ele>116</ele>
        <time>2018-03-18T08:47:46.000Z</time>
      </trkpt>
      <trkpt lat="47.65268" lon="-2.14017">
        <ele>116</ele>
        <time>2018-03-18T08:47:57.000Z</time>
      </trkpt>
      <trkpt lat="47.65267" lon="-2.14072">
        <ele>117</ele>
        <time>2018-03-18T08:48:07.000Z</time>
      </trkpt>
      <trkpt lat="47.65279" lon="-2.14115">
        <ele>117</ele>
        <time>2018-03-18T08:48:25.000Z</time>
      </trkpt>
      <trkpt lat="47.65272" lon="-2.14111">
        <ele>117</ele>
        <time>2018-03-18T08:48:34.000Z</time>
      </trkpt>
      <trkpt lat="47.65272" lon="-2.14111">
        <ele>117</ele>
        <time>2018-03-18T08:48:35.000Z</time>
      </trkpt>
      <trkpt lat="47.65272" lon="-2.14108">
        <ele>116</ele>
        <time>2018-03-18T08:52:37.000Z</time>
      </trkpt>
      <trkpt lat="47.65272" lon="-2.14108">
        <ele>116</ele>
        <time>2018-03-18T08:52:38.000Z</time>
      </trkpt>
      <trkpt lat="47.65276" lon="-2.14114">
        <ele>115</ele>
        <time>2018-03-18T08:52:53.000Z</time>
      </trkpt>
      <trkpt lat="47.65276" lon="-2.14114">
        <ele>115</ele>
        <time>2018-03-18T08:52:54.000Z</time>
      </trkpt>
      <trkpt lat="47.65292" lon="-2.14115">
        <ele>115</ele>
        <time>2018-03-18T08:53:08.000Z</time>
      </trkpt>
      <trkpt lat="47.65318" lon="-2.14121">
        <ele>114</ele>
        <time>2018-03-18T08:53:15.000Z</time>
      </trkpt>
      <trkpt lat="47.65318" lon="-2.14121">
        <ele>114</ele>
        <time>2018-03-18T08:53:16.000Z</time>
      </trkpt>
      <trkpt lat="47.65353" lon="-2.14131">
        <ele>114</ele>
        <time>2018-03-18T08:53:28.000Z</time>
      </trkpt>
      <trkpt lat="47.65392" lon="-2.14139">
        <ele>115</ele>
        <time>2018-03-18T08:53:38.000Z</time>
      </trkpt>
      <trkpt lat="47.6543" lon="-2.14148">
        <ele>115</ele>
        <time>2018-03-18T08:53:49.000Z</time>
      </trkpt>
      <trkpt lat="47.65469" lon="-2.14154">
        <ele>114</ele>
        <time>2018-03-18T08:54:06.000Z</time>
      </trkpt>
      <trkpt lat="47.65506" lon="-2.1416">
        <ele>114</ele>
        <time>2018-03-18T08:54:15.000Z</time>
      </trkpt>
      <trkpt lat="47.65546" lon="-2.14164">
        <ele>115</ele>
        <time>2018-03-18T08:54:25.000Z</time>
      </trkpt>
      <trkpt lat="47.65581" lon="-2.14152">
        <ele>114</ele>
        <time>2018-03-18T08:54:36.000Z</time>
      </trkpt>
      <trkpt lat="47.65584" lon="-2.14153">
        <ele>114</ele>
        <time>2018-03-18T08:54:38.000Z</time>
      </trkpt>
      <trkpt lat="47.65587" lon="-2.14156">
        <ele>114</ele>
        <time>2018-03-18T08:54:40.000Z</time>
      </trkpt>
      <trkpt lat="47.65589" lon="-2.14159">
        <ele>114</ele>
        <time>2018-03-18T08:54:42.000Z</time>
      </trkpt>
      <trkpt lat="47.65593" lon="-2.14159">
        <ele>114</ele>
        <time>2018-03-18T08:54:45.000Z</time>
      </trkpt>
      <trkpt lat="47.65596" lon="-2.14156">
        <ele>113</ele>
        <time>2018-03-18T08:54:48.000Z</time>
      </trkpt>
      <trkpt lat="47.656" lon="-2.14154">
        <ele>113</ele>
        <time>2018-03-18T08:54:51.000Z</time>
      </trkpt>
      <trkpt lat="47.65601" lon="-2.1415">
        <ele>113</ele>
        <time>2018-03-18T08:54:54.000Z</time>
      </trkpt>
      <trkpt lat="47.65601" lon="-2.14145">
        <ele>113</ele>
        <time>2018-03-18T08:54:56.000Z</time>
      </trkpt>
      <trkpt lat="47.65601" lon="-2.14139">
        <ele>112</ele>
        <time>2018-03-18T08:54:58.000Z</time>
      </trkpt>
      <trkpt lat="47.65603" lon="-2.14135">
        <ele>111</ele>
        <time>2018-03-18T08:55:00.000Z</time>
      </trkpt>
      <trkpt lat="47.65606" lon="-2.14134">
        <ele>111</ele>
        <time>2018-03-18T08:55:02.000Z</time>
      </trkpt>
      <trkpt lat="47.65609" lon="-2.14134">
        <ele>111</ele>
        <time>2018-03-18T08:55:04.000Z</time>
      </trkpt>
      <trkpt lat="47.65646" lon="-2.14117">
        <ele>107</ele>
        <time>2018-03-18T08:55:15.000Z</time>
      </trkpt>
      <trkpt lat="47.65678" lon="-2.14114">
        <ele>103</ele>
        <time>2018-03-18T08:55:23.000Z</time>
      </trkpt>
      <trkpt lat="47.65712" lon="-2.14083">
        <ele>100</ele>
        <time>2018-03-18T08:55:31.000Z</time>
      </trkpt>
      <trkpt lat="47.65741" lon="-2.14052">
        <ele>97</ele>
        <time>2018-03-18T08:55:40.000Z</time>
      </trkpt>
      <trkpt lat="47.65773" lon="-2.14022">
        <ele>96</ele>
        <time>2018-03-18T08:55:52.000Z</time>
      </trkpt>
      <trkpt lat="47.65807" lon="-2.14007">
        <ele>95</ele>
        <time>2018-03-18T08:55:58.000Z</time>
      </trkpt>
      <trkpt lat="47.65824" lon="-2.13988">
        <ele>93</ele>
        <time>2018-03-18T08:56:06.000Z</time>
      </trkpt>
      <trkpt lat="47.65831" lon="-2.13979">
        <ele>92</ele>
        <time>2018-03-18T08:56:19.000Z</time>
      </trkpt>
      <trkpt lat="47.6584" lon="-2.13952">
        <ele>92</ele>
        <time>2018-03-18T08:56:36.000Z</time>
      </trkpt>
      <trkpt lat="47.6584" lon="-2.13952">
        <ele>92</ele>
        <time>2018-03-18T08:56:37.000Z</time>
      </trkpt>
      <trkpt lat="47.65845" lon="-2.1393">
        <ele>92</ele>
        <time>2018-03-18T08:56:57.000Z</time>
      </trkpt>
      <trkpt lat="47.65865" lon="-2.13909">
        <ele>91</ele>
        <time>2018-03-18T08:57:07.000Z</time>
      </trkpt>
      <trkpt lat="47.65898" lon="-2.13881">
        <ele>87</ele>
        <time>2018-03-18T08:57:15.000Z</time>
      </trkpt>
      <trkpt lat="47.65932" lon="-2.13858">
        <ele>81</ele>
        <time>2018-03-18T08:57:25.000Z</time>
      </trkpt>
      <trkpt lat="47.65967" lon="-2.13839">
        <ele>75</ele>
        <time>2018-03-18T08:57:35.000Z</time>
      </trkpt>
      <trkpt lat="47.66002" lon="-2.13832">
        <ele>72</ele>
        <time>2018-03-18T08:57:45.000Z</time>
      </trkpt>
      <trkpt lat="47.66039" lon="-2.13816">
        <ele>68</ele>
        <time>2018-03-18T08:57:53.000Z</time>
      </trkpt>
      <trkpt lat="47.66063" lon="-2.13806">
        <ele>67</ele>
        <time>2018-03-18T08:58:01.000Z</time>
      </trkpt>
      <trkpt lat="47.66072" lon="-2.13789">
        <ele>67</ele>
        <time>2018-03-18T08:58:08.000Z</time>
      </trkpt>
      <trkpt lat="47.66094" lon="-2.13744">
        <ele>66</ele>
        <time>2018-03-18T08:58:19.000Z</time>
      </trkpt>
      <trkpt lat="47.66107" lon="-2.13691">
        <ele>67</ele>
        <time>2018-03-18T08:58:31.000Z</time>
      </trkpt>
      <trkpt lat="47.66114" lon="-2.13688">
        <ele>66</ele>
        <time>2018-03-18T08:58:35.000Z</time>
      </trkpt>
      <trkpt lat="47.66131" lon="-2.13732">
        <ele>65</ele>
        <time>2018-03-18T08:58:49.000Z</time>
      </trkpt>
      <trkpt lat="47.66149" lon="-2.13782">
        <ele>66</ele>
        <time>2018-03-18T08:59:06.000Z</time>
      </trkpt>
      <trkpt lat="47.66167" lon="-2.13831">
        <ele>68</ele>
        <time>2018-03-18T08:59:22.000Z</time>
      </trkpt>
      <trkpt lat="47.66184" lon="-2.13881">
        <ele>68</ele>
        <time>2018-03-18T08:59:36.000Z</time>
      </trkpt>
      <trkpt lat="47.66191" lon="-2.13902">
        <ele>68</ele>
        <time>2018-03-18T08:59:41.000Z</time>
      </trkpt>
      <trkpt lat="47.66198" lon="-2.13935">
        <ele>69</ele>
        <time>2018-03-18T08:59:48.000Z</time>
      </trkpt>
      <trkpt lat="47.66205" lon="-2.13989">
        <ele>69</ele>
        <time>2018-03-18T09:00:00.000Z</time>
      </trkpt>
      <trkpt lat="47.66212" lon="-2.14047">
        <ele>70</ele>
        <time>2018-03-18T09:00:10.000Z</time>
      </trkpt>
      <trkpt lat="47.66228" lon="-2.14097">
        <ele>72</ele>
        <time>2018-03-18T09:00:20.000Z</time>
      </trkpt>
      <trkpt lat="47.6625" lon="-2.14141">
        <ele>73</ele>
        <time>2018-03-18T09:00:31.000Z</time>
      </trkpt>
      <trkpt lat="47.66271" lon="-2.14187">
        <ele>73</ele>
        <time>2018-03-18T09:00:42.000Z</time>
      </trkpt>
      <trkpt lat="47.66282" lon="-2.14219">
        <ele>75</ele>
        <time>2018-03-18T09:00:49.000Z</time>
      </trkpt>
      <trkpt lat="47.6629" lon="-2.14234">
        <ele>75</ele>
        <time>2018-03-18T09:00:52.000Z</time>
      </trkpt>
      <trkpt lat="47.66308" lon="-2.14259">
        <ele>74</ele>
        <time>2018-03-18T09:00:57.000Z</time>
      </trkpt>
      <trkpt lat="47.66315" lon="-2.14272">
        <ele>74</ele>
        <time>2018-03-18T09:00:59.000Z</time>
      </trkpt>
      <trkpt lat="47.66319" lon="-2.14329">
        <ele>73</ele>
        <time>2018-03-18T09:01:08.000Z</time>
      </trkpt>
      <trkpt lat="47.66327" lon="-2.14383">
        <ele>75</ele>
        <time>2018-03-18T09:01:17.000Z</time>
      </trkpt>
      <trkpt lat="47.66336" lon="-2.14413">
        <ele>76</ele>
        <time>2018-03-18T09:01:23.000Z</time>
      </trkpt>
      <trkpt lat="47.66344" lon="-2.1443">
        <ele>77</ele>
        <time>2018-03-18T09:01:27.000Z</time>
      </trkpt>
      <trkpt lat="47.66365" lon="-2.14472">
        <ele>78</ele>
        <time>2018-03-18T09:01:37.000Z</time>
      </trkpt>
      <trkpt lat="47.66374" lon="-2.14508">
        <ele>78</ele>
        <time>2018-03-18T09:01:42.000Z</time>
      </trkpt>
      <trkpt lat="47.66372" lon="-2.14526">
        <ele>77</ele>
        <time>2018-03-18T09:01:44.000Z</time>
      </trkpt>
      <trkpt lat="47.66365" lon="-2.1458">
        <ele>77</ele>
        <time>2018-03-18T09:01:50.000Z</time>
      </trkpt>
      <trkpt lat="47.66352" lon="-2.14591">
        <ele>77</ele>
        <time>2018-03-18T09:01:53.000Z</time>
      </trkpt>
      <trkpt lat="47.66327" lon="-2.1459">
        <ele>78</ele>
        <time>2018-03-18T09:01:59.000Z</time>
      </trkpt>
      <trkpt lat="47.66315" lon="-2.14604">
        <ele>78</ele>
        <time>2018-03-18T09:02:04.000Z</time>
      </trkpt>
      <trkpt lat="47.66326" lon="-2.14645">
        <ele>80</ele>
        <time>2018-03-18T09:02:14.000Z</time>
      </trkpt>
      <trkpt lat="47.66344" lon="-2.14694">
        <ele>83</ele>
        <time>2018-03-18T09:02:27.000Z</time>
      </trkpt>
      <trkpt lat="47.66339" lon="-2.14749">
        <ele>85</ele>
        <time>2018-03-18T09:02:42.000Z</time>
      </trkpt>
      <trkpt lat="47.66333" lon="-2.14801">
        <ele>88</ele>
        <time>2018-03-18T09:02:55.000Z</time>
      </trkpt>
      <trkpt lat="47.66329" lon="-2.14856">
        <ele>90</ele>
        <time>2018-03-18T09:03:06.000Z</time>
      </trkpt>
      <trkpt lat="47.66317" lon="-2.14911">
        <ele>91</ele>
        <time>2018-03-18T09:03:17.000Z</time>
      </trkpt>
      <trkpt lat="47.66315" lon="-2.14947">
        <ele>92</ele>
        <time>2018-03-18T09:03:24.000Z</time>
      </trkpt>
      <trkpt lat="47.66319" lon="-2.14967">
        <ele>92</ele>
        <time>2018-03-18T09:03:29.000Z</time>
      </trkpt>
      <trkpt lat="47.66327" lon="-2.14985">
        <ele>93</ele>
        <time>2018-03-18T09:03:34.000Z</time>
      </trkpt>
      <trkpt lat="47.66344" lon="-2.15008">
        <ele>93</ele>
        <time>2018-03-18T09:03:42.000Z</time>
      </trkpt>
      <trkpt lat="47.66361" lon="-2.15057">
        <ele>91</ele>
        <time>2018-03-18T09:03:50.000Z</time>
      </trkpt>
      <trkpt lat="47.6637" lon="-2.15108">
        <ele>90</ele>
        <time>2018-03-18T09:04:03.000Z</time>
      </trkpt>
      <trkpt lat="47.66368" lon="-2.15129">
        <ele>90</ele>
        <time>2018-03-18T09:04:10.000Z</time>
      </trkpt>
      <trkpt lat="47.66381" lon="-2.15158">
        <ele>91</ele>
        <time>2018-03-18T09:04:18.000Z</time>
      </trkpt>
      <trkpt lat="47.66406" lon="-2.15201">
        <ele>91</ele>
        <time>2018-03-18T09:04:30.000Z</time>
      </trkpt>
      <trkpt lat="47.66426" lon="-2.15246">
        <ele>92</ele>
        <time>2018-03-18T09:04:38.000Z</time>
      </trkpt>
      <trkpt lat="47.66427" lon="-2.1525">
        <ele>92</ele>
        <time>2018-03-18T09:04:39.000Z</time>
      </trkpt>
      <trkpt lat="47.66429" lon="-2.15254">
        <ele>92</ele>
        <time>2018-03-18T09:04:40.000Z</time>
      </trkpt>
      <trkpt lat="47.6643" lon="-2.15257">
        <ele>92</ele>
        <time>2018-03-18T09:04:41.000Z</time>
      </trkpt>
      <trkpt lat="47.66433" lon="-2.15263">
        <ele>93</ele>
        <time>2018-03-18T09:04:43.000Z</time>
      </trkpt>
      <trkpt lat="47.66434" lon="-2.15268">
        <ele>93</ele>
        <time>2018-03-18T09:04:45.000Z</time>
      </trkpt>
      <trkpt lat="47.66436" lon="-2.15271">
        <ele>93</ele>
        <time>2018-03-18T09:04:47.000Z</time>
      </trkpt>
      <trkpt lat="47.66435" lon="-2.15277">
        <ele>93</ele>
        <time>2018-03-18T09:04:50.000Z</time>
      </trkpt>
      <trkpt lat="47.66433" lon="-2.15281">
        <ele>93</ele>
        <time>2018-03-18T09:04:52.000Z</time>
      </trkpt>
      <trkpt lat="47.66431" lon="-2.15284">
        <ele>94</ele>
        <time>2018-03-18T09:04:54.000Z</time>
      </trkpt>
      <trkpt lat="47.66428" lon="-2.15285">
        <ele>94</ele>
        <time>2018-03-18T09:04:56.000Z</time>
      </trkpt>
      <trkpt lat="47.66425" lon="-2.15286">
        <ele>94</ele>
        <time>2018-03-18T09:04:58.000Z</time>
      </trkpt>
      <trkpt lat="47.66422" lon="-2.15286">
        <ele>95</ele>
        <time>2018-03-18T09:05:00.000Z</time>
      </trkpt>
      <trkpt lat="47.66419" lon="-2.15285">
        <ele>95</ele>
        <time>2018-03-18T09:05:02.000Z</time>
      </trkpt>
      <trkpt lat="47.66415" lon="-2.15282">
        <ele>96</ele>
        <time>2018-03-18T09:05:04.000Z</time>
      </trkpt>
      <trkpt lat="47.66412" lon="-2.15279">
        <ele>97</ele>
        <time>2018-03-18T09:05:06.000Z</time>
      </trkpt>
      <trkpt lat="47.66409" lon="-2.15276">
        <ele>98</ele>
        <time>2018-03-18T09:05:08.000Z</time>
      </trkpt>
      <trkpt lat="47.66406" lon="-2.15272">
        <ele>98</ele>
        <time>2018-03-18T09:05:10.000Z</time>
      </trkpt>
      <trkpt lat="47.66404" lon="-2.15268">
        <ele>98</ele>
        <time>2018-03-18T09:05:12.000Z</time>
      </trkpt>
      <trkpt lat="47.66401" lon="-2.15265">
        <ele>99</ele>
        <time>2018-03-18T09:05:14.000Z</time>
      </trkpt>
      <trkpt lat="47.66399" lon="-2.1526">
        <ele>100</ele>
        <time>2018-03-18T09:05:16.000Z</time>
      </trkpt>
      <trkpt lat="47.66396" lon="-2.15256">
        <ele>100</ele>
        <time>2018-03-18T09:05:18.000Z</time>
      </trkpt>
      <trkpt lat="47.66393" lon="-2.15252">
        <ele>101</ele>
        <time>2018-03-18T09:05:20.000Z</time>
      </trkpt>
      <trkpt lat="47.66364" lon="-2.15209">
        <ele>102</ele>
        <time>2018-03-18T09:05:36.000Z</time>
      </trkpt>
      <trkpt lat="47.66339" lon="-2.15174">
        <ele>105</ele>
        <time>2018-03-18T09:05:55.000Z</time>
      </trkpt>
      <trkpt lat="47.66318" lon="-2.15133">
        <ele>110</ele>
        <time>2018-03-18T09:06:17.000Z</time>
      </trkpt>
      <trkpt lat="47.66301" lon="-2.15101">
        <ele>112</ele>
        <time>2018-03-18T09:06:37.000Z</time>
      </trkpt>
      <trkpt lat="47.66283" lon="-2.1513">
        <ele>113</ele>
        <time>2018-03-18T09:06:56.000Z</time>
      </trkpt>
      <trkpt lat="47.66247" lon="-2.15138">
        <ele>113</ele>
        <time>2018-03-18T09:07:16.000Z</time>
      </trkpt>
      <trkpt lat="47.6622" lon="-2.15175">
        <ele>113</ele>
        <time>2018-03-18T09:07:31.000Z</time>
      </trkpt>
      <trkpt lat="47.66184" lon="-2.15178">
        <ele>114</ele>
        <time>2018-03-18T09:07:45.000Z</time>
      </trkpt>
      <trkpt lat="47.66168" lon="-2.15186">
        <ele>114</ele>
        <time>2018-03-18T09:07:52.000Z</time>
      </trkpt>
      <trkpt lat="47.66173" lon="-2.15228">
        <ele>114</ele>
        <time>2018-03-18T09:08:03.000Z</time>
      </trkpt>
      <trkpt lat="47.6618" lon="-2.15284">
        <ele>116</ele>
        <time>2018-03-18T09:08:14.000Z</time>
      </trkpt>
      <trkpt lat="47.66185" lon="-2.15339">
        <ele>118</ele>
        <time>2018-03-18T09:08:25.000Z</time>
      </trkpt>
      <trkpt lat="47.66188" lon="-2.15391">
        <ele>117</ele>
        <time>2018-03-18T09:08:36.000Z</time>
      </trkpt>
      <trkpt lat="47.66189" lon="-2.15443">
        <ele>117</ele>
        <time>2018-03-18T09:08:49.000Z</time>
      </trkpt>
      <trkpt lat="47.6619" lon="-2.15447">
        <ele>117</ele>
        <time>2018-03-18T09:08:50.000Z</time>
      </trkpt>
      <trkpt lat="47.66191" lon="-2.1545">
        <ele>117</ele>
        <time>2018-03-18T09:08:51.000Z</time>
      </trkpt>
      <trkpt lat="47.66195" lon="-2.15455">
        <ele>117</ele>
        <time>2018-03-18T09:08:53.000Z</time>
      </trkpt>
      <trkpt lat="47.66197" lon="-2.15461">
        <ele>117</ele>
        <time>2018-03-18T09:08:55.000Z</time>
      </trkpt>
      <trkpt lat="47.66196" lon="-2.15469">
        <ele>117</ele>
        <time>2018-03-18T09:08:57.000Z</time>
      </trkpt>
      <trkpt lat="47.66194" lon="-2.15472">
        <ele>117</ele>
        <time>2018-03-18T09:08:58.000Z</time>
      </trkpt>
      <trkpt lat="47.66189" lon="-2.15475">
        <ele>117</ele>
        <time>2018-03-18T09:09:00.000Z</time>
      </trkpt>
      <trkpt lat="47.66186" lon="-2.15475">
        <ele>117</ele>
        <time>2018-03-18T09:09:01.000Z</time>
      </trkpt>
      <trkpt lat="47.66184" lon="-2.15477">
        <ele>116</ele>
        <time>2018-03-18T09:09:02.000Z</time>
      </trkpt>
      <trkpt lat="47.66183" lon="-2.15483">
        <ele>116</ele>
        <time>2018-03-18T09:09:04.000Z</time>
      </trkpt>
      <trkpt lat="47.66186" lon="-2.15489">
        <ele>116</ele>
        <time>2018-03-18T09:09:06.000Z</time>
      </trkpt>
      <trkpt lat="47.66224" lon="-2.15508">
        <ele>117</ele>
        <time>2018-03-18T09:09:20.000Z</time>
      </trkpt>
      <trkpt lat="47.66241" lon="-2.15493">
        <ele>116</ele>
        <time>2018-03-18T09:09:26.000Z</time>
      </trkpt>
      <trkpt lat="47.66261" lon="-2.15507">
        <ele>114</ele>
        <time>2018-03-18T09:09:33.000Z</time>
      </trkpt>
      <trkpt lat="47.66272" lon="-2.15521">
        <ele>114</ele>
        <time>2018-03-18T09:09:37.000Z</time>
      </trkpt>
      <trkpt lat="47.66296" lon="-2.15525">
        <ele>114</ele>
        <time>2018-03-18T09:09:44.000Z</time>
      </trkpt>
      <trkpt lat="47.66332" lon="-2.15544">
        <ele>115</ele>
        <time>2018-03-18T09:09:54.000Z</time>
      </trkpt>
      <trkpt lat="47.66368" lon="-2.15567">
        <ele>115</ele>
        <time>2018-03-18T09:10:05.000Z</time>
      </trkpt>
      <trkpt lat="47.66398" lon="-2.15593">
        <ele>115</ele>
        <time>2018-03-18T09:10:18.000Z</time>
      </trkpt>
      <trkpt lat="47.66431" lon="-2.15623">
        <ele>115</ele>
        <time>2018-03-18T09:10:30.000Z</time>
      </trkpt>
      <trkpt lat="47.66447" lon="-2.15669">
        <ele>114</ele>
        <time>2018-03-18T09:10:40.000Z</time>
      </trkpt>
      <trkpt lat="47.66431" lon="-2.15714">
        <ele>117</ele>
        <time>2018-03-18T09:10:54.000Z</time>
      </trkpt>
      <trkpt lat="47.66418" lon="-2.15765">
        <ele>118</ele>
        <time>2018-03-18T09:11:04.000Z</time>
      </trkpt>
      <trkpt lat="47.66406" lon="-2.15817">
        <ele>116</ele>
        <time>2018-03-18T09:11:11.000Z</time>
      </trkpt>
      <trkpt lat="47.66398" lon="-2.15849">
        <ele>112</ele>
        <time>2018-03-18T09:11:15.000Z</time>
      </trkpt>
      <trkpt lat="47.66379" lon="-2.15856">
        <ele>111</ele>
        <time>2018-03-18T09:11:19.000Z</time>
      </trkpt>
      <trkpt lat="47.66343" lon="-2.15885">
        <ele>107</ele>
        <time>2018-03-18T09:11:28.000Z</time>
      </trkpt>
      <trkpt lat="47.66307" lon="-2.15889">
        <ele>103</ele>
        <time>2018-03-18T09:11:33.000Z</time>
      </trkpt>
      <trkpt lat="47.66272" lon="-2.15886">
        <ele>102</ele>
        <time>2018-03-18T09:11:38.000Z</time>
      </trkpt>
      <trkpt lat="47.66265" lon="-2.15887">
        <ele>102</ele>
        <time>2018-03-18T09:11:39.000Z</time>
      </trkpt>
      <trkpt lat="47.66261" lon="-2.15886">
        <ele>102</ele>
        <time>2018-03-18T09:11:40.000Z</time>
      </trkpt>
      <trkpt lat="47.66256" lon="-2.15882">
        <ele>101</ele>
        <time>2018-03-18T09:11:42.000Z</time>
      </trkpt>
      <trkpt lat="47.66254" lon="-2.15873">
        <ele>102</ele>
        <time>2018-03-18T09:11:45.000Z</time>
      </trkpt>
      <trkpt lat="47.66253" lon="-2.1587">
        <ele>102</ele>
        <time>2018-03-18T09:11:46.000Z</time>
      </trkpt>
      <trkpt lat="47.66249" lon="-2.15864">
        <ele>101</ele>
        <time>2018-03-18T09:11:48.000Z</time>
      </trkpt>
      <trkpt lat="47.66245" lon="-2.15861">
        <ele>101</ele>
        <time>2018-03-18T09:11:50.000Z</time>
      </trkpt>
      <trkpt lat="47.66242" lon="-2.15863">
        <ele>101</ele>
        <time>2018-03-18T09:11:51.000Z</time>
      </trkpt>
      <trkpt lat="47.66203" lon="-2.15858">
        <ele>100</ele>
        <time>2018-03-18T09:12:05.000Z</time>
      </trkpt>
      <trkpt lat="47.66167" lon="-2.15858">
        <ele>100</ele>
        <time>2018-03-18T09:12:19.000Z</time>
      </trkpt>
      <trkpt lat="47.66144" lon="-2.15845">
        <ele>100</ele>
        <time>2018-03-18T09:12:32.000Z</time>
      </trkpt>
      <trkpt lat="47.6613" lon="-2.15859">
        <ele>98</ele>
        <time>2018-03-18T09:12:38.000Z</time>
      </trkpt>
      <trkpt lat="47.66114" lon="-2.15852">
        <ele>96</ele>
        <time>2018-03-18T09:12:43.000Z</time>
      </trkpt>
      <trkpt lat="47.66108" lon="-2.15818">
        <ele>96</ele>
        <time>2018-03-18T09:12:54.000Z</time>
      </trkpt>
      <trkpt lat="47.66088" lon="-2.15776">
        <ele>99</ele>
        <time>2018-03-18T09:13:13.000Z</time>
      </trkpt>
      <trkpt lat="47.66105" lon="-2.15733">
        <ele>102</ele>
        <time>2018-03-18T09:13:30.000Z</time>
      </trkpt>
      <trkpt lat="47.66117" lon="-2.15683">
        <ele>107</ele>
        <time>2018-03-18T09:13:52.000Z</time>
      </trkpt>
      <trkpt lat="47.66116" lon="-2.15656">
        <ele>107</ele>
        <time>2018-03-18T09:14:04.000Z</time>
      </trkpt>
      <trkpt lat="47.6609" lon="-2.1565">
        <ele>108</ele>
        <time>2018-03-18T09:14:21.000Z</time>
      </trkpt>
      <trkpt lat="47.6607" lon="-2.15605">
        <ele>111</ele>
        <time>2018-03-18T09:14:45.000Z</time>
      </trkpt>
      <trkpt lat="47.66049" lon="-2.1562">
        <ele>113</ele>
        <time>2018-03-18T09:15:04.000Z</time>
      </trkpt>
      <trkpt lat="47.66056" lon="-2.15652">
        <ele>114</ele>
        <time>2018-03-18T09:15:12.000Z</time>
      </trkpt>
      <trkpt lat="47.66056" lon="-2.15652">
        <ele>114</ele>
        <time>2018-03-18T09:15:12.000Z</time>
      </trkpt>
      <trkpt lat="47.66059" lon="-2.15658">
        <ele>114</ele>
        <time>2018-03-18T09:15:13.000Z</time>
      </trkpt>
      <trkpt lat="47.6606" lon="-2.15662">
        <ele>114</ele>
        <time>2018-03-18T09:15:14.000Z</time>
      </trkpt>
      <trkpt lat="47.66063" lon="-2.1566">
        <ele>113</ele>
        <time>2018-03-18T09:15:19.000Z</time>
      </trkpt>
      <trkpt lat="47.66066" lon="-2.15656">
        <ele>113</ele>
        <time>2018-03-18T09:15:22.000Z</time>
      </trkpt>
      <trkpt lat="47.66069" lon="-2.15652">
        <ele>112</ele>
        <time>2018-03-18T09:15:24.000Z</time>
      </trkpt>
      <trkpt lat="47.66077" lon="-2.15651">
        <ele>112</ele>
        <time>2018-03-18T09:15:26.000Z</time>
      </trkpt>
      <trkpt lat="47.6608" lon="-2.15654">
        <ele>112</ele>
        <time>2018-03-18T09:15:27.000Z</time>
      </trkpt>
      <trkpt lat="47.66083" lon="-2.15658">
        <ele>111</ele>
        <time>2018-03-18T09:15:28.000Z</time>
      </trkpt>
      <trkpt lat="47.66083" lon="-2.15663">
        <ele>111</ele>
        <time>2018-03-18T09:15:29.000Z</time>
      </trkpt>
      <trkpt lat="47.66083" lon="-2.15668">
        <ele>111</ele>
        <time>2018-03-18T09:15:30.000Z</time>
      </trkpt>
      <trkpt lat="47.6608" lon="-2.15673">
        <ele>111</ele>
        <time>2018-03-18T09:15:32.000Z</time>
      </trkpt>
      <trkpt lat="47.66078" lon="-2.15679">
        <ele>111</ele>
        <time>2018-03-18T09:15:34.000Z</time>
      </trkpt>
      <trkpt lat="47.66075" lon="-2.15685">
        <ele>111</ele>
        <time>2018-03-18T09:15:36.000Z</time>
      </trkpt>
      <trkpt lat="47.66072" lon="-2.15688">
        <ele>111</ele>
        <time>2018-03-18T09:15:37.000Z</time>
      </trkpt>
      <trkpt lat="47.6607" lon="-2.1569">
        <ele>111</ele>
        <time>2018-03-18T09:15:38.000Z</time>
      </trkpt>
      <trkpt lat="47.66068" lon="-2.15693">
        <ele>111</ele>
        <time>2018-03-18T09:15:39.000Z</time>
      </trkpt>
      <trkpt lat="47.66066" lon="-2.15695">
        <ele>111</ele>
        <time>2018-03-18T09:15:40.000Z</time>
      </trkpt>
      <trkpt lat="47.6606" lon="-2.15697">
        <ele>111</ele>
        <time>2018-03-18T09:15:42.000Z</time>
      </trkpt>
      <trkpt lat="47.66056" lon="-2.15697">
        <ele>111</ele>
        <time>2018-03-18T09:15:44.000Z</time>
      </trkpt>
      <trkpt lat="47.66053" lon="-2.15696">
        <ele>111</ele>
        <time>2018-03-18T09:15:46.000Z</time>
      </trkpt>
      <trkpt lat="47.6605" lon="-2.15697">
        <ele>111</ele>
        <time>2018-03-18T09:15:48.000Z</time>
      </trkpt>
      <trkpt lat="47.66046" lon="-2.15699">
        <ele>111</ele>
        <time>2018-03-18T09:15:50.000Z</time>
      </trkpt>
      <trkpt lat="47.66034" lon="-2.15718">
        <ele>109</ele>
        <time>2018-03-18T09:15:55.000Z</time>
      </trkpt>
      <trkpt lat="47.6605" lon="-2.15755">
        <ele>107</ele>
        <time>2018-03-18T09:16:03.000Z</time>
      </trkpt>
      <trkpt lat="47.66043" lon="-2.15774">
        <ele>105</ele>
        <time>2018-03-18T09:16:06.000Z</time>
      </trkpt>
      <trkpt lat="47.66018" lon="-2.15782">
        <ele>102</ele>
        <time>2018-03-18T09:16:10.000Z</time>
      </trkpt>
      <trkpt lat="47.65979" lon="-2.15784">
        <ele>99</ele>
        <time>2018-03-18T09:16:19.000Z</time>
      </trkpt>
      <trkpt lat="47.65941" lon="-2.15784">
        <ele>98</ele>
        <time>2018-03-18T09:16:28.000Z</time>
      </trkpt>
      <trkpt lat="47.65904" lon="-2.15778">
        <ele>97</ele>
        <time>2018-03-18T09:16:38.000Z</time>
      </trkpt>
      <trkpt lat="47.65873" lon="-2.15756">
        <ele>98</ele>
        <time>2018-03-18T09:16:53.000Z</time>
      </trkpt>
      <trkpt lat="47.65839" lon="-2.15747">
        <ele>97</ele>
        <time>2018-03-18T09:17:12.000Z</time>
      </trkpt>
      <trkpt lat="47.65805" lon="-2.15744">
        <ele>98</ele>
        <time>2018-03-18T09:17:26.000Z</time>
      </trkpt>
      <trkpt lat="47.65771" lon="-2.15752">
        <ele>98</ele>
        <time>2018-03-18T09:17:36.000Z</time>
      </trkpt>
      <trkpt lat="47.65736" lon="-2.15758">
        <ele>97</ele>
        <time>2018-03-18T09:17:47.000Z</time>
      </trkpt>
      <trkpt lat="47.6572" lon="-2.15734">
        <ele>97</ele>
        <time>2018-03-18T09:17:57.000Z</time>
      </trkpt>
      <trkpt lat="47.65732" lon="-2.15706">
        <ele>101</ele>
        <time>2018-03-18T09:18:08.000Z</time>
      </trkpt>
      <trkpt lat="47.65743" lon="-2.15697">
        <ele>105</ele>
        <time>2018-03-18T09:18:17.000Z</time>
      </trkpt>
      <trkpt lat="47.65767" lon="-2.15711">
        <ele>105</ele>
        <time>2018-03-18T09:18:24.000Z</time>
      </trkpt>
      <trkpt lat="47.65767" lon="-2.15711">
        <ele>105</ele>
        <time>2018-03-18T09:18:25.000Z</time>
      </trkpt>
      <trkpt lat="47.65817" lon="-2.1572">
        <ele>102</ele>
        <time>2018-03-18T09:18:57.000Z</time>
      </trkpt>
      <trkpt lat="47.65851" lon="-2.15724">
        <ele>105</ele>
        <time>2018-03-18T09:19:17.000Z</time>
      </trkpt>
      <trkpt lat="47.65884" lon="-2.15715">
        <ele>109</ele>
        <time>2018-03-18T09:19:40.000Z</time>
      </trkpt>
      <trkpt lat="47.65856" lon="-2.15684">
        <ele>111</ele>
        <time>2018-03-18T09:20:13.000Z</time>
      </trkpt>
      <trkpt lat="47.65842" lon="-2.15665">
        <ele>114</ele>
        <time>2018-03-18T09:20:27.000Z</time>
      </trkpt>
      <trkpt lat="47.65857" lon="-2.15632">
        <ele>118</ele>
        <time>2018-03-18T09:20:50.000Z</time>
      </trkpt>
      <trkpt lat="47.6587" lon="-2.15614">
        <ele>119</ele>
        <time>2018-03-18T09:21:02.000Z</time>
      </trkpt>
      <trkpt lat="47.65867" lon="-2.15581">
        <ele>120</ele>
        <time>2018-03-18T09:21:18.000Z</time>
      </trkpt>
      <trkpt lat="47.65867" lon="-2.15581">
        <ele>120</ele>
        <time>2018-03-18T09:21:18.000Z</time>
      </trkpt>
      <trkpt lat="47.65866" lon="-2.15576">
        <ele>120</ele>
        <time>2018-03-18T09:21:20.000Z</time>
      </trkpt>
      <trkpt lat="47.65866" lon="-2.15571">
        <ele>120</ele>
        <time>2018-03-18T09:21:22.000Z</time>
      </trkpt>
      <trkpt lat="47.65866" lon="-2.15567">
        <ele>120</ele>
        <time>2018-03-18T09:21:24.000Z</time>
      </trkpt>
      <trkpt lat="47.65867" lon="-2.15563">
        <ele>121</ele>
        <time>2018-03-18T09:21:26.000Z</time>
      </trkpt>
      <trkpt lat="47.65868" lon="-2.15557">
        <ele>122</ele>
        <time>2018-03-18T09:21:28.000Z</time>
      </trkpt>
      <trkpt lat="47.65865" lon="-2.15553">
        <ele>122</ele>
        <time>2018-03-18T09:21:31.000Z</time>
      </trkpt>
      <trkpt lat="47.65861" lon="-2.15551">
        <ele>122</ele>
        <time>2018-03-18T09:21:33.000Z</time>
      </trkpt>
      <trkpt lat="47.65856" lon="-2.15552">
        <ele>121</ele>
        <time>2018-03-18T09:21:35.000Z</time>
      </trkpt>
      <trkpt lat="47.65851" lon="-2.15554">
        <ele>121</ele>
        <time>2018-03-18T09:21:37.000Z</time>
      </trkpt>
      <trkpt lat="47.65846" lon="-2.15557">
        <ele>121</ele>
        <time>2018-03-18T09:21:39.000Z</time>
      </trkpt>
      <trkpt lat="47.65842" lon="-2.1556">
        <ele>119</ele>
        <time>2018-03-18T09:21:41.000Z</time>
      </trkpt>
      <trkpt lat="47.65839" lon="-2.15566">
        <ele>119</ele>
        <time>2018-03-18T09:21:43.000Z</time>
      </trkpt>
      <trkpt lat="47.65837" lon="-2.15573">
        <ele>119</ele>
        <time>2018-03-18T09:21:45.000Z</time>
      </trkpt>
      <trkpt lat="47.65835" lon="-2.15576">
        <ele>119</ele>
        <time>2018-03-18T09:21:46.000Z</time>
      </trkpt>
      <trkpt lat="47.65833" lon="-2.15579">
        <ele>118</ele>
        <time>2018-03-18T09:21:47.000Z</time>
      </trkpt>
      <trkpt lat="47.65831" lon="-2.15584">
        <ele>117</ele>
        <time>2018-03-18T09:21:48.000Z</time>
      </trkpt>
      <trkpt lat="47.65823" lon="-2.15643">
        <ele>113</ele>
        <time>2018-03-18T09:21:58.000Z</time>
      </trkpt>
      <trkpt lat="47.65811" lon="-2.15658">
        <ele>110</ele>
        <time>2018-03-18T09:22:01.000Z</time>
      </trkpt>
      <trkpt lat="47.65786" lon="-2.15661">
        <ele>110</ele>
        <time>2018-03-18T09:22:05.000Z</time>
      </trkpt>
      <trkpt lat="47.65748" lon="-2.15663">
        <ele>108</ele>
        <time>2018-03-18T09:22:12.000Z</time>
      </trkpt>
      <trkpt lat="47.65741" lon="-2.15656">
        <ele>107</ele>
        <time>2018-03-18T09:22:16.000Z</time>
      </trkpt>
      <trkpt lat="47.65746" lon="-2.15613">
        <ele>111</ele>
        <time>2018-03-18T09:22:37.000Z</time>
      </trkpt>
      <trkpt lat="47.65752" lon="-2.15565">
        <ele>118</ele>
        <time>2018-03-18T09:23:03.000Z</time>
      </trkpt>
      <trkpt lat="47.65766" lon="-2.15518">
        <ele>122</ele>
        <time>2018-03-18T09:23:28.000Z</time>
      </trkpt>
      <trkpt lat="47.65775" lon="-2.15469">
        <ele>127</ele>
        <time>2018-03-18T09:23:50.000Z</time>
      </trkpt>
      <trkpt lat="47.65748" lon="-2.1544">
        <ele>123</ele>
        <time>2018-03-18T09:24:05.000Z</time>
      </trkpt>
      <trkpt lat="47.65717" lon="-2.1546">
        <ele>119</ele>
        <time>2018-03-18T09:24:20.000Z</time>
      </trkpt>
      <trkpt lat="47.65712" lon="-2.15453">
        <ele>117</ele>
        <time>2018-03-18T09:24:22.000Z</time>
      </trkpt>
      <trkpt lat="47.65704" lon="-2.15409">
        <ele>116</ele>
        <time>2018-03-18T09:24:28.000Z</time>
      </trkpt>
      <trkpt lat="47.65699" lon="-2.15389">
        <ele>116</ele>
        <time>2018-03-18T09:24:35.000Z</time>
      </trkpt>
      <trkpt lat="47.65698" lon="-2.15356">
        <ele>117</ele>
        <time>2018-03-18T09:24:47.000Z</time>
      </trkpt>
      <trkpt lat="47.65697" lon="-2.15304">
        <ele>120</ele>
        <time>2018-03-18T09:25:10.000Z</time>
      </trkpt>
      <trkpt lat="47.65703" lon="-2.15281">
        <ele>121</ele>
        <time>2018-03-18T09:25:20.000Z</time>
      </trkpt>
      <trkpt lat="47.65728" lon="-2.15278">
        <ele>128</ele>
        <time>2018-03-18T09:25:33.000Z</time>
      </trkpt>
      <trkpt lat="47.65762" lon="-2.15264">
        <ele>133</ele>
        <time>2018-03-18T09:25:49.000Z</time>
      </trkpt>
      <trkpt lat="47.658" lon="-2.15263">
        <ele>131</ele>
        <time>2018-03-18T09:26:02.000Z</time>
      </trkpt>
      <trkpt lat="47.65837" lon="-2.15264">
        <ele>127</ele>
        <time>2018-03-18T09:26:16.000Z</time>
      </trkpt>
      <trkpt lat="47.65848" lon="-2.15275">
        <ele>125</ele>
        <time>2018-03-18T09:26:21.000Z</time>
      </trkpt>
      <trkpt lat="47.6585" lon="-2.15315">
        <ele>122</ele>
        <time>2018-03-18T09:26:29.000Z</time>
      </trkpt>
      <trkpt lat="47.65842" lon="-2.15368">
        <ele>121</ele>
        <time>2018-03-18T09:26:39.000Z</time>
      </trkpt>
      <trkpt lat="47.65845" lon="-2.1542">
        <ele>123</ele>
        <time>2018-03-18T09:27:05.000Z</time>
      </trkpt>
      <trkpt lat="47.65879" lon="-2.15438">
        <ele>126</ele>
        <time>2018-03-18T09:27:23.000Z</time>
      </trkpt>
      <trkpt lat="47.65899" lon="-2.15451">
        <ele>127</ele>
        <time>2018-03-18T09:27:32.000Z</time>
      </trkpt>
      <trkpt lat="47.65916" lon="-2.15439">
        <ele>127</ele>
        <time>2018-03-18T09:27:41.000Z</time>
      </trkpt>
      <trkpt lat="47.6595" lon="-2.15423">
        <ele>128</ele>
        <time>2018-03-18T09:28:01.000Z</time>
      </trkpt>
      <trkpt lat="47.65968" lon="-2.15411">
        <ele>128</ele>
        <time>2018-03-18T09:28:12.000Z</time>
      </trkpt>
      <trkpt lat="47.65961" lon="-2.15374">
        <ele>126</ele>
        <time>2018-03-18T09:28:33.000Z</time>
      </trkpt>
      <trkpt lat="47.65961" lon="-2.15374">
        <ele>126</ele>
        <time>2018-03-18T09:28:33.000Z</time>
      </trkpt>
      <trkpt lat="47.65962" lon="-2.15369">
        <ele>126</ele>
        <time>2018-03-18T09:28:35.000Z</time>
      </trkpt>
      <trkpt lat="47.65963" lon="-2.15363">
        <ele>126</ele>
        <time>2018-03-18T09:28:37.000Z</time>
      </trkpt>
      <trkpt lat="47.65965" lon="-2.15356">
        <ele>126</ele>
        <time>2018-03-18T09:28:39.000Z</time>
      </trkpt>
      <trkpt lat="47.65965" lon="-2.1535">
        <ele>126</ele>
        <time>2018-03-18T09:28:41.000Z</time>
      </trkpt>
      <trkpt lat="47.65966" lon="-2.15346">
        <ele>127</ele>
        <time>2018-03-18T09:28:43.000Z</time>
      </trkpt>
      <trkpt lat="47.65968" lon="-2.15342">
        <ele>127</ele>
        <time>2018-03-18T09:28:45.000Z</time>
      </trkpt>
      <trkpt lat="47.65971" lon="-2.15341">
        <ele>128</ele>
        <time>2018-03-18T09:28:48.000Z</time>
      </trkpt>
      <trkpt lat="47.65974" lon="-2.1534">
        <ele>128</ele>
        <time>2018-03-18T09:28:50.000Z</time>
      </trkpt>
      <trkpt lat="47.65977" lon="-2.15338">
        <ele>128</ele>
        <time>2018-03-18T09:28:52.000Z</time>
      </trkpt>
      <trkpt lat="47.65977" lon="-2.15334">
        <ele>128</ele>
        <time>2018-03-18T09:28:55.000Z</time>
      </trkpt>
      <trkpt lat="47.65975" lon="-2.15328">
        <ele>128</ele>
        <time>2018-03-18T09:28:57.000Z</time>
      </trkpt>
      <trkpt lat="47.65974" lon="-2.15295">
        <ele>128</ele>
        <time>2018-03-18T09:29:08.000Z</time>
      </trkpt>
      <trkpt lat="47.65959" lon="-2.15272">
        <ele>126</ele>
        <time>2018-03-18T09:29:16.000Z</time>
      </trkpt>
      <trkpt lat="47.65933" lon="-2.15232">
        <ele>125</ele>
        <time>2018-03-18T09:29:29.000Z</time>
      </trkpt>
      <trkpt lat="47.65906" lon="-2.15195">
        <ele>126</ele>
        <time>2018-03-18T09:29:41.000Z</time>
      </trkpt>
      <trkpt lat="47.65873" lon="-2.15168">
        <ele>126</ele>
        <time>2018-03-18T09:29:52.000Z</time>
      </trkpt>
      <trkpt lat="47.65836" lon="-2.15145">
        <ele>126</ele>
        <time>2018-03-18T09:30:02.000Z</time>
      </trkpt>
      <trkpt lat="47.65804" lon="-2.15122">
        <ele>126</ele>
        <time>2018-03-18T09:30:11.000Z</time>
      </trkpt>
      <trkpt lat="47.65771" lon="-2.151">
        <ele>126</ele>
        <time>2018-03-18T09:30:21.000Z</time>
      </trkpt>
      <trkpt lat="47.65739" lon="-2.15068">
        <ele>126</ele>
        <time>2018-03-18T09:30:31.000Z</time>
      </trkpt>
      <trkpt lat="47.65709" lon="-2.1503">
        <ele>124</ele>
        <time>2018-03-18T09:30:41.000Z</time>
      </trkpt>
      <trkpt lat="47.65681" lon="-2.14995">
        <ele>124</ele>
        <time>2018-03-18T09:30:50.000Z</time>
      </trkpt>
      <trkpt lat="47.65654" lon="-2.14961">
        <ele>124</ele>
        <time>2018-03-18T09:30:59.000Z</time>
      </trkpt>
      <trkpt lat="47.65635" lon="-2.14936">
        <ele>123</ele>
        <time>2018-03-18T09:31:05.000Z</time>
      </trkpt>
      <trkpt lat="47.65625" lon="-2.14925">
        <ele>123</ele>
        <time>2018-03-18T09:31:08.000Z</time>
      </trkpt>
      <trkpt lat="47.65613" lon="-2.14913">
        <ele>124</ele>
        <time>2018-03-18T09:31:11.000Z</time>
      </trkpt>
      <trkpt lat="47.6559" lon="-2.14897">
        <ele>123</ele>
        <time>2018-03-18T09:31:16.000Z</time>
      </trkpt>
      <trkpt lat="47.65554" lon="-2.14871">
        <ele>122</ele>
        <time>2018-03-18T09:31:23.000Z</time>
      </trkpt>
      <trkpt lat="47.65516" lon="-2.14846">
        <ele>121</ele>
        <time>2018-03-18T09:31:30.000Z</time>
      </trkpt>
      <trkpt lat="47.6548" lon="-2.1482">
        <ele>121</ele>
        <time>2018-03-18T09:31:37.000Z</time>
      </trkpt>
      <trkpt lat="47.65465" lon="-2.14807">
        <ele>120</ele>
        <time>2018-03-18T09:31:40.000Z</time>
      </trkpt>
      <trkpt lat="47.65446" lon="-2.14786">
        <ele>119</ele>
        <time>2018-03-18T09:31:44.000Z</time>
      </trkpt>
      <trkpt lat="47.65418" lon="-2.1475">
        <ele>119</ele>
        <time>2018-03-18T09:31:50.000Z</time>
      </trkpt>
      <trkpt lat="47.6539" lon="-2.14714">
        <ele>118</ele>
        <time>2018-03-18T09:31:56.000Z</time>
      </trkpt>
      <trkpt lat="47.65362" lon="-2.1468">
        <ele>117</ele>
        <time>2018-03-18T09:32:02.000Z</time>
      </trkpt>
      <trkpt lat="47.65333" lon="-2.14646">
        <ele>117</ele>
        <time>2018-03-18T09:32:08.000Z</time>
      </trkpt>
      <trkpt lat="47.65303" lon="-2.14612">
        <ele>117</ele>
        <time>2018-03-18T09:32:14.000Z</time>
      </trkpt>
      <trkpt lat="47.65275" lon="-2.14578">
        <ele>116</ele>
        <time>2018-03-18T09:32:20.000Z</time>
      </trkpt>
      <trkpt lat="47.65247" lon="-2.14545">
        <ele>116</ele>
        <time>2018-03-18T09:32:26.000Z</time>
      </trkpt>
      <trkpt lat="47.65215" lon="-2.14511">
        <ele>116</ele>
        <time>2018-03-18T09:32:33.000Z</time>
      </trkpt>
      <trkpt lat="47.65182" lon="-2.14481">
        <ele>116</ele>
        <time>2018-03-18T09:32:40.000Z</time>
      </trkpt>
      <trkpt lat="47.65165" lon="-2.14461">
        <ele>116</ele>
        <time>2018-03-18T09:32:45.000Z</time>
      </trkpt>
      <trkpt lat="47.65182" lon="-2.14426">
        <ele>117</ele>
        <time>2018-03-18T09:32:57.000Z</time>
      </trkpt>
      <trkpt lat="47.65211" lon="-2.14394">
        <ele>119</ele>
        <time>2018-03-18T09:33:11.000Z</time>
      </trkpt>
      <trkpt lat="47.65231" lon="-2.14375">
        <ele>120</ele>
        <time>2018-03-18T09:33:27.000Z</time>
      </trkpt>
      <trkpt lat="47.6523" lon="-2.14353">
        <ele>122</ele>
        <time>2018-03-18T09:33:40.000Z</time>
      </trkpt>
      <trkpt lat="47.6526" lon="-2.14327">
        <ele>124</ele>
        <time>2018-03-18T09:33:53.000Z</time>
      </trkpt>
      <trkpt lat="47.65269" lon="-2.14279">
        <ele>126</ele>
        <time>2018-03-18T09:34:07.000Z</time>
      </trkpt>
      <trkpt lat="47.65278" lon="-2.14263">
        <ele>125</ele>
        <time>2018-03-18T09:34:11.000Z</time>
      </trkpt>
      <trkpt lat="47.65301" lon="-2.14258">
        <ele>125</ele>
        <time>2018-03-18T09:34:21.000Z</time>
      </trkpt>
      <trkpt lat="47.65336" lon="-2.1425">
        <ele>127</ele>
        <time>2018-03-18T09:34:46.000Z</time>
      </trkpt>
      <trkpt lat="47.65369" lon="-2.14257">
        <ele>131</ele>
        <time>2018-03-18T09:35:08.000Z</time>
      </trkpt>
      <trkpt lat="47.65394" lon="-2.14223">
        <ele>132</ele>
        <time>2018-03-18T09:35:24.000Z</time>
      </trkpt>
      <trkpt lat="47.65418" lon="-2.14181">
        <ele>132</ele>
        <time>2018-03-18T09:35:38.000Z</time>
      </trkpt>
      <trkpt lat="47.65442" lon="-2.1414">
        <ele>126</ele>
        <time>2018-03-18T09:35:56.000Z</time>
      </trkpt>
      <trkpt lat="47.65446" lon="-2.14116">
        <ele>125</ele>
        <time>2018-03-18T09:36:06.000Z</time>
      </trkpt>
      <trkpt lat="47.65479" lon="-2.1413">
        <ele>124</ele>
        <time>2018-03-18T09:36:17.000Z</time>
      </trkpt>
      <trkpt lat="47.65515" lon="-2.14138">
        <ele>123</ele>
        <time>2018-03-18T09:36:32.000Z</time>
      </trkpt>
      <trkpt lat="47.6555" lon="-2.14123">
        <ele>122</ele>
        <time>2018-03-18T09:36:42.000Z</time>
      </trkpt>
      <trkpt lat="47.6557" lon="-2.14111">
        <ele>123</ele>
        <time>2018-03-18T09:36:49.000Z</time>
      </trkpt>
      <trkpt lat="47.65571" lon="-2.1408">
        <ele>124</ele>
        <time>2018-03-18T09:36:59.000Z</time>
      </trkpt>
      <trkpt lat="47.65571" lon="-2.1408">
        <ele>124</ele>
        <time>2018-03-18T09:36:59.000Z</time>
      </trkpt>
      <trkpt lat="47.65572" lon="-2.14074">
        <ele>124</ele>
        <time>2018-03-18T09:37:00.000Z</time>
      </trkpt>
      <trkpt lat="47.65572" lon="-2.1407">
        <ele>123</ele>
        <time>2018-03-18T09:37:01.000Z</time>
      </trkpt>
      <trkpt lat="47.65572" lon="-2.14066">
        <ele>123</ele>
        <time>2018-03-18T09:37:02.000Z</time>
      </trkpt>
      <trkpt lat="47.65569" lon="-2.14061">
        <ele>124</ele>
        <time>2018-03-18T09:37:04.000Z</time>
      </trkpt>
      <trkpt lat="47.65566" lon="-2.14059">
        <ele>123</ele>
        <time>2018-03-18T09:37:05.000Z</time>
      </trkpt>
      <trkpt lat="47.65562" lon="-2.14049">
        <ele>123</ele>
        <time>2018-03-18T09:37:08.000Z</time>
      </trkpt>
      <trkpt lat="47.65563" lon="-2.14045">
        <ele>123</ele>
        <time>2018-03-18T09:37:09.000Z</time>
      </trkpt>
      <trkpt lat="47.65565" lon="-2.14041">
        <ele>123</ele>
        <time>2018-03-18T09:37:10.000Z</time>
      </trkpt>
      <trkpt lat="47.65568" lon="-2.14036">
        <ele>123</ele>
        <time>2018-03-18T09:37:11.000Z</time>
      </trkpt>
      <trkpt lat="47.65568" lon="-2.14032">
        <ele>123</ele>
        <time>2018-03-18T09:37:12.000Z</time>
      </trkpt>
      <trkpt lat="47.65559" lon="-2.13976">
        <ele>124</ele>
        <time>2018-03-18T09:37:24.000Z</time>
      </trkpt>
      <trkpt lat="47.65545" lon="-2.13925">
        <ele>122</ele>
        <time>2018-03-18T09:37:39.000Z</time>
      </trkpt>
      <trkpt lat="47.65549" lon="-2.13901">
        <ele>121</ele>
        <time>2018-03-18T09:37:47.000Z</time>
      </trkpt>
      <trkpt lat="47.65569" lon="-2.13882">
        <ele>119</ele>
        <time>2018-03-18T09:37:55.000Z</time>
      </trkpt>
      <trkpt lat="47.65588" lon="-2.13847">
        <ele>112</ele>
        <time>2018-03-18T09:38:04.000Z</time>
      </trkpt>
      <trkpt lat="47.65573" lon="-2.13828">
        <ele>110</ele>
        <time>2018-03-18T09:38:14.000Z</time>
      </trkpt>
      <trkpt lat="47.65573" lon="-2.13828">
        <ele>110</ele>
        <time>2018-03-18T09:38:14.000Z</time>
      </trkpt>
      <trkpt lat="47.6557" lon="-2.1382">
        <ele>109</ele>
        <time>2018-03-18T09:38:15.000Z</time>
      </trkpt>
      <trkpt lat="47.65569" lon="-2.13816">
        <ele>109</ele>
        <time>2018-03-18T09:38:16.000Z</time>
      </trkpt>
      <trkpt lat="47.65565" lon="-2.13815">
        <ele>109</ele>
        <time>2018-03-18T09:38:18.000Z</time>
      </trkpt>
      <trkpt lat="47.65562" lon="-2.13817">
        <ele>108</ele>
        <time>2018-03-18T09:38:20.000Z</time>
      </trkpt>
      <trkpt lat="47.65558" lon="-2.1382">
        <ele>108</ele>
        <time>2018-03-18T09:38:22.000Z</time>
      </trkpt>
      <trkpt lat="47.65556" lon="-2.13818">
        <ele>107</ele>
        <time>2018-03-18T09:38:25.000Z</time>
      </trkpt>
      <trkpt lat="47.65555" lon="-2.13812">
        <ele>106</ele>
        <time>2018-03-18T09:38:27.000Z</time>
      </trkpt>
      <trkpt lat="47.65554" lon="-2.13807">
        <ele>106</ele>
        <time>2018-03-18T09:38:29.000Z</time>
      </trkpt>
      <trkpt lat="47.65554" lon="-2.13799">
        <ele>106</ele>
        <time>2018-03-18T09:38:31.000Z</time>
      </trkpt>
      <trkpt lat="47.65553" lon="-2.13795">
        <ele>106</ele>
        <time>2018-03-18T09:38:32.000Z</time>
      </trkpt>
      <trkpt lat="47.65553" lon="-2.1379">
        <ele>106</ele>
        <time>2018-03-18T09:38:33.000Z</time>
      </trkpt>
      <trkpt lat="47.65532" lon="-2.13753">
        <ele>100</ele>
        <time>2018-03-18T09:38:40.000Z</time>
      </trkpt>
      <trkpt lat="47.65522" lon="-2.13754">
        <ele>103</ele>
        <time>2018-03-18T09:38:51.000Z</time>
      </trkpt>
      <trkpt lat="47.65522" lon="-2.13754">
        <ele>103</ele>
        <time>2018-03-18T09:38:52.000Z</time>
      </trkpt>
      <trkpt lat="47.65509" lon="-2.13693">
        <ele>108</ele>
        <time>2018-03-18T09:39:51.000Z</time>
      </trkpt>
      <trkpt lat="47.65495" lon="-2.13646">
        <ele>109</ele>
        <time>2018-03-18T09:40:05.000Z</time>
      </trkpt>
      <trkpt lat="47.65477" lon="-2.136">
        <ele>106</ele>
        <time>2018-03-18T09:40:19.000Z</time>
      </trkpt>
      <trkpt lat="47.65474" lon="-2.13601">
        <ele>106</ele>
        <time>2018-03-18T09:40:22.000Z</time>
      </trkpt>
      <trkpt lat="47.65471" lon="-2.13602">
        <ele>106</ele>
        <time>2018-03-18T09:40:24.000Z</time>
      </trkpt>
      <trkpt lat="47.65467" lon="-2.13603">
        <ele>106</ele>
        <time>2018-03-18T09:40:27.000Z</time>
      </trkpt>
      <trkpt lat="47.65464" lon="-2.13602">
        <ele>106</ele>
        <time>2018-03-18T09:40:29.000Z</time>
      </trkpt>
      <trkpt lat="47.65461" lon="-2.13597">
        <ele>106</ele>
        <time>2018-03-18T09:40:32.000Z</time>
      </trkpt>
      <trkpt lat="47.65462" lon="-2.13589">
        <ele>106</ele>
        <time>2018-03-18T09:40:35.000Z</time>
      </trkpt>
      <trkpt lat="47.65464" lon="-2.13584">
        <ele>106</ele>
        <time>2018-03-18T09:40:36.000Z</time>
      </trkpt>
      <trkpt lat="47.65466" lon="-2.1358">
        <ele>106</ele>
        <time>2018-03-18T09:40:37.000Z</time>
      </trkpt>
      <trkpt lat="47.65472" lon="-2.13571">
        <ele>106</ele>
        <time>2018-03-18T09:40:38.000Z</time>
      </trkpt>
      <trkpt lat="47.65478" lon="-2.13562">
        <ele>105</ele>
        <time>2018-03-18T09:40:39.000Z</time>
      </trkpt>
      <trkpt lat="47.65483" lon="-2.13553">
        <ele>105</ele>
        <time>2018-03-18T09:40:40.000Z</time>
      </trkpt>
      <trkpt lat="47.65512" lon="-2.13502">
        <ele>102</ele>
        <time>2018-03-18T09:40:47.000Z</time>
      </trkpt>
      <trkpt lat="47.65546" lon="-2.1348">
        <ele>97</ele>
        <time>2018-03-18T09:40:56.000Z</time>
      </trkpt>
      <trkpt lat="47.65574" lon="-2.13444">
        <ele>96</ele>
        <time>2018-03-18T09:41:03.000Z</time>
      </trkpt>
      <trkpt lat="47.65602" lon="-2.1341">
        <ele>96</ele>
        <time>2018-03-18T09:41:13.000Z</time>
      </trkpt>
      <trkpt lat="47.65627" lon="-2.13368">
        <ele>94</ele>
        <time>2018-03-18T09:41:18.000Z</time>
      </trkpt>
      <trkpt lat="47.65646" lon="-2.13345">
        <ele>91</ele>
        <time>2018-03-18T09:41:22.000Z</time>
      </trkpt>
      <trkpt lat="47.65659" lon="-2.13337">
        <ele>89</ele>
        <time>2018-03-18T09:41:25.000Z</time>
      </trkpt>
      <trkpt lat="47.65659" lon="-2.13337">
        <ele>89</ele>
        <time>2018-03-18T09:41:25.000Z</time>
      </trkpt>
      <trkpt lat="47.65662" lon="-2.13334">
        <ele>89</ele>
        <time>2018-03-18T09:41:26.000Z</time>
      </trkpt>
      <trkpt lat="47.65665" lon="-2.13328">
        <ele>88</ele>
        <time>2018-03-18T09:41:28.000Z</time>
      </trkpt>
      <trkpt lat="47.65664" lon="-2.13323">
        <ele>88</ele>
        <time>2018-03-18T09:41:30.000Z</time>
      </trkpt>
      <trkpt lat="47.6566" lon="-2.13321">
        <ele>87</ele>
        <time>2018-03-18T09:41:32.000Z</time>
      </trkpt>
      <trkpt lat="47.65654" lon="-2.13318">
        <ele>86</ele>
        <time>2018-03-18T09:41:34.000Z</time>
      </trkpt>
      <trkpt lat="47.65652" lon="-2.13318">
        <ele>86</ele>
        <time>2018-03-18T09:41:35.000Z</time>
      </trkpt>
      <trkpt lat="47.65649" lon="-2.13318">
        <ele>86</ele>
        <time>2018-03-18T09:41:36.000Z</time>
      </trkpt>
      <trkpt lat="47.65644" lon="-2.13316">
        <ele>85</ele>
        <time>2018-03-18T09:41:38.000Z</time>
      </trkpt>
      <trkpt lat="47.65641" lon="-2.13313">
        <ele>85</ele>
        <time>2018-03-18T09:41:39.000Z</time>
      </trkpt>
      <trkpt lat="47.6564" lon="-2.13309">
        <ele>85</ele>
        <time>2018-03-18T09:41:40.000Z</time>
      </trkpt>
      <trkpt lat="47.6564" lon="-2.13302">
        <ele>84</ele>
        <time>2018-03-18T09:41:42.000Z</time>
      </trkpt>
      <trkpt lat="47.65641" lon="-2.13297">
        <ele>85</ele>
        <time>2018-03-18T09:41:43.000Z</time>
      </trkpt>
      <trkpt lat="47.65643" lon="-2.13293">
        <ele>85</ele>
        <time>2018-03-18T09:41:44.000Z</time>
      </trkpt>
      <trkpt lat="47.65644" lon="-2.13233">
        <ele>84</ele>
        <time>2018-03-18T09:41:56.000Z</time>
      </trkpt>
      <trkpt lat="47.65652" lon="-2.13181">
        <ele>83</ele>
        <time>2018-03-18T09:42:15.000Z</time>
      </trkpt>
      <trkpt lat="47.65644" lon="-2.1313">
        <ele>85</ele>
        <time>2018-03-18T09:42:32.000Z</time>
      </trkpt>
      <trkpt lat="47.65642" lon="-2.13078">
        <ele>87</ele>
        <time>2018-03-18T09:42:49.000Z</time>
      </trkpt>
      <trkpt lat="47.65654" lon="-2.13026">
        <ele>89</ele>
        <time>2018-03-18T09:43:06.000Z</time>
      </trkpt>
      <trkpt lat="47.65659" lon="-2.13005">
        <ele>89</ele>
        <time>2018-03-18T09:43:13.000Z</time>
      </trkpt>
      <trkpt lat="47.65678" lon="-2.12992">
        <ele>91</ele>
        <time>2018-03-18T09:43:22.000Z</time>
      </trkpt>
      <trkpt lat="47.65685" lon="-2.1296">
        <ele>87</ele>
        <time>2018-03-18T09:43:30.000Z</time>
      </trkpt>
      <trkpt lat="47.65648" lon="-2.12965">
        <ele>85</ele>
        <time>2018-03-18T09:43:50.000Z</time>
      </trkpt>
      <trkpt lat="47.65648" lon="-2.12965">
        <ele>85</ele>
        <time>2018-03-18T09:43:50.000Z</time>
      </trkpt>
      <trkpt lat="47.65648" lon="-2.12961">
        <ele>85</ele>
        <time>2018-03-18T09:43:52.000Z</time>
      </trkpt>
      <trkpt lat="47.65649" lon="-2.12956">
        <ele>86</ele>
        <time>2018-03-18T09:43:54.000Z</time>
      </trkpt>
      <trkpt lat="47.65653" lon="-2.12952">
        <ele>86</ele>
        <time>2018-03-18T09:43:56.000Z</time>
      </trkpt>
      <trkpt lat="47.65657" lon="-2.12949">
        <ele>87</ele>
        <time>2018-03-18T09:43:58.000Z</time>
      </trkpt>
      <trkpt lat="47.65663" lon="-2.12946">
        <ele>87</ele>
        <time>2018-03-18T09:44:00.000Z</time>
      </trkpt>
      <trkpt lat="47.65666" lon="-2.12944">
        <ele>87</ele>
        <time>2018-03-18T09:44:01.000Z</time>
      </trkpt>
      <trkpt lat="47.65672" lon="-2.12941">
        <ele>87</ele>
        <time>2018-03-18T09:44:03.000Z</time>
      </trkpt>
      <trkpt lat="47.65673" lon="-2.12937">
        <ele>87</ele>
        <time>2018-03-18T09:44:05.000Z</time>
      </trkpt>
      <trkpt lat="47.65672" lon="-2.12932">
        <ele>87</ele>
        <time>2018-03-18T09:44:07.000Z</time>
      </trkpt>
      <trkpt lat="47.6567" lon="-2.12927">
        <ele>87</ele>
        <time>2018-03-18T09:44:09.000Z</time>
      </trkpt>
      <trkpt lat="47.65666" lon="-2.12926">
        <ele>87</ele>
        <time>2018-03-18T09:44:12.000Z</time>
      </trkpt>
      <trkpt lat="47.65663" lon="-2.12926">
        <ele>87</ele>
        <time>2018-03-18T09:44:14.000Z</time>
      </trkpt>
      <trkpt lat="47.65657" lon="-2.12929">
        <ele>87</ele>
        <time>2018-03-18T09:44:16.000Z</time>
      </trkpt>
      <trkpt lat="47.65655" lon="-2.1293">
        <ele>87</ele>
        <time>2018-03-18T09:44:17.000Z</time>
      </trkpt>
      <trkpt lat="47.65651" lon="-2.12932">
        <ele>88</ele>
        <time>2018-03-18T09:44:18.000Z</time>
      </trkpt>
      <trkpt lat="47.65648" lon="-2.12933">
        <ele>88</ele>
        <time>2018-03-18T09:44:19.000Z</time>
      </trkpt>
      <trkpt lat="47.65645" lon="-2.12934">
        <ele>88</ele>
        <time>2018-03-18T09:44:20.000Z</time>
      </trkpt>
      <trkpt lat="47.65642" lon="-2.12936">
        <ele>88</ele>
        <time>2018-03-18T09:44:21.000Z</time>
      </trkpt>
      <trkpt lat="47.65639" lon="-2.12938">
        <ele>88</ele>
        <time>2018-03-18T09:44:22.000Z</time>
      </trkpt>
      <trkpt lat="47.65636" lon="-2.1294">
        <ele>88</ele>
        <time>2018-03-18T09:44:23.000Z</time>
      </trkpt>
      <trkpt lat="47.65633" lon="-2.12942">
        <ele>87</ele>
        <time>2018-03-18T09:44:24.000Z</time>
      </trkpt>
      <trkpt lat="47.6563" lon="-2.12944">
        <ele>87</ele>
        <time>2018-03-18T09:44:25.000Z</time>
      </trkpt>
      <trkpt lat="47.65627" lon="-2.12946">
        <ele>87</ele>
        <time>2018-03-18T09:44:26.000Z</time>
      </trkpt>
      <trkpt lat="47.65623" lon="-2.1295">
        <ele>87</ele>
        <time>2018-03-18T09:44:28.000Z</time>
      </trkpt>
      <trkpt lat="47.6562" lon="-2.12954">
        <ele>87</ele>
        <time>2018-03-18T09:44:30.000Z</time>
      </trkpt>
      <trkpt lat="47.65617" lon="-2.12956">
        <ele>87</ele>
        <time>2018-03-18T09:44:32.000Z</time>
      </trkpt>
      <trkpt lat="47.65578" lon="-2.12957">
        <ele>85</ele>
        <time>2018-03-18T09:44:48.000Z</time>
      </trkpt>
      <trkpt lat="47.65572" lon="-2.12975">
        <ele>88</ele>
        <time>2018-03-18T09:45:02.000Z</time>
      </trkpt>
      <trkpt lat="47.65586" lon="-2.13006">
        <ele>92</ele>
        <time>2018-03-18T09:45:17.000Z</time>
      </trkpt>
      <trkpt lat="47.65586" lon="-2.13006">
        <ele>92</ele>
        <time>2018-03-18T09:45:17.000Z</time>
      </trkpt>
      <trkpt lat="47.65588" lon="-2.13011">
        <ele>91</ele>
        <time>2018-03-18T09:45:19.000Z</time>
      </trkpt>
      <trkpt lat="47.65589" lon="-2.13016">
        <ele>91</ele>
        <time>2018-03-18T09:45:21.000Z</time>
      </trkpt>
      <trkpt lat="47.65591" lon="-2.1302">
        <ele>92</ele>
        <time>2018-03-18T09:45:23.000Z</time>
      </trkpt>
      <trkpt lat="47.65592" lon="-2.13023">
        <ele>92</ele>
        <time>2018-03-18T09:45:25.000Z</time>
      </trkpt>
      <trkpt lat="47.65595" lon="-2.13026">
        <ele>94</ele>
        <time>2018-03-18T09:45:27.000Z</time>
      </trkpt>
      <trkpt lat="47.65597" lon="-2.13029">
        <ele>95</ele>
        <time>2018-03-18T09:45:29.000Z</time>
      </trkpt>
      <trkpt lat="47.656" lon="-2.13034">
        <ele>95</ele>
        <time>2018-03-18T09:45:31.000Z</time>
      </trkpt>
      <trkpt lat="47.65602" lon="-2.1304">
        <ele>94</ele>
        <time>2018-03-18T09:45:33.000Z</time>
      </trkpt>
      <trkpt lat="47.65601" lon="-2.13045">
        <ele>92</ele>
        <time>2018-03-18T09:45:35.000Z</time>
      </trkpt>
      <trkpt lat="47.65598" lon="-2.13046">
        <ele>92</ele>
        <time>2018-03-18T09:45:38.000Z</time>
      </trkpt>
      <trkpt lat="47.65595" lon="-2.13045">
        <ele>92</ele>
        <time>2018-03-18T09:45:40.000Z</time>
      </trkpt>
      <trkpt lat="47.65591" lon="-2.13042">
        <ele>91</ele>
        <time>2018-03-18T09:45:42.000Z</time>
      </trkpt>
      <trkpt lat="47.65587" lon="-2.13039">
        <ele>91</ele>
        <time>2018-03-18T09:45:44.000Z</time>
      </trkpt>
      <trkpt lat="47.65584" lon="-2.13037">
        <ele>91</ele>
        <time>2018-03-18T09:45:45.000Z</time>
      </trkpt>
      <trkpt lat="47.65582" lon="-2.13034">
        <ele>91</ele>
        <time>2018-03-18T09:45:46.000Z</time>
      </trkpt>
      <trkpt lat="47.6558" lon="-2.13032">
        <ele>90</ele>
        <time>2018-03-18T09:45:47.000Z</time>
      </trkpt>
      <trkpt lat="47.65578" lon="-2.13029">
        <ele>90</ele>
        <time>2018-03-18T09:45:48.000Z</time>
      </trkpt>
      <trkpt lat="47.65577" lon="-2.13025">
        <ele>90</ele>
        <time>2018-03-18T09:45:49.000Z</time>
      </trkpt>
      <trkpt lat="47.65575" lon="-2.13021">
        <ele>91</ele>
        <time>2018-03-18T09:45:50.000Z</time>
      </trkpt>
      <trkpt lat="47.65573" lon="-2.13017">
        <ele>90</ele>
        <time>2018-03-18T09:45:51.000Z</time>
      </trkpt>
      <trkpt lat="47.65571" lon="-2.13013">
        <ele>90</ele>
        <time>2018-03-18T09:45:52.000Z</time>
      </trkpt>
      <trkpt lat="47.6557" lon="-2.13008">
        <ele>90</ele>
        <time>2018-03-18T09:45:53.000Z</time>
      </trkpt>
      <trkpt lat="47.65568" lon="-2.13004">
        <ele>90</ele>
        <time>2018-03-18T09:45:54.000Z</time>
      </trkpt>
      <trkpt lat="47.65567" lon="-2.13">
        <ele>90</ele>
        <time>2018-03-18T09:45:55.000Z</time>
      </trkpt>
      <trkpt lat="47.65566" lon="-2.12995">
        <ele>89</ele>
        <time>2018-03-18T09:45:56.000Z</time>
      </trkpt>
      <trkpt lat="47.65564" lon="-2.12991">
        <ele>89</ele>
        <time>2018-03-18T09:45:57.000Z</time>
      </trkpt>
      <trkpt lat="47.65563" lon="-2.12987">
        <ele>89</ele>
        <time>2018-03-18T09:45:58.000Z</time>
      </trkpt>
      <trkpt lat="47.65562" lon="-2.12983">
        <ele>89</ele>
        <time>2018-03-18T09:45:59.000Z</time>
      </trkpt>
      <trkpt lat="47.65562" lon="-2.12977">
        <ele>89</ele>
        <time>2018-03-18T09:46:01.000Z</time>
      </trkpt>
      <trkpt lat="47.65528" lon="-2.12996">
        <ele>86</ele>
        <time>2018-03-18T09:46:22.000Z</time>
      </trkpt>
      <trkpt lat="47.65498" lon="-2.13024">
        <ele>86</ele>
        <time>2018-03-18T09:46:37.000Z</time>
      </trkpt>
      <trkpt lat="47.6547" lon="-2.13052">
        <ele>87</ele>
        <time>2018-03-18T09:46:53.000Z</time>
      </trkpt>
      <trkpt lat="47.65476" lon="-2.13088">
        <ele>89</ele>
        <time>2018-03-18T09:47:17.000Z</time>
      </trkpt>
      <trkpt lat="47.65468" lon="-2.13106">
        <ele>84</ele>
        <time>2018-03-18T09:47:37.000Z</time>
      </trkpt>
      <trkpt lat="47.65446" lon="-2.13113">
        <ele>84</ele>
        <time>2018-03-18T09:47:48.000Z</time>
      </trkpt>
      <trkpt lat="47.65446" lon="-2.13113">
        <ele>84</ele>
        <time>2018-03-18T09:47:49.000Z</time>
      </trkpt>
      <trkpt lat="47.6543" lon="-2.13107">
        <ele>84</ele>
        <time>2018-03-18T09:47:58.000Z</time>
      </trkpt>
      <trkpt lat="47.65411" lon="-2.13118">
        <ele>84</ele>
        <time>2018-03-18T09:48:10.000Z</time>
      </trkpt>
      <trkpt lat="47.65378" lon="-2.13137">
        <ele>88</ele>
        <time>2018-03-18T09:48:37.000Z</time>
      </trkpt>
      <trkpt lat="47.65356" lon="-2.13155">
        <ele>90</ele>
        <time>2018-03-18T09:48:50.000Z</time>
      </trkpt>
      <trkpt lat="47.65358" lon="-2.13177">
        <ele>90</ele>
        <time>2018-03-18T09:49:06.000Z</time>
      </trkpt>
      <trkpt lat="47.65358" lon="-2.13186">
        <ele>90</ele>
        <time>2018-03-18T09:49:22.000Z</time>
      </trkpt>
      <trkpt lat="47.65359" lon="-2.13196">
        <ele>93</ele>
        <time>2018-03-18T09:49:38.000Z</time>
      </trkpt>
      <trkpt lat="47.65359" lon="-2.13196">
        <ele>93</ele>
        <time>2018-03-18T09:49:39.000Z</time>
      </trkpt>
      <trkpt lat="47.65369" lon="-2.13219">
        <ele>94</ele>
        <time>2018-03-18T09:50:05.000Z</time>
      </trkpt>
      <trkpt lat="47.65386" lon="-2.13245">
        <ele>92</ele>
        <time>2018-03-18T09:50:17.000Z</time>
      </trkpt>
      <trkpt lat="47.65386" lon="-2.13245">
        <ele>92</ele>
        <time>2018-03-18T09:50:18.000Z</time>
      </trkpt>
      <trkpt lat="47.65389" lon="-2.13247">
        <ele>92</ele>
        <time>2018-03-18T09:50:20.000Z</time>
      </trkpt>
      <trkpt lat="47.65392" lon="-2.13249">
        <ele>93</ele>
        <time>2018-03-18T09:50:21.000Z</time>
      </trkpt>
      <trkpt lat="47.65395" lon="-2.13254">
        <ele>93</ele>
        <time>2018-03-18T09:50:23.000Z</time>
      </trkpt>
      <trkpt lat="47.65395" lon="-2.1326">
        <ele>93</ele>
        <time>2018-03-18T09:50:25.000Z</time>
      </trkpt>
      <trkpt lat="47.65393" lon="-2.13265">
        <ele>94</ele>
        <time>2018-03-18T09:50:27.000Z</time>
      </trkpt>
      <trkpt lat="47.65391" lon="-2.1327">
        <ele>95</ele>
        <time>2018-03-18T09:50:29.000Z</time>
      </trkpt>
      <trkpt lat="47.65388" lon="-2.13274">
        <ele>96</ele>
        <time>2018-03-18T09:50:31.000Z</time>
      </trkpt>
      <trkpt lat="47.65387" lon="-2.13278">
        <ele>96</ele>
        <time>2018-03-18T09:50:33.000Z</time>
      </trkpt>
      <trkpt lat="47.65385" lon="-2.13286">
        <ele>96</ele>
        <time>2018-03-18T09:50:35.000Z</time>
      </trkpt>
      <trkpt lat="47.65385" lon="-2.1329">
        <ele>95</ele>
        <time>2018-03-18T09:50:36.000Z</time>
      </trkpt>
      <trkpt lat="47.65383" lon="-2.1332">
        <ele>98</ele>
        <time>2018-03-18T09:50:49.000Z</time>
      </trkpt>
      <trkpt lat="47.65407" lon="-2.13335">
        <ele>100</ele>
        <time>2018-03-18T09:51:07.000Z</time>
      </trkpt>
      <trkpt lat="47.65413" lon="-2.13356">
        <ele>101</ele>
        <time>2018-03-18T09:51:19.000Z</time>
      </trkpt>
      <trkpt lat="47.65392" lon="-2.13382">
        <ele>101</ele>
        <time>2018-03-18T09:51:39.000Z</time>
      </trkpt>
      <trkpt lat="47.65398" lon="-2.13416">
        <ele>103</ele>
        <time>2018-03-18T09:51:53.000Z</time>
      </trkpt>
      <trkpt lat="47.65385" lon="-2.13433">
        <ele>103</ele>
        <time>2018-03-18T09:52:05.000Z</time>
      </trkpt>
      <trkpt lat="47.65364" lon="-2.13474">
        <ele>108</ele>
        <time>2018-03-18T09:52:34.000Z</time>
      </trkpt>
      <trkpt lat="47.65354" lon="-2.13476">
        <ele>110</ele>
        <time>2018-03-18T09:52:42.000Z</time>
      </trkpt>
      <trkpt lat="47.65334" lon="-2.13445">
        <ele>108</ele>
        <time>2018-03-18T09:52:55.000Z</time>
      </trkpt>
      <trkpt lat="47.65334" lon="-2.13445">
        <ele>108</ele>
        <time>2018-03-18T09:52:56.000Z</time>
      </trkpt>
      <trkpt lat="47.65311" lon="-2.13427">
        <ele>113</ele>
        <time>2018-03-18T09:53:17.000Z</time>
      </trkpt>
      <trkpt lat="47.65298" lon="-2.13436">
        <ele>112</ele>
        <time>2018-03-18T09:53:47.000Z</time>
      </trkpt>
      <trkpt lat="47.65284" lon="-2.13401">
        <ele>115</ele>
        <time>2018-03-18T09:54:45.000Z</time>
      </trkpt>
      <trkpt lat="47.65299" lon="-2.13358">
        <ele>114</ele>
        <time>2018-03-18T09:55:05.000Z</time>
      </trkpt>
      <trkpt lat="47.65299" lon="-2.13358">
        <ele>114</ele>
        <time>2018-03-18T09:55:06.000Z</time>
      </trkpt>
      <trkpt lat="47.65324" lon="-2.13314">
        <ele>109</ele>
        <time>2018-03-18T09:55:11.000Z</time>
      </trkpt>
      <trkpt lat="47.65347" lon="-2.13269">
        <ele>106</ele>
        <time>2018-03-18T09:55:16.000Z</time>
      </trkpt>
      <trkpt lat="47.65355" lon="-2.13233">
        <ele>104</ele>
        <time>2018-03-18T09:55:21.000Z</time>
      </trkpt>
      <trkpt lat="47.65333" lon="-2.13223">
        <ele>98</ele>
        <time>2018-03-18T09:55:34.000Z</time>
      </trkpt>
      <trkpt lat="47.65297" lon="-2.13213">
        <ele>95</ele>
        <time>2018-03-18T09:55:47.000Z</time>
      </trkpt>
      <trkpt lat="47.65282" lon="-2.13223">
        <ele>97</ele>
        <time>2018-03-18T09:56:09.000Z</time>
      </trkpt>
      <trkpt lat="47.65283" lon="-2.13214">
        <ele>99</ele>
        <time>2018-03-18T09:56:27.000Z</time>
      </trkpt>
      <trkpt lat="47.65283" lon="-2.13214">
        <ele>99</ele>
        <time>2018-03-18T09:56:28.000Z</time>
      </trkpt>
      <trkpt lat="47.65273" lon="-2.13194">
        <ele>103</ele>
        <time>2018-03-18T09:56:52.000Z</time>
      </trkpt>
      <trkpt lat="47.65261" lon="-2.1317">
        <ele>110</ele>
        <time>2018-03-18T09:57:16.000Z</time>
      </trkpt>
      <trkpt lat="47.65261" lon="-2.1317">
        <ele>110</ele>
        <time>2018-03-18T09:57:17.000Z</time>
      </trkpt>
      <trkpt lat="47.65261" lon="-2.1317">
        <ele>110</ele>
        <time>2018-03-18T09:57:18.000Z</time>
      </trkpt>
      <trkpt lat="47.65249" lon="-2.13148">
        <ele>112</ele>
        <time>2018-03-18T09:58:11.000Z</time>
      </trkpt>
      <trkpt lat="47.6523" lon="-2.13123">
        <ele>115</ele>
        <time>2018-03-18T09:58:29.000Z</time>
      </trkpt>
      <trkpt lat="47.65215" lon="-2.13138">
        <ele>117</ele>
        <time>2018-03-18T09:58:44.000Z</time>
      </trkpt>
      <trkpt lat="47.65179" lon="-2.13135">
        <ele>119</ele>
        <time>2018-03-18T09:59:10.000Z</time>
      </trkpt>
      <trkpt lat="47.65147" lon="-2.13113">
        <ele>119</ele>
        <time>2018-03-18T09:59:34.000Z</time>
      </trkpt>
      <trkpt lat="47.65133" lon="-2.13116">
        <ele>119</ele>
        <time>2018-03-18T09:59:44.000Z</time>
      </trkpt>
      <trkpt lat="47.65116" lon="-2.13087">
        <ele>121</ele>
        <time>2018-03-18T09:59:59.000Z</time>
      </trkpt>
      <trkpt lat="47.65088" lon="-2.13062">
        <ele>122</ele>
        <time>2018-03-18T10:00:18.000Z</time>
      </trkpt>
      <trkpt lat="47.65052" lon="-2.13058">
        <ele>119</ele>
        <time>2018-03-18T10:00:35.000Z</time>
      </trkpt>
      <trkpt lat="47.65021" lon="-2.13035">
        <ele>118</ele>
        <time>2018-03-18T10:00:50.000Z</time>
      </trkpt>
      <trkpt lat="47.65014" lon="-2.13088">
        <ele>119</ele>
        <time>2018-03-18T10:01:10.000Z</time>
      </trkpt>
      <trkpt lat="47.65014" lon="-2.1312">
        <ele>118</ele>
        <time>2018-03-18T10:01:18.000Z</time>
      </trkpt>
      <trkpt lat="47.64998" lon="-2.13138">
        <ele>118</ele>
        <time>2018-03-18T10:01:25.000Z</time>
      </trkpt>
      <trkpt lat="47.64991" lon="-2.13144">
        <ele>117</ele>
        <time>2018-03-18T10:01:29.000Z</time>
      </trkpt>
      <trkpt lat="47.64964" lon="-2.13138">
        <ele>117</ele>
        <time>2018-03-18T10:01:44.000Z</time>
      </trkpt>
      <trkpt lat="47.64932" lon="-2.13125">
        <ele>116</ele>
        <time>2018-03-18T10:02:02.000Z</time>
      </trkpt>
      <trkpt lat="47.649" lon="-2.13108">
        <ele>117</ele>
        <time>2018-03-18T10:02:17.000Z</time>
      </trkpt>
      <trkpt lat="47.64869" lon="-2.13102">
        <ele>115</ele>
        <time>2018-03-18T10:02:34.000Z</time>
      </trkpt>
      <trkpt lat="47.64926" lon="-2.13132">
        <ele>114</ele>
        <time>2018-03-18T10:03:12.000Z</time>
      </trkpt>
      <trkpt lat="47.64959" lon="-2.1315">
        <ele>115</ele>
        <time>2018-03-18T10:03:29.000Z</time>
      </trkpt>
      <trkpt lat="47.64993" lon="-2.1316">
        <ele>115</ele>
        <time>2018-03-18T10:03:46.000Z</time>
      </trkpt>
      <trkpt lat="47.65025" lon="-2.13169">
        <ele>115</ele>
        <time>2018-03-18T10:04:06.000Z</time>
      </trkpt>
      <trkpt lat="47.65058" lon="-2.13173">
        <ele>116</ele>
        <time>2018-03-18T10:04:19.000Z</time>
      </trkpt>
      <trkpt lat="47.6509" lon="-2.13152">
        <ele>116</ele>
        <time>2018-03-18T10:04:40.000Z</time>
      </trkpt>
      <trkpt lat="47.65097" lon="-2.13153">
        <ele>116</ele>
        <time>2018-03-18T10:04:47.000Z</time>
      </trkpt>
      <trkpt lat="47.65115" lon="-2.13156">
        <ele>113</ele>
        <time>2018-03-18T10:05:15.000Z</time>
      </trkpt>
      <trkpt lat="47.6514" lon="-2.13162">
        <ele>112</ele>
        <time>2018-03-18T10:05:27.000Z</time>
      </trkpt>
      <trkpt lat="47.6514" lon="-2.13162">
        <ele>112</ele>
        <time>2018-03-18T10:05:28.000Z</time>
      </trkpt>
      <trkpt lat="47.65174" lon="-2.13163">
        <ele>112</ele>
        <time>2018-03-18T10:05:46.000Z</time>
      </trkpt>
      <trkpt lat="47.65207" lon="-2.13159">
        <ele>113</ele>
        <time>2018-03-18T10:06:01.000Z</time>
      </trkpt>
      <trkpt lat="47.65213" lon="-2.13157">
        <ele>113</ele>
        <time>2018-03-18T10:06:02.000Z</time>
      </trkpt>
      <trkpt lat="47.65218" lon="-2.13156">
        <ele>112</ele>
        <time>2018-03-18T10:06:03.000Z</time>
      </trkpt>
      <trkpt lat="47.65222" lon="-2.13157">
        <ele>112</ele>
        <time>2018-03-18T10:06:04.000Z</time>
      </trkpt>
      <trkpt lat="47.65225" lon="-2.13163">
        <ele>111</ele>
        <time>2018-03-18T10:06:06.000Z</time>
      </trkpt>
      <trkpt lat="47.65227" lon="-2.13168">
        <ele>110</ele>
        <time>2018-03-18T10:06:07.000Z</time>
      </trkpt>
      <trkpt lat="47.65228" lon="-2.13172">
        <ele>109</ele>
        <time>2018-03-18T10:06:09.000Z</time>
      </trkpt>
      <trkpt lat="47.65226" lon="-2.13177">
        <ele>110</ele>
        <time>2018-03-18T10:06:12.000Z</time>
      </trkpt>
      <trkpt lat="47.65224" lon="-2.13181">
        <ele>111</ele>
        <time>2018-03-18T10:06:16.000Z</time>
      </trkpt>
      <trkpt lat="47.65221" lon="-2.13184">
        <ele>110</ele>
        <time>2018-03-18T10:06:18.000Z</time>
      </trkpt>
      <trkpt lat="47.65217" lon="-2.13186">
        <ele>110</ele>
        <time>2018-03-18T10:06:20.000Z</time>
      </trkpt>
      <trkpt lat="47.65214" lon="-2.13186">
        <ele>110</ele>
        <time>2018-03-18T10:06:21.000Z</time>
      </trkpt>
      <trkpt lat="47.65211" lon="-2.13186">
        <ele>110</ele>
        <time>2018-03-18T10:06:22.000Z</time>
      </trkpt>
      <trkpt lat="47.65207" lon="-2.13186">
        <ele>110</ele>
        <time>2018-03-18T10:06:24.000Z</time>
      </trkpt>
      <trkpt lat="47.65202" lon="-2.13186">
        <ele>110</ele>
        <time>2018-03-18T10:06:26.000Z</time>
      </trkpt>
      <trkpt lat="47.65198" lon="-2.13187">
        <ele>110</ele>
        <time>2018-03-18T10:06:28.000Z</time>
      </trkpt>
      <trkpt lat="47.65194" lon="-2.13187">
        <ele>112</ele>
        <time>2018-03-18T10:06:31.000Z</time>
      </trkpt>
      <trkpt lat="47.65191" lon="-2.13187">
        <ele>112</ele>
        <time>2018-03-18T10:06:33.000Z</time>
      </trkpt>
      <trkpt lat="47.65187" lon="-2.13186">
        <ele>112</ele>
        <time>2018-03-18T10:06:35.000Z</time>
      </trkpt>
      <trkpt lat="47.65183" lon="-2.13185">
        <ele>112</ele>
        <time>2018-03-18T10:06:37.000Z</time>
      </trkpt>
      <trkpt lat="47.65141" lon="-2.13185">
        <ele>111</ele>
        <time>2018-03-18T10:06:56.000Z</time>
      </trkpt>
      <trkpt lat="47.65109" lon="-2.13178">
        <ele>114</ele>
        <time>2018-03-18T10:07:17.000Z</time>
      </trkpt>
      <trkpt lat="47.65073" lon="-2.13183">
        <ele>111</ele>
        <time>2018-03-18T10:07:29.000Z</time>
      </trkpt>
      <trkpt lat="47.6507" lon="-2.13193">
        <ele>110</ele>
        <time>2018-03-18T10:07:35.000Z</time>
      </trkpt>
      <trkpt lat="47.65106" lon="-2.13195">
        <ele>109</ele>
        <time>2018-03-18T10:07:50.000Z</time>
      </trkpt>
      <trkpt lat="47.6514" lon="-2.132">
        <ele>109</ele>
        <time>2018-03-18T10:08:01.000Z</time>
      </trkpt>
      <trkpt lat="47.65174" lon="-2.13206">
        <ele>107</ele>
        <time>2018-03-18T10:08:11.000Z</time>
      </trkpt>
      <trkpt lat="47.65209" lon="-2.13221">
        <ele>106</ele>
        <time>2018-03-18T10:08:21.000Z</time>
      </trkpt>
      <trkpt lat="47.65245" lon="-2.1323">
        <ele>103</ele>
        <time>2018-03-18T10:08:27.000Z</time>
      </trkpt>
      <trkpt lat="47.65245" lon="-2.1323">
        <ele>103</ele>
        <time>2018-03-18T10:08:28.000Z</time>
      </trkpt>
      <trkpt lat="47.6524" lon="-2.13279">
        <ele>102</ele>
        <time>2018-03-18T10:08:53.000Z</time>
      </trkpt>
      <trkpt lat="47.65218" lon="-2.13317">
        <ele>102</ele>
        <time>2018-03-18T10:09:27.000Z</time>
      </trkpt>
      <trkpt lat="47.65199" lon="-2.1334">
        <ele>103</ele>
        <time>2018-03-18T10:09:49.000Z</time>
      </trkpt>
      <trkpt lat="47.65186" lon="-2.13356">
        <ele>102</ele>
        <time>2018-03-18T10:10:04.000Z</time>
      </trkpt>
      <trkpt lat="47.65186" lon="-2.13356">
        <ele>102</ele>
        <time>2018-03-18T10:10:05.000Z</time>
      </trkpt>
      <trkpt lat="47.65193" lon="-2.13364">
        <ele>105</ele>
        <time>2018-03-18T10:10:20.000Z</time>
      </trkpt>
      <trkpt lat="47.65213" lon="-2.13353">
        <ele>104</ele>
        <time>2018-03-18T10:10:34.000Z</time>
      </trkpt>
      <trkpt lat="47.65213" lon="-2.13353">
        <ele>104</ele>
        <time>2018-03-18T10:10:35.000Z</time>
      </trkpt>
      <trkpt lat="47.65216" lon="-2.13351">
        <ele>105</ele>
        <time>2018-03-18T10:10:39.000Z</time>
      </trkpt>
      <trkpt lat="47.6522" lon="-2.13349">
        <ele>105</ele>
        <time>2018-03-18T10:10:42.000Z</time>
      </trkpt>
      <trkpt lat="47.65224" lon="-2.13347">
        <ele>105</ele>
        <time>2018-03-18T10:10:45.000Z</time>
      </trkpt>
      <trkpt lat="47.65226" lon="-2.13346">
        <ele>105</ele>
        <time>2018-03-18T10:10:47.000Z</time>
      </trkpt>
      <trkpt lat="47.6523" lon="-2.13344">
        <ele>106</ele>
        <time>2018-03-18T10:10:50.000Z</time>
      </trkpt>
      <trkpt lat="47.65232" lon="-2.13343">
        <ele>106</ele>
        <time>2018-03-18T10:10:52.000Z</time>
      </trkpt>
      <trkpt lat="47.65236" lon="-2.13341">
        <ele>106</ele>
        <time>2018-03-18T10:10:55.000Z</time>
      </trkpt>
      <trkpt lat="47.65239" lon="-2.13342">
        <ele>104</ele>
        <time>2018-03-18T10:10:59.000Z</time>
      </trkpt>
      <trkpt lat="47.65239" lon="-2.13346">
        <ele>104</ele>
        <time>2018-03-18T10:11:04.000Z</time>
      </trkpt>
      <trkpt lat="47.65236" lon="-2.1335">
        <ele>103</ele>
        <time>2018-03-18T10:11:07.000Z</time>
      </trkpt>
      <trkpt lat="47.65233" lon="-2.13354">
        <ele>102</ele>
        <time>2018-03-18T10:11:09.000Z</time>
      </trkpt>
      <trkpt lat="47.65231" lon="-2.1336">
        <ele>102</ele>
        <time>2018-03-18T10:11:11.000Z</time>
      </trkpt>
      <trkpt lat="47.65229" lon="-2.13364">
        <ele>102</ele>
        <time>2018-03-18T10:11:13.000Z</time>
      </trkpt>
      <trkpt lat="47.65226" lon="-2.13369">
        <ele>102</ele>
        <time>2018-03-18T10:11:15.000Z</time>
      </trkpt>
      <trkpt lat="47.65223" lon="-2.13372">
        <ele>102</ele>
        <time>2018-03-18T10:11:17.000Z</time>
      </trkpt>
      <trkpt lat="47.6522" lon="-2.13374">
        <ele>104</ele>
        <time>2018-03-18T10:11:19.000Z</time>
      </trkpt>
      <trkpt lat="47.65217" lon="-2.13376">
        <ele>104</ele>
        <time>2018-03-18T10:11:21.000Z</time>
      </trkpt>
      <trkpt lat="47.65214" lon="-2.13378">
        <ele>106</ele>
        <time>2018-03-18T10:11:24.000Z</time>
      </trkpt>
      <trkpt lat="47.65211" lon="-2.13382">
        <ele>106</ele>
        <time>2018-03-18T10:11:26.000Z</time>
      </trkpt>
      <trkpt lat="47.65208" lon="-2.13384">
        <ele>105</ele>
        <time>2018-03-18T10:11:28.000Z</time>
      </trkpt>
      <trkpt lat="47.65204" lon="-2.13386">
        <ele>104</ele>
        <time>2018-03-18T10:11:30.000Z</time>
      </trkpt>
      <trkpt lat="47.652" lon="-2.13388">
        <ele>104</ele>
        <time>2018-03-18T10:11:32.000Z</time>
      </trkpt>
      <trkpt lat="47.65196" lon="-2.13389">
        <ele>103</ele>
        <time>2018-03-18T10:11:34.000Z</time>
      </trkpt>
      <trkpt lat="47.65193" lon="-2.13389">
        <ele>104</ele>
        <time>2018-03-18T10:11:36.000Z</time>
      </trkpt>
      <trkpt lat="47.65157" lon="-2.1338">
        <ele>105</ele>
        <time>2018-03-18T10:11:54.000Z</time>
      </trkpt>
      <trkpt lat="47.65129" lon="-2.13351">
        <ele>106</ele>
        <time>2018-03-18T10:12:09.000Z</time>
      </trkpt>
      <trkpt lat="47.65123" lon="-2.13324">
        <ele>105</ele>
        <time>2018-03-18T10:12:24.000Z</time>
      </trkpt>
      <trkpt lat="47.65164" lon="-2.1334">
        <ele>99</ele>
        <time>2018-03-18T10:12:37.000Z</time>
      </trkpt>
      <trkpt lat="47.6517" lon="-2.13289">
        <ele>101</ele>
        <time>2018-03-18T10:12:57.000Z</time>
      </trkpt>
      <trkpt lat="47.65165" lon="-2.1326">
        <ele>99</ele>
        <time>2018-03-18T10:13:06.000Z</time>
      </trkpt>
      <trkpt lat="47.65149" lon="-2.13248">
        <ele>100</ele>
        <time>2018-03-18T10:13:14.000Z</time>
      </trkpt>
      <trkpt lat="47.65149" lon="-2.13248">
        <ele>100</ele>
        <time>2018-03-18T10:13:15.000Z</time>
      </trkpt>
      <trkpt lat="47.65134" lon="-2.13239">
        <ele>101</ele>
        <time>2018-03-18T10:13:28.000Z</time>
      </trkpt>
      <trkpt lat="47.651" lon="-2.13225">
        <ele>103</ele>
        <time>2018-03-18T10:13:50.000Z</time>
      </trkpt>
      <trkpt lat="47.65067" lon="-2.1322">
        <ele>107</ele>
        <time>2018-03-18T10:14:09.000Z</time>
      </trkpt>
      <trkpt lat="47.65034" lon="-2.13208">
        <ele>106</ele>
        <time>2018-03-18T10:14:27.000Z</time>
      </trkpt>
      <trkpt lat="47.65001" lon="-2.13195">
        <ele>107</ele>
        <time>2018-03-18T10:14:46.000Z</time>
      </trkpt>
      <trkpt lat="47.64967" lon="-2.13202">
        <ele>110</ele>
        <time>2018-03-18T10:15:08.000Z</time>
      </trkpt>
      <trkpt lat="47.64934" lon="-2.13209">
        <ele>114</ele>
        <time>2018-03-18T10:15:28.000Z</time>
      </trkpt>
      <trkpt lat="47.64904" lon="-2.13184">
        <ele>115</ele>
        <time>2018-03-18T10:15:45.000Z</time>
      </trkpt>
      <trkpt lat="47.64878" lon="-2.13155">
        <ele>115</ele>
        <time>2018-03-18T10:16:05.000Z</time>
      </trkpt>
      <trkpt lat="47.64849" lon="-2.13126">
        <ele>117</ele>
        <time>2018-03-18T10:16:23.000Z</time>
      </trkpt>
      <trkpt lat="47.64817" lon="-2.13121">
        <ele>117</ele>
        <time>2018-03-18T10:16:46.000Z</time>
      </trkpt>
      <trkpt lat="47.64792" lon="-2.13122">
        <ele>118</ele>
        <time>2018-03-18T10:16:59.000Z</time>
      </trkpt>
      <trkpt lat="47.64784" lon="-2.13105">
        <ele>119</ele>
        <time>2018-03-18T10:17:09.000Z</time>
      </trkpt>
      <trkpt lat="47.64775" lon="-2.13054">
        <ele>119</ele>
        <time>2018-03-18T10:17:30.000Z</time>
      </trkpt>
      <trkpt lat="47.64779" lon="-2.13024">
        <ele>118</ele>
        <time>2018-03-18T10:17:42.000Z</time>
      </trkpt>
      <trkpt lat="47.64802" lon="-2.13014">
        <ele>115</ele>
        <time>2018-03-18T10:17:50.000Z</time>
      </trkpt>
      <trkpt lat="47.6484" lon="-2.13004">
        <ele>111</ele>
        <time>2018-03-18T10:17:59.000Z</time>
      </trkpt>
      <trkpt lat="47.64853" lon="-2.12991">
        <ele>111</ele>
        <time>2018-03-18T10:18:03.000Z</time>
      </trkpt>
      <trkpt lat="47.6485" lon="-2.12953">
        <ele>112</ele>
        <time>2018-03-18T10:18:10.000Z</time>
      </trkpt>
      <trkpt lat="47.64846" lon="-2.12895">
        <ele>111</ele>
        <time>2018-03-18T10:18:22.000Z</time>
      </trkpt>
      <trkpt lat="47.64843" lon="-2.12841">
        <ele>111</ele>
        <time>2018-03-18T10:18:35.000Z</time>
      </trkpt>
      <trkpt lat="47.64847" lon="-2.12836">
        <ele>113</ele>
        <time>2018-03-18T10:18:51.000Z</time>
      </trkpt>
      <trkpt lat="47.64845" lon="-2.12831">
        <ele>117</ele>
        <time>2018-03-18T10:20:44.000Z</time>
      </trkpt>
      <trkpt lat="47.64845" lon="-2.12831">
        <ele>117</ele>
        <time>2018-03-18T10:20:45.000Z</time>
      </trkpt>
      <trkpt lat="47.64844" lon="-2.12839">
        <ele>114</ele>
        <time>2018-03-18T10:24:36.000Z</time>
      </trkpt>
      <trkpt lat="47.64844" lon="-2.12839">
        <ele>114</ele>
        <time>2018-03-18T10:24:37.000Z</time>
      </trkpt>
      <trkpt lat="47.64841" lon="-2.12824">
        <ele>113</ele>
        <time>2018-03-18T10:24:55.000Z</time>
      </trkpt>
      <trkpt lat="47.64813" lon="-2.12815">
        <ele>113</ele>
        <time>2018-03-18T10:25:02.000Z</time>
      </trkpt>
      <trkpt lat="47.64813" lon="-2.12815">
        <ele>113</ele>
        <time>2018-03-18T10:25:03.000Z</time>
      </trkpt>
      <trkpt lat="47.64791" lon="-2.12784">
        <ele>112</ele>
        <time>2018-03-18T10:25:21.000Z</time>
      </trkpt>
      <trkpt lat="47.64777" lon="-2.1278">
        <ele>117</ele>
        <time>2018-03-18T10:25:45.000Z</time>
      </trkpt>
      <trkpt lat="47.64755" lon="-2.12786">
        <ele>120</ele>
        <time>2018-03-18T10:25:59.000Z</time>
      </trkpt>
      <trkpt lat="47.64755" lon="-2.12786">
        <ele>120</ele>
        <time>2018-03-18T10:26:00.000Z</time>
      </trkpt>
      <trkpt lat="47.64721" lon="-2.12785">
        <ele>123</ele>
        <time>2018-03-18T10:26:24.000Z</time>
      </trkpt>
      <trkpt lat="47.64692" lon="-2.12757">
        <ele>123</ele>
        <time>2018-03-18T10:26:47.000Z</time>
      </trkpt>
      <trkpt lat="47.64658" lon="-2.12761">
        <ele>123</ele>
        <time>2018-03-18T10:27:04.000Z</time>
      </trkpt>
      <trkpt lat="47.64622" lon="-2.12755">
        <ele>122</ele>
        <time>2018-03-18T10:27:20.000Z</time>
      </trkpt>
      <trkpt lat="47.64587" lon="-2.12742">
        <ele>121</ele>
        <time>2018-03-18T10:27:36.000Z</time>
      </trkpt>
      <trkpt lat="47.64552" lon="-2.12746">
        <ele>121</ele>
        <time>2018-03-18T10:27:52.000Z</time>
      </trkpt>
      <trkpt lat="47.64537" lon="-2.12749">
        <ele>122</ele>
        <time>2018-03-18T10:28:00.000Z</time>
      </trkpt>
      <trkpt lat="47.64528" lon="-2.12782">
        <ele>124</ele>
        <time>2018-03-18T10:28:09.000Z</time>
      </trkpt>
      <trkpt lat="47.6452" lon="-2.12796">
        <ele>124</ele>
        <time>2018-03-18T10:28:14.000Z</time>
      </trkpt>
      <trkpt lat="47.64494" lon="-2.12782">
        <ele>124</ele>
        <time>2018-03-18T10:28:25.000Z</time>
      </trkpt>
      <trkpt lat="47.64466" lon="-2.1275">
        <ele>126</ele>
        <time>2018-03-18T10:28:40.000Z</time>
      </trkpt>
      <trkpt lat="47.64431" lon="-2.12752">
        <ele>124</ele>
        <time>2018-03-18T10:28:52.000Z</time>
      </trkpt>
      <trkpt lat="47.64408" lon="-2.1271">
        <ele>124</ele>
        <time>2018-03-18T10:29:06.000Z</time>
      </trkpt>
      <trkpt lat="47.64383" lon="-2.12672">
        <ele>122</ele>
        <time>2018-03-18T10:29:18.000Z</time>
      </trkpt>
      <trkpt lat="47.64369" lon="-2.12655">
        <ele>121</ele>
        <time>2018-03-18T10:29:22.000Z</time>
      </trkpt>
      <trkpt lat="47.64364" lon="-2.12627">
        <ele>120</ele>
        <time>2018-03-18T10:29:26.000Z</time>
      </trkpt>
      <trkpt lat="47.64371" lon="-2.12578">
        <ele>120</ele>
        <time>2018-03-18T10:29:38.000Z</time>
      </trkpt>
      <trkpt lat="47.64382" lon="-2.12525">
        <ele>118</ele>
        <time>2018-03-18T10:29:49.000Z</time>
      </trkpt>
      <trkpt lat="47.64386" lon="-2.125">
        <ele>118</ele>
        <time>2018-03-18T10:29:54.000Z</time>
      </trkpt>
      <trkpt lat="47.64368" lon="-2.12476">
        <ele>115</ele>
        <time>2018-03-18T10:29:59.000Z</time>
      </trkpt>
      <trkpt lat="47.64336" lon="-2.12447">
        <ele>113</ele>
        <time>2018-03-18T10:30:04.000Z</time>
      </trkpt>
      <trkpt lat="47.64294" lon="-2.1243">
        <ele>109</ele>
        <time>2018-03-18T10:30:09.000Z</time>
      </trkpt>
      <trkpt lat="47.64258" lon="-2.12411">
        <ele>107</ele>
        <time>2018-03-18T10:30:14.000Z</time>
      </trkpt>
      <trkpt lat="47.64225" lon="-2.12374">
        <ele>104</ele>
        <time>2018-03-18T10:30:20.000Z</time>
      </trkpt>
      <trkpt lat="47.64219" lon="-2.12353">
        <ele>102</ele>
        <time>2018-03-18T10:30:23.000Z</time>
      </trkpt>
      <trkpt lat="47.64199" lon="-2.12332">
        <ele>99</ele>
        <time>2018-03-18T10:30:27.000Z</time>
      </trkpt>
      <trkpt lat="47.64165" lon="-2.12309">
        <ele>97</ele>
        <time>2018-03-18T10:30:31.000Z</time>
      </trkpt>
      <trkpt lat="47.64127" lon="-2.12299">
        <ele>91</ele>
        <time>2018-03-18T10:30:38.000Z</time>
      </trkpt>
      <trkpt lat="47.6409" lon="-2.12293">
        <ele>85</ele>
        <time>2018-03-18T10:30:46.000Z</time>
      </trkpt>
      <trkpt lat="47.64053" lon="-2.12281">
        <ele>86</ele>
        <time>2018-03-18T10:30:55.000Z</time>
      </trkpt>
      <trkpt lat="47.6405" lon="-2.12279">
        <ele>86</ele>
        <time>2018-03-18T10:30:56.000Z</time>
      </trkpt>
      <trkpt lat="47.64047" lon="-2.12278">
        <ele>87</ele>
        <time>2018-03-18T10:30:57.000Z</time>
      </trkpt>
      <trkpt lat="47.64044" lon="-2.12275">
        <ele>87</ele>
        <time>2018-03-18T10:30:58.000Z</time>
      </trkpt>
      <trkpt lat="47.64042" lon="-2.12273">
        <ele>87</ele>
        <time>2018-03-18T10:30:59.000Z</time>
      </trkpt>
      <trkpt lat="47.6404" lon="-2.1227">
        <ele>87</ele>
        <time>2018-03-18T10:31:00.000Z</time>
      </trkpt>
      <trkpt lat="47.64038" lon="-2.1226">
        <ele>88</ele>
        <time>2018-03-18T10:31:03.000Z</time>
      </trkpt>
      <trkpt lat="47.64038" lon="-2.12253">
        <ele>88</ele>
        <time>2018-03-18T10:31:05.000Z</time>
      </trkpt>
      <trkpt lat="47.6404" lon="-2.12247">
        <ele>88</ele>
        <time>2018-03-18T10:31:07.000Z</time>
      </trkpt>
      <trkpt lat="47.64042" lon="-2.1224">
        <ele>88</ele>
        <time>2018-03-18T10:31:09.000Z</time>
      </trkpt>
      <trkpt lat="47.64044" lon="-2.12237">
        <ele>88</ele>
        <time>2018-03-18T10:31:10.000Z</time>
      </trkpt>
      <trkpt lat="47.64048" lon="-2.12176">
        <ele>94</ele>
        <time>2018-03-18T10:31:40.000Z</time>
      </trkpt>
      <trkpt lat="47.64043" lon="-2.12123">
        <ele>102</ele>
        <time>2018-03-18T10:32:07.000Z</time>
      </trkpt>
      <trkpt lat="47.64033" lon="-2.12073">
        <ele>106</ele>
        <time>2018-03-18T10:32:33.000Z</time>
      </trkpt>
      <trkpt lat="47.6404" lon="-2.12021">
        <ele>106</ele>
        <time>2018-03-18T10:32:54.000Z</time>
      </trkpt>
      <trkpt lat="47.64054" lon="-2.1197">
        <ele>106</ele>
        <time>2018-03-18T10:33:17.000Z</time>
      </trkpt>
      <trkpt lat="47.64055" lon="-2.11966">
        <ele>106</ele>
        <time>2018-03-18T10:33:19.000Z</time>
      </trkpt>
      <trkpt lat="47.64056" lon="-2.11961">
        <ele>107</ele>
        <time>2018-03-18T10:33:21.000Z</time>
      </trkpt>
      <trkpt lat="47.64058" lon="-2.11956">
        <ele>107</ele>
        <time>2018-03-18T10:33:23.000Z</time>
      </trkpt>
      <trkpt lat="47.64059" lon="-2.11951">
        <ele>108</ele>
        <time>2018-03-18T10:33:25.000Z</time>
      </trkpt>
      <trkpt lat="47.64059" lon="-2.11943">
        <ele>108</ele>
        <time>2018-03-18T10:33:28.000Z</time>
      </trkpt>
      <trkpt lat="47.64058" lon="-2.11938">
        <ele>108</ele>
        <time>2018-03-18T10:33:30.000Z</time>
      </trkpt>
      <trkpt lat="47.64056" lon="-2.11934">
        <ele>108</ele>
        <time>2018-03-18T10:33:33.000Z</time>
      </trkpt>
      <trkpt lat="47.64054" lon="-2.11933">
        <ele>107</ele>
        <time>2018-03-18T10:33:37.000Z</time>
      </trkpt>
      <trkpt lat="47.64051" lon="-2.11936">
        <ele>108</ele>
        <time>2018-03-18T10:33:41.000Z</time>
      </trkpt>
      <trkpt lat="47.6405" lon="-2.11941">
        <ele>108</ele>
        <time>2018-03-18T10:33:44.000Z</time>
      </trkpt>
      <trkpt lat="47.64051" lon="-2.11946">
        <ele>107</ele>
        <time>2018-03-18T10:33:46.000Z</time>
      </trkpt>
      <trkpt lat="47.64054" lon="-2.11952">
        <ele>107</ele>
        <time>2018-03-18T10:33:48.000Z</time>
      </trkpt>
      <trkpt lat="47.64053" lon="-2.11957">
        <ele>107</ele>
        <time>2018-03-18T10:33:50.000Z</time>
      </trkpt>
      <trkpt lat="47.64051" lon="-2.11963">
        <ele>107</ele>
        <time>2018-03-18T10:33:52.000Z</time>
      </trkpt>
      <trkpt lat="47.64051" lon="-2.11968">
        <ele>107</ele>
        <time>2018-03-18T10:33:54.000Z</time>
      </trkpt>
      <trkpt lat="47.6405" lon="-2.11972">
        <ele>107</ele>
        <time>2018-03-18T10:33:55.000Z</time>
      </trkpt>
      <trkpt lat="47.64049" lon="-2.11976">
        <ele>107</ele>
        <time>2018-03-18T10:33:56.000Z</time>
      </trkpt>
      <trkpt lat="47.64049" lon="-2.1198">
        <ele>107</ele>
        <time>2018-03-18T10:33:57.000Z</time>
      </trkpt>
      <trkpt lat="47.6405" lon="-2.11985">
        <ele>107</ele>
        <time>2018-03-18T10:33:58.000Z</time>
      </trkpt>
      <trkpt lat="47.6405" lon="-2.1199">
        <ele>107</ele>
        <time>2018-03-18T10:33:59.000Z</time>
      </trkpt>
      <trkpt lat="47.64048" lon="-2.11996">
        <ele>106</ele>
        <time>2018-03-18T10:34:01.000Z</time>
      </trkpt>
      <trkpt lat="47.64044" lon="-2.11998">
        <ele>106</ele>
        <time>2018-03-18T10:34:03.000Z</time>
      </trkpt>
      <trkpt lat="47.64038" lon="-2.11996">
        <ele>106</ele>
        <time>2018-03-18T10:34:05.000Z</time>
      </trkpt>
      <trkpt lat="47.64035" lon="-2.11993">
        <ele>107</ele>
        <time>2018-03-18T10:34:07.000Z</time>
      </trkpt>
      <trkpt lat="47.64032" lon="-2.11991">
        <ele>106</ele>
        <time>2018-03-18T10:34:09.000Z</time>
      </trkpt>
      <trkpt lat="47.64028" lon="-2.11988">
        <ele>107</ele>
        <time>2018-03-18T10:34:11.000Z</time>
      </trkpt>
      <trkpt lat="47.64027" lon="-2.11983">
        <ele>108</ele>
        <time>2018-03-18T10:34:14.000Z</time>
      </trkpt>
      <trkpt lat="47.64024" lon="-2.11979">
        <ele>109</ele>
        <time>2018-03-18T10:34:17.000Z</time>
      </trkpt>
      <trkpt lat="47.64021" lon="-2.11976">
        <ele>109</ele>
        <time>2018-03-18T10:34:19.000Z</time>
      </trkpt>
      <trkpt lat="47.63991" lon="-2.11936">
        <ele>111</ele>
        <time>2018-03-18T10:34:45.000Z</time>
      </trkpt>
      <trkpt lat="47.6398" lon="-2.11885">
        <ele>112</ele>
        <time>2018-03-18T10:35:08.000Z</time>
      </trkpt>
      <trkpt lat="47.63975" lon="-2.11832">
        <ele>113</ele>
        <time>2018-03-18T10:35:31.000Z</time>
      </trkpt>
      <trkpt lat="47.6396" lon="-2.11784">
        <ele>115</ele>
        <time>2018-03-18T10:35:55.000Z</time>
      </trkpt>
      <trkpt lat="47.6394" lon="-2.11739">
        <ele>116</ele>
        <time>2018-03-18T10:36:17.000Z</time>
      </trkpt>
      <trkpt lat="47.63911" lon="-2.11706">
        <ele>118</ele>
        <time>2018-03-18T10:36:38.000Z</time>
      </trkpt>
      <trkpt lat="47.63882" lon="-2.11674">
        <ele>120</ele>
        <time>2018-03-18T10:36:58.000Z</time>
      </trkpt>
      <trkpt lat="47.63853" lon="-2.11644">
        <ele>122</ele>
        <time>2018-03-18T10:37:17.000Z</time>
      </trkpt>
      <trkpt lat="47.63823" lon="-2.11612">
        <ele>126</ele>
        <time>2018-03-18T10:37:37.000Z</time>
      </trkpt>
      <trkpt lat="47.63793" lon="-2.11582">
        <ele>129</ele>
        <time>2018-03-18T10:37:56.000Z</time>
      </trkpt>
      <trkpt lat="47.63763" lon="-2.11555">
        <ele>131</ele>
        <time>2018-03-18T10:38:11.000Z</time>
      </trkpt>
      <trkpt lat="47.63732" lon="-2.11525">
        <ele>131</ele>
        <time>2018-03-18T10:38:27.000Z</time>
      </trkpt>
      <trkpt lat="47.637" lon="-2.11495">
        <ele>133</ele>
        <time>2018-03-18T10:38:43.000Z</time>
      </trkpt>
      <trkpt lat="47.6367" lon="-2.11468">
        <ele>136</ele>
        <time>2018-03-18T10:38:55.000Z</time>
      </trkpt>
      <trkpt lat="47.63641" lon="-2.11437">
        <ele>136</ele>
        <time>2018-03-18T10:39:05.000Z</time>
      </trkpt>
      <trkpt lat="47.63619" lon="-2.11413">
        <ele>135</ele>
        <time>2018-03-18T10:39:12.000Z</time>
      </trkpt>
      <trkpt lat="47.63622" lon="-2.11392">
        <ele>134</ele>
        <time>2018-03-18T10:39:19.000Z</time>
      </trkpt>
      <trkpt lat="47.63636" lon="-2.11337">
        <ele>134</ele>
        <time>2018-03-18T10:39:28.000Z</time>
      </trkpt>
      <trkpt lat="47.63651" lon="-2.11288">
        <ele>133</ele>
        <time>2018-03-18T10:39:37.000Z</time>
      </trkpt>
      <trkpt lat="47.63651" lon="-2.11267">
        <ele>131</ele>
        <time>2018-03-18T10:39:41.000Z</time>
      </trkpt>
      <trkpt lat="47.63632" lon="-2.11245">
        <ele>131</ele>
        <time>2018-03-18T10:39:48.000Z</time>
      </trkpt>
      <trkpt lat="47.63606" lon="-2.11208">
        <ele>126</ele>
        <time>2018-03-18T10:40:00.000Z</time>
      </trkpt>
      <trkpt lat="47.63593" lon="-2.11198">
        <ele>126</ele>
        <time>2018-03-18T10:40:05.000Z</time>
      </trkpt>
      <trkpt lat="47.63585" lon="-2.11167">
        <ele>126</ele>
        <time>2018-03-18T10:40:14.000Z</time>
      </trkpt>
      <trkpt lat="47.63582" lon="-2.11112">
        <ele>126</ele>
        <time>2018-03-18T10:40:28.000Z</time>
      </trkpt>
      <trkpt lat="47.63582" lon="-2.11055">
        <ele>123</ele>
        <time>2018-03-18T10:40:39.000Z</time>
      </trkpt>
      <trkpt lat="47.63573" lon="-2.11">
        <ele>124</ele>
        <time>2018-03-18T10:40:50.000Z</time>
      </trkpt>
      <trkpt lat="47.63554" lon="-2.10954">
        <ele>124</ele>
        <time>2018-03-18T10:41:01.000Z</time>
      </trkpt>
      <trkpt lat="47.6353" lon="-2.10914">
        <ele>126</ele>
        <time>2018-03-18T10:41:12.000Z</time>
      </trkpt>
      <trkpt lat="47.63506" lon="-2.1087">
        <ele>126</ele>
        <time>2018-03-18T10:41:24.000Z</time>
      </trkpt>
      <trkpt lat="47.63472" lon="-2.10844">
        <ele>123</ele>
        <time>2018-03-18T10:41:37.000Z</time>
      </trkpt>
      <trkpt lat="47.63433" lon="-2.10844">
        <ele>119</ele>
        <time>2018-03-18T10:41:47.000Z</time>
      </trkpt>
      <trkpt lat="47.63419" lon="-2.10847">
        <ele>116</ele>
        <time>2018-03-18T10:41:58.000Z</time>
      </trkpt>
      <trkpt lat="47.63396" lon="-2.1083">
        <ele>113</ele>
        <time>2018-03-18T10:42:03.000Z</time>
      </trkpt>
      <trkpt lat="47.63359" lon="-2.1082">
        <ele>111</ele>
        <time>2018-03-18T10:42:17.000Z</time>
      </trkpt>
      <trkpt lat="47.63322" lon="-2.10817">
        <ele>112</ele>
        <time>2018-03-18T10:42:33.000Z</time>
      </trkpt>
      <trkpt lat="47.63309" lon="-2.10823">
        <ele>112</ele>
        <time>2018-03-18T10:42:39.000Z</time>
      </trkpt>
      <trkpt lat="47.63297" lon="-2.10858">
        <ele>111</ele>
        <time>2018-03-18T10:42:49.000Z</time>
      </trkpt>
      <trkpt lat="47.63285" lon="-2.10908">
        <ele>112</ele>
        <time>2018-03-18T10:43:04.000Z</time>
      </trkpt>
      <trkpt lat="47.63291" lon="-2.10963">
        <ele>114</ele>
        <time>2018-03-18T10:43:22.000Z</time>
      </trkpt>
      <trkpt lat="47.63301" lon="-2.11013">
        <ele>116</ele>
        <time>2018-03-18T10:43:42.000Z</time>
      </trkpt>
      <trkpt lat="47.63303" lon="-2.11065">
        <ele>121</ele>
        <time>2018-03-18T10:44:05.000Z</time>
      </trkpt>
      <trkpt lat="47.6331" lon="-2.11119">
        <ele>124</ele>
        <time>2018-03-18T10:44:28.000Z</time>
      </trkpt>
      <trkpt lat="47.63321" lon="-2.11172">
        <ele>127</ele>
        <time>2018-03-18T10:44:48.000Z</time>
      </trkpt>
      <trkpt lat="47.63311" lon="-2.11224">
        <ele>129</ele>
        <time>2018-03-18T10:45:10.000Z</time>
      </trkpt>
      <trkpt lat="47.63314" lon="-2.11276">
        <ele>130</ele>
        <time>2018-03-18T10:45:27.000Z</time>
      </trkpt>
      <trkpt lat="47.6331" lon="-2.11324">
        <ele>131</ele>
        <time>2018-03-18T10:45:40.000Z</time>
      </trkpt>
      <trkpt lat="47.63298" lon="-2.1137">
        <ele>131</ele>
        <time>2018-03-18T10:45:47.000Z</time>
      </trkpt>
      <trkpt lat="47.63271" lon="-2.11408">
        <ele>129</ele>
        <time>2018-03-18T10:45:53.000Z</time>
      </trkpt>
      <trkpt lat="47.63252" lon="-2.11431">
        <ele>127</ele>
        <time>2018-03-18T10:45:58.000Z</time>
      </trkpt>
      <trkpt lat="47.63235" lon="-2.1141">
        <ele>126</ele>
        <time>2018-03-18T10:46:09.000Z</time>
      </trkpt>
      <trkpt lat="47.63223" lon="-2.11398">
        <ele>125</ele>
        <time>2018-03-18T10:46:16.000Z</time>
      </trkpt>
      <trkpt lat="47.63199" lon="-2.11394">
        <ele>121</ele>
        <time>2018-03-18T10:46:23.000Z</time>
      </trkpt>
      <trkpt lat="47.63177" lon="-2.11383">
        <ele>119</ele>
        <time>2018-03-18T10:46:29.000Z</time>
      </trkpt>
      <trkpt lat="47.63174" lon="-2.11354">
        <ele>121</ele>
        <time>2018-03-18T10:46:42.000Z</time>
      </trkpt>
      <trkpt lat="47.63161" lon="-2.11332">
        <ele>123</ele>
        <time>2018-03-18T10:46:54.000Z</time>
      </trkpt>
      <trkpt lat="47.63145" lon="-2.11322">
        <ele>124</ele>
        <time>2018-03-18T10:47:03.000Z</time>
      </trkpt>
      <trkpt lat="47.63113" lon="-2.113">
        <ele>127</ele>
        <time>2018-03-18T10:47:23.000Z</time>
      </trkpt>
      <trkpt lat="47.63084" lon="-2.11274">
        <ele>128</ele>
        <time>2018-03-18T10:47:41.000Z</time>
      </trkpt>
      <trkpt lat="47.6306" lon="-2.11254">
        <ele>128</ele>
        <time>2018-03-18T10:47:53.000Z</time>
      </trkpt>
      <trkpt lat="47.63062" lon="-2.11232">
        <ele>129</ele>
        <time>2018-03-18T10:48:00.000Z</time>
      </trkpt>
      <trkpt lat="47.63062" lon="-2.11232">
        <ele>129</ele>
        <time>2018-03-18T10:48:00.000Z</time>
      </trkpt>
      <trkpt lat="47.63063" lon="-2.11226">
        <ele>129</ele>
        <time>2018-03-18T10:48:02.000Z</time>
      </trkpt>
      <trkpt lat="47.63064" lon="-2.1122">
        <ele>129</ele>
        <time>2018-03-18T10:48:04.000Z</time>
      </trkpt>
      <trkpt lat="47.63065" lon="-2.11215">
        <ele>130</ele>
        <time>2018-03-18T10:48:06.000Z</time>
      </trkpt>
      <trkpt lat="47.63065" lon="-2.11209">
        <ele>130</ele>
        <time>2018-03-18T10:48:08.000Z</time>
      </trkpt>
      <trkpt lat="47.63066" lon="-2.11203">
        <ele>130</ele>
        <time>2018-03-18T10:48:10.000Z</time>
      </trkpt>
      <trkpt lat="47.63068" lon="-2.11197">
        <ele>130</ele>
        <time>2018-03-18T10:48:12.000Z</time>
      </trkpt>
      <trkpt lat="47.63071" lon="-2.11192">
        <ele>130</ele>
        <time>2018-03-18T10:48:14.000Z</time>
      </trkpt>
      <trkpt lat="47.63074" lon="-2.11189">
        <ele>130</ele>
        <time>2018-03-18T10:48:16.000Z</time>
      </trkpt>
      <trkpt lat="47.6308" lon="-2.11188">
        <ele>129</ele>
        <time>2018-03-18T10:48:18.000Z</time>
      </trkpt>
      <trkpt lat="47.63121" lon="-2.11201">
        <ele>128</ele>
        <time>2018-03-18T10:48:30.000Z</time>
      </trkpt>
      <trkpt lat="47.63157" lon="-2.11211">
        <ele>126</ele>
        <time>2018-03-18T10:48:39.000Z</time>
      </trkpt>
      <trkpt lat="47.63183" lon="-2.11218">
        <ele>126</ele>
        <time>2018-03-18T10:48:45.000Z</time>
      </trkpt>
      <trkpt lat="47.63195" lon="-2.11226">
        <ele>126</ele>
        <time>2018-03-18T10:48:48.000Z</time>
      </trkpt>
      <trkpt lat="47.63228" lon="-2.11252">
        <ele>125</ele>
        <time>2018-03-18T10:48:56.000Z</time>
      </trkpt>
      <trkpt lat="47.63244" lon="-2.11262">
        <ele>125</ele>
        <time>2018-03-18T10:49:00.000Z</time>
      </trkpt>
      <trkpt lat="47.63266" lon="-2.11247">
        <ele>126</ele>
        <time>2018-03-18T10:49:06.000Z</time>
      </trkpt>
      <trkpt lat="47.6329" lon="-2.11227">
        <ele>126</ele>
        <time>2018-03-18T10:49:13.000Z</time>
      </trkpt>
      <trkpt lat="47.63299" lon="-2.11214">
        <ele>126</ele>
        <time>2018-03-18T10:49:16.000Z</time>
      </trkpt>
      <trkpt lat="47.63308" lon="-2.11171">
        <ele>126</ele>
        <time>2018-03-18T10:49:23.000Z</time>
      </trkpt>
      <trkpt lat="47.63306" lon="-2.1116">
        <ele>126</ele>
        <time>2018-03-18T10:49:25.000Z</time>
      </trkpt>
      <trkpt lat="47.63271" lon="-2.11141">
        <ele>127</ele>
        <time>2018-03-18T10:49:34.000Z</time>
      </trkpt>
      <trkpt lat="47.63235" lon="-2.11126">
        <ele>127</ele>
        <time>2018-03-18T10:49:43.000Z</time>
      </trkpt>
      <trkpt lat="47.632" lon="-2.11115">
        <ele>126</ele>
        <time>2018-03-18T10:49:52.000Z</time>
      </trkpt>
      <trkpt lat="47.63162" lon="-2.11101">
        <ele>127</ele>
        <time>2018-03-18T10:50:02.000Z</time>
      </trkpt>
      <trkpt lat="47.63126" lon="-2.11085">
        <ele>127</ele>
        <time>2018-03-18T10:50:12.000Z</time>
      </trkpt>
      <trkpt lat="47.63089" lon="-2.11066">
        <ele>127</ele>
        <time>2018-03-18T10:50:22.000Z</time>
      </trkpt>
      <trkpt lat="47.63051" lon="-2.11047">
        <ele>126</ele>
        <time>2018-03-18T10:50:32.000Z</time>
      </trkpt>
      <trkpt lat="47.63031" lon="-2.11032">
        <ele>127</ele>
        <time>2018-03-18T10:50:38.000Z</time>
      </trkpt>
      <trkpt lat="47.63033" lon="-2.10999">
        <ele>128</ele>
        <time>2018-03-18T10:50:44.000Z</time>
      </trkpt>
      <trkpt lat="47.63043" lon="-2.10946">
        <ele>129</ele>
        <time>2018-03-18T10:50:51.000Z</time>
      </trkpt>
      <trkpt lat="47.63052" lon="-2.10892">
        <ele>128</ele>
        <time>2018-03-18T10:51:00.000Z</time>
      </trkpt>
      <trkpt lat="47.63055" lon="-2.10863">
        <ele>126</ele>
        <time>2018-03-18T10:51:07.000Z</time>
      </trkpt>
      <trkpt lat="47.63028" lon="-2.10854">
        <ele>125</ele>
        <time>2018-03-18T10:51:19.000Z</time>
      </trkpt>
      <trkpt lat="47.63028" lon="-2.10854">
        <ele>125</ele>
        <time>2018-03-18T10:51:20.000Z</time>
      </trkpt>
      <trkpt lat="47.63007" lon="-2.109">
        <ele>127</ele>
        <time>2018-03-18T10:51:45.000Z</time>
      </trkpt>
      <trkpt lat="47.62986" lon="-2.10941">
        <ele>130</ele>
        <time>2018-03-18T10:52:07.000Z</time>
      </trkpt>
      <trkpt lat="47.62978" lon="-2.10974">
        <ele>134</ele>
        <time>2018-03-18T10:52:21.000Z</time>
      </trkpt>
      <trkpt lat="47.62963" lon="-2.10981">
        <ele>137</ele>
        <time>2018-03-18T10:52:30.000Z</time>
      </trkpt>
      <trkpt lat="47.62931" lon="-2.11001">
        <ele>135</ele>
        <time>2018-03-18T10:52:42.000Z</time>
      </trkpt>
      <trkpt lat="47.62925" lon="-2.11016">
        <ele>133</ele>
        <time>2018-03-18T10:52:49.000Z</time>
      </trkpt>
      <trkpt lat="47.6296" lon="-2.11032">
        <ele>135</ele>
        <time>2018-03-18T10:53:07.000Z</time>
      </trkpt>
      <trkpt lat="47.62992" lon="-2.11053">
        <ele>136</ele>
        <time>2018-03-18T10:53:24.000Z</time>
      </trkpt>
      <trkpt lat="47.63011" lon="-2.11071">
        <ele>137</ele>
        <time>2018-03-18T10:53:32.000Z</time>
      </trkpt>
      <trkpt lat="47.63014" lon="-2.11094">
        <ele>135</ele>
        <time>2018-03-18T10:53:38.000Z</time>
      </trkpt>
      <trkpt lat="47.63013" lon="-2.1115">
        <ele>133</ele>
        <time>2018-03-18T10:53:51.000Z</time>
      </trkpt>
      <trkpt lat="47.63006" lon="-2.11184">
        <ele>132</ele>
        <time>2018-03-18T10:53:57.000Z</time>
      </trkpt>
      <trkpt lat="47.62996" lon="-2.11198">
        <ele>132</ele>
        <time>2018-03-18T10:54:00.000Z</time>
      </trkpt>
      <trkpt lat="47.62986" lon="-2.11199">
        <ele>132</ele>
        <time>2018-03-18T10:54:02.000Z</time>
      </trkpt>
      <trkpt lat="47.62957" lon="-2.11191">
        <ele>133</ele>
        <time>2018-03-18T10:54:10.000Z</time>
      </trkpt>
      <trkpt lat="47.6292" lon="-2.11182">
        <ele>134</ele>
        <time>2018-03-18T10:54:21.000Z</time>
      </trkpt>
      <trkpt lat="47.6292" lon="-2.11182">
        <ele>134</ele>
        <time>2018-03-18T10:54:22.000Z</time>
      </trkpt>
      <trkpt lat="47.62954" lon="-2.11218">
        <ele>135</ele>
        <time>2018-03-18T10:55:38.000Z</time>
      </trkpt>
      <trkpt lat="47.62986" lon="-2.11236">
        <ele>133</ele>
        <time>2018-03-18T10:55:55.000Z</time>
      </trkpt>
      <trkpt lat="47.62989" lon="-2.11261">
        <ele>132</ele>
        <time>2018-03-18T10:56:04.000Z</time>
      </trkpt>
      <trkpt lat="47.62952" lon="-2.11248">
        <ele>133</ele>
        <time>2018-03-18T10:56:20.000Z</time>
      </trkpt>
      <trkpt lat="47.62952" lon="-2.11248">
        <ele>133</ele>
        <time>2018-03-18T10:56:20.000Z</time>
      </trkpt>
      <trkpt lat="47.62948" lon="-2.11247">
        <ele>133</ele>
        <time>2018-03-18T10:56:22.000Z</time>
      </trkpt>
      <trkpt lat="47.62945" lon="-2.11248">
        <ele>133</ele>
        <time>2018-03-18T10:56:24.000Z</time>
      </trkpt>
      <trkpt lat="47.6294" lon="-2.11249">
        <ele>133</ele>
        <time>2018-03-18T10:56:26.000Z</time>
      </trkpt>
      <trkpt lat="47.62933" lon="-2.11249">
        <ele>134</ele>
        <time>2018-03-18T10:56:28.000Z</time>
      </trkpt>
      <trkpt lat="47.6293" lon="-2.11248">
        <ele>134</ele>
        <time>2018-03-18T10:56:29.000Z</time>
      </trkpt>
      <trkpt lat="47.62925" lon="-2.11246">
        <ele>134</ele>
        <time>2018-03-18T10:56:31.000Z</time>
      </trkpt>
      <trkpt lat="47.62922" lon="-2.11248">
        <ele>134</ele>
        <time>2018-03-18T10:56:33.000Z</time>
      </trkpt>
      <trkpt lat="47.62921" lon="-2.11252">
        <ele>134</ele>
        <time>2018-03-18T10:56:35.000Z</time>
      </trkpt>
      <trkpt lat="47.62923" lon="-2.11259">
        <ele>133</ele>
        <time>2018-03-18T10:56:37.000Z</time>
      </trkpt>
      <trkpt lat="47.62924" lon="-2.11263">
        <ele>133</ele>
        <time>2018-03-18T10:56:38.000Z</time>
      </trkpt>
      <trkpt lat="47.62928" lon="-2.11269">
        <ele>134</ele>
        <time>2018-03-18T10:56:40.000Z</time>
      </trkpt>
      <trkpt lat="47.6293" lon="-2.11273">
        <ele>134</ele>
        <time>2018-03-18T10:56:41.000Z</time>
      </trkpt>
      <trkpt lat="47.62932" lon="-2.11276">
        <ele>134</ele>
        <time>2018-03-18T10:56:42.000Z</time>
      </trkpt>
      <trkpt lat="47.62935" lon="-2.11277">
        <ele>134</ele>
        <time>2018-03-18T10:56:43.000Z</time>
      </trkpt>
      <trkpt lat="47.62938" lon="-2.11279">
        <ele>134</ele>
        <time>2018-03-18T10:56:45.000Z</time>
      </trkpt>
      <trkpt lat="47.62942" lon="-2.11278">
        <ele>133</ele>
        <time>2018-03-18T10:56:47.000Z</time>
      </trkpt>
      <trkpt lat="47.62946" lon="-2.11277">
        <ele>134</ele>
        <time>2018-03-18T10:56:49.000Z</time>
      </trkpt>
      <trkpt lat="47.62951" lon="-2.11276">
        <ele>134</ele>
        <time>2018-03-18T10:56:51.000Z</time>
      </trkpt>
      <trkpt lat="47.62956" lon="-2.11276">
        <ele>134</ele>
        <time>2018-03-18T10:56:53.000Z</time>
      </trkpt>
      <trkpt lat="47.6296" lon="-2.11277">
        <ele>134</ele>
        <time>2018-03-18T10:56:55.000Z</time>
      </trkpt>
      <trkpt lat="47.62961" lon="-2.11282">
        <ele>133</ele>
        <time>2018-03-18T10:56:57.000Z</time>
      </trkpt>
      <trkpt lat="47.62962" lon="-2.1129">
        <ele>132</ele>
        <time>2018-03-18T10:56:59.000Z</time>
      </trkpt>
      <trkpt lat="47.62961" lon="-2.11295">
        <ele>132</ele>
        <time>2018-03-18T10:57:00.000Z</time>
      </trkpt>
      <trkpt lat="47.62958" lon="-2.1135">
        <ele>130</ele>
        <time>2018-03-18T10:57:11.000Z</time>
      </trkpt>
      <trkpt lat="47.62944" lon="-2.11403">
        <ele>127</ele>
        <time>2018-03-18T10:57:19.000Z</time>
      </trkpt>
      <trkpt lat="47.62942" lon="-2.11409">
        <ele>125</ele>
        <time>2018-03-18T10:57:20.000Z</time>
      </trkpt>
      <trkpt lat="47.6294" lon="-2.11416">
        <ele>124</ele>
        <time>2018-03-18T10:57:21.000Z</time>
      </trkpt>
      <trkpt lat="47.62938" lon="-2.1142">
        <ele>124</ele>
        <time>2018-03-18T10:57:22.000Z</time>
      </trkpt>
      <trkpt lat="47.62934" lon="-2.11423">
        <ele>122</ele>
        <time>2018-03-18T10:57:24.000Z</time>
      </trkpt>
      <trkpt lat="47.6293" lon="-2.11424">
        <ele>121</ele>
        <time>2018-03-18T10:57:27.000Z</time>
      </trkpt>
      <trkpt lat="47.62926" lon="-2.11424">
        <ele>121</ele>
        <time>2018-03-18T10:57:29.000Z</time>
      </trkpt>
      <trkpt lat="47.62925" lon="-2.11421">
        <ele>122</ele>
        <time>2018-03-18T10:57:31.000Z</time>
      </trkpt>
      <trkpt lat="47.62922" lon="-2.11417">
        <ele>122</ele>
        <time>2018-03-18T10:57:33.000Z</time>
      </trkpt>
      <trkpt lat="47.6292" lon="-2.11413">
        <ele>122</ele>
        <time>2018-03-18T10:57:35.000Z</time>
      </trkpt>
      <trkpt lat="47.62918" lon="-2.11408">
        <ele>122</ele>
        <time>2018-03-18T10:57:37.000Z</time>
      </trkpt>
      <trkpt lat="47.62917" lon="-2.11401">
        <ele>122</ele>
        <time>2018-03-18T10:57:39.000Z</time>
      </trkpt>
      <trkpt lat="47.62915" lon="-2.11397">
        <ele>122</ele>
        <time>2018-03-18T10:57:41.000Z</time>
      </trkpt>
      <trkpt lat="47.62914" lon="-2.11391">
        <ele>122</ele>
        <time>2018-03-18T10:57:43.000Z</time>
      </trkpt>
      <trkpt lat="47.62913" lon="-2.11387">
        <ele>123</ele>
        <time>2018-03-18T10:57:45.000Z</time>
      </trkpt>
      <trkpt lat="47.62895" lon="-2.11334">
        <ele>124</ele>
        <time>2018-03-18T10:58:11.000Z</time>
      </trkpt>
      <trkpt lat="47.62888" lon="-2.11285">
        <ele>125</ele>
        <time>2018-03-18T10:58:39.000Z</time>
      </trkpt>
      <trkpt lat="47.62879" lon="-2.11235">
        <ele>129</ele>
        <time>2018-03-18T10:59:02.000Z</time>
      </trkpt>
      <trkpt lat="47.62877" lon="-2.11183">
        <ele>130</ele>
        <time>2018-03-18T10:59:23.000Z</time>
      </trkpt>
      <trkpt lat="47.62871" lon="-2.11131">
        <ele>134</ele>
        <time>2018-03-18T10:59:44.000Z</time>
      </trkpt>
      <trkpt lat="47.62868" lon="-2.11114">
        <ele>135</ele>
        <time>2018-03-18T10:59:50.000Z</time>
      </trkpt>
      <trkpt lat="47.62842" lon="-2.11099">
        <ele>133</ele>
        <time>2018-03-18T11:00:01.000Z</time>
      </trkpt>
      <trkpt lat="47.62839" lon="-2.11082">
        <ele>133</ele>
        <time>2018-03-18T11:00:09.000Z</time>
      </trkpt>
      <trkpt lat="47.62853" lon="-2.11058">
        <ele>132</ele>
        <time>2018-03-18T11:00:18.000Z</time>
      </trkpt>
      <trkpt lat="47.62851" lon="-2.11044">
        <ele>130</ele>
        <time>2018-03-18T11:00:26.000Z</time>
      </trkpt>
      <trkpt lat="47.62816" lon="-2.11063">
        <ele>133</ele>
        <time>2018-03-18T11:00:37.000Z</time>
      </trkpt>
      <trkpt lat="47.62786" lon="-2.11093">
        <ele>128</ele>
        <time>2018-03-18T11:00:45.000Z</time>
      </trkpt>
      <trkpt lat="47.62787" lon="-2.11104">
        <ele>127</ele>
        <time>2018-03-18T11:00:49.000Z</time>
      </trkpt>
      <trkpt lat="47.6282" lon="-2.111">
        <ele>128</ele>
        <time>2018-03-18T11:01:05.000Z</time>
      </trkpt>
      <trkpt lat="47.62819" lon="-2.11119">
        <ele>128</ele>
        <time>2018-03-18T11:01:15.000Z</time>
      </trkpt>
      <trkpt lat="47.62787" lon="-2.11124">
        <ele>127</ele>
        <time>2018-03-18T11:01:24.000Z</time>
      </trkpt>
      <trkpt lat="47.62775" lon="-2.11136">
        <ele>127</ele>
        <time>2018-03-18T11:01:30.000Z</time>
      </trkpt>
      <trkpt lat="47.62772" lon="-2.11172">
        <ele>127</ele>
        <time>2018-03-18T11:01:42.000Z</time>
      </trkpt>
      <trkpt lat="47.62804" lon="-2.11197">
        <ele>126</ele>
        <time>2018-03-18T11:01:54.000Z</time>
      </trkpt>
      <trkpt lat="47.62821" lon="-2.11224">
        <ele>126</ele>
        <time>2018-03-18T11:02:01.000Z</time>
      </trkpt>
      <trkpt lat="47.62817" lon="-2.11244">
        <ele>125</ele>
        <time>2018-03-18T11:02:07.000Z</time>
      </trkpt>
      <trkpt lat="47.62817" lon="-2.11244">
        <ele>125</ele>
        <time>2018-03-18T11:02:07.000Z</time>
      </trkpt>
      <trkpt lat="47.62817" lon="-2.11249">
        <ele>124</ele>
        <time>2018-03-18T11:02:08.000Z</time>
      </trkpt>
      <trkpt lat="47.62817" lon="-2.11254">
        <ele>124</ele>
        <time>2018-03-18T11:02:09.000Z</time>
      </trkpt>
      <trkpt lat="47.62817" lon="-2.11259">
        <ele>124</ele>
        <time>2018-03-18T11:02:10.000Z</time>
      </trkpt>
      <trkpt lat="47.62817" lon="-2.11263">
        <ele>123</ele>
        <time>2018-03-18T11:02:11.000Z</time>
      </trkpt>
      <trkpt lat="47.62815" lon="-2.11268">
        <ele>123</ele>
        <time>2018-03-18T11:02:12.000Z</time>
      </trkpt>
      <trkpt lat="47.62812" lon="-2.11278">
        <ele>122</ele>
        <time>2018-03-18T11:02:14.000Z</time>
      </trkpt>
      <trkpt lat="47.6281" lon="-2.11281">
        <ele>122</ele>
        <time>2018-03-18T11:02:15.000Z</time>
      </trkpt>
      <trkpt lat="47.62806" lon="-2.11281">
        <ele>122</ele>
        <time>2018-03-18T11:02:17.000Z</time>
      </trkpt>
      <trkpt lat="47.62803" lon="-2.11279">
        <ele>122</ele>
        <time>2018-03-18T11:02:19.000Z</time>
      </trkpt>
      <trkpt lat="47.62801" lon="-2.11278">
        <ele>122</ele>
        <time>2018-03-18T11:02:21.000Z</time>
      </trkpt>
      <trkpt lat="47.62799" lon="-2.11281">
        <ele>122</ele>
        <time>2018-03-18T11:02:24.000Z</time>
      </trkpt>
      <trkpt lat="47.62801" lon="-2.11285">
        <ele>122</ele>
        <time>2018-03-18T11:02:26.000Z</time>
      </trkpt>
      <trkpt lat="47.62797" lon="-2.11315">
        <ele>120</ele>
        <time>2018-03-18T11:02:33.000Z</time>
      </trkpt>
      <trkpt lat="47.62817" lon="-2.11343">
        <ele>115</ele>
        <time>2018-03-18T11:02:42.000Z</time>
      </trkpt>
      <trkpt lat="47.62841" lon="-2.11386">
        <ele>108</ele>
        <time>2018-03-18T11:02:55.000Z</time>
      </trkpt>
      <trkpt lat="47.62855" lon="-2.11431">
        <ele>107</ele>
        <time>2018-03-18T11:03:07.000Z</time>
      </trkpt>
      <trkpt lat="47.62882" lon="-2.1146">
        <ele>108</ele>
        <time>2018-03-18T11:03:19.000Z</time>
      </trkpt>
      <trkpt lat="47.62896" lon="-2.11478">
        <ele>108</ele>
        <time>2018-03-18T11:03:25.000Z</time>
      </trkpt>
      <trkpt lat="47.62918" lon="-2.11453">
        <ele>108</ele>
        <time>2018-03-18T11:03:42.000Z</time>
      </trkpt>
      <trkpt lat="47.62924" lon="-2.11468">
        <ele>108</ele>
        <time>2018-03-18T11:03:48.000Z</time>
      </trkpt>
      <trkpt lat="47.62905" lon="-2.11503">
        <ele>106</ele>
        <time>2018-03-18T11:03:54.000Z</time>
      </trkpt>
      <trkpt lat="47.62891" lon="-2.11529">
        <ele>104</ele>
        <time>2018-03-18T11:04:02.000Z</time>
      </trkpt>
      <trkpt lat="47.62872" lon="-2.11512">
        <ele>105</ele>
        <time>2018-03-18T11:04:16.000Z</time>
      </trkpt>
      <trkpt lat="47.62843" lon="-2.1148">
        <ele>107</ele>
        <time>2018-03-18T11:04:30.000Z</time>
      </trkpt>
      <trkpt lat="47.6283" lon="-2.11433">
        <ele>109</ele>
        <time>2018-03-18T11:04:47.000Z</time>
      </trkpt>
      <trkpt lat="47.62801" lon="-2.11408">
        <ele>108</ele>
        <time>2018-03-18T11:05:04.000Z</time>
      </trkpt>
      <trkpt lat="47.62797" lon="-2.11405">
        <ele>108</ele>
        <time>2018-03-18T11:05:06.000Z</time>
      </trkpt>
      <trkpt lat="47.62792" lon="-2.11402">
        <ele>107</ele>
        <time>2018-03-18T11:05:08.000Z</time>
      </trkpt>
      <trkpt lat="47.6279" lon="-2.11397">
        <ele>107</ele>
        <time>2018-03-18T11:05:10.000Z</time>
      </trkpt>
      <trkpt lat="47.6279" lon="-2.11393">
        <ele>107</ele>
        <time>2018-03-18T11:05:12.000Z</time>
      </trkpt>
      <trkpt lat="47.6279" lon="-2.11385">
        <ele>107</ele>
        <time>2018-03-18T11:05:15.000Z</time>
      </trkpt>
      <trkpt lat="47.62792" lon="-2.11381">
        <ele>107</ele>
        <time>2018-03-18T11:05:17.000Z</time>
      </trkpt>
      <trkpt lat="47.62793" lon="-2.11377">
        <ele>107</ele>
        <time>2018-03-18T11:05:19.000Z</time>
      </trkpt>
      <trkpt lat="47.62791" lon="-2.11372">
        <ele>107</ele>
        <time>2018-03-18T11:05:22.000Z</time>
      </trkpt>
      <trkpt lat="47.62789" lon="-2.1137">
        <ele>107</ele>
        <time>2018-03-18T11:05:24.000Z</time>
      </trkpt>
      <trkpt lat="47.62786" lon="-2.11367">
        <ele>107</ele>
        <time>2018-03-18T11:05:26.000Z</time>
      </trkpt>
      <trkpt lat="47.62775" lon="-2.11313">
        <ele>114</ele>
        <time>2018-03-18T11:05:55.000Z</time>
      </trkpt>
      <trkpt lat="47.62766" lon="-2.11291">
        <ele>117</ele>
        <time>2018-03-18T11:06:15.000Z</time>
      </trkpt>
      <trkpt lat="47.6274" lon="-2.1132">
        <ele>115</ele>
        <time>2018-03-18T11:06:25.000Z</time>
      </trkpt>
      <trkpt lat="47.6274" lon="-2.1132">
        <ele>115</ele>
        <time>2018-03-18T11:06:26.000Z</time>
      </trkpt>
      <trkpt lat="47.62742" lon="-2.11278">
        <ele>115</ele>
        <time>2018-03-18T11:07:12.000Z</time>
      </trkpt>
      <trkpt lat="47.62763" lon="-2.11236">
        <ele>119</ele>
        <time>2018-03-18T11:07:39.000Z</time>
      </trkpt>
      <trkpt lat="47.62753" lon="-2.11187">
        <ele>125</ele>
        <time>2018-03-18T11:08:06.000Z</time>
      </trkpt>
      <trkpt lat="47.62726" lon="-2.11154">
        <ele>128</ele>
        <time>2018-03-18T11:08:26.000Z</time>
      </trkpt>
      <trkpt lat="47.62697" lon="-2.11123">
        <ele>129</ele>
        <time>2018-03-18T11:08:39.000Z</time>
      </trkpt>
      <trkpt lat="47.62678" lon="-2.11076">
        <ele>130</ele>
        <time>2018-03-18T11:08:49.000Z</time>
      </trkpt>
      <trkpt lat="47.6267" lon="-2.11024">
        <ele>128</ele>
        <time>2018-03-18T11:08:57.000Z</time>
      </trkpt>
      <trkpt lat="47.62656" lon="-2.10972">
        <ele>127</ele>
        <time>2018-03-18T11:09:04.000Z</time>
      </trkpt>
      <trkpt lat="47.62654" lon="-2.10948">
        <ele>125</ele>
        <time>2018-03-18T11:09:09.000Z</time>
      </trkpt>
      <trkpt lat="47.6262" lon="-2.10966">
        <ele>118</ele>
        <time>2018-03-18T11:09:20.000Z</time>
      </trkpt>
      <trkpt lat="47.62603" lon="-2.10978">
        <ele>115</ele>
        <time>2018-03-18T11:09:26.000Z</time>
      </trkpt>
      <trkpt lat="47.62598" lon="-2.11002">
        <ele>114</ele>
        <time>2018-03-18T11:09:33.000Z</time>
      </trkpt>
      <trkpt lat="47.62574" lon="-2.11038">
        <ele>115</ele>
        <time>2018-03-18T11:09:45.000Z</time>
      </trkpt>
      <trkpt lat="47.62543" lon="-2.11061">
        <ele>115</ele>
        <time>2018-03-18T11:09:57.000Z</time>
      </trkpt>
      <trkpt lat="47.62521" lon="-2.11099">
        <ele>116</ele>
        <time>2018-03-18T11:10:08.000Z</time>
      </trkpt>
      <trkpt lat="47.62535" lon="-2.11146">
        <ele>116</ele>
        <time>2018-03-18T11:10:27.000Z</time>
      </trkpt>
      <trkpt lat="47.62568" lon="-2.1116">
        <ele>120</ele>
        <time>2018-03-18T11:10:46.000Z</time>
      </trkpt>
      <trkpt lat="47.62598" lon="-2.11144">
        <ele>121</ele>
        <time>2018-03-18T11:11:05.000Z</time>
      </trkpt>
      <trkpt lat="47.62632" lon="-2.11159">
        <ele>124</ele>
        <time>2018-03-18T11:11:22.000Z</time>
      </trkpt>
      <trkpt lat="47.62635" lon="-2.1119">
        <ele>123</ele>
        <time>2018-03-18T11:11:32.000Z</time>
      </trkpt>
      <trkpt lat="47.62608" lon="-2.11199">
        <ele>122</ele>
        <time>2018-03-18T11:11:39.000Z</time>
      </trkpt>
      <trkpt lat="47.62593" lon="-2.11206">
        <ele>120</ele>
        <time>2018-03-18T11:11:42.000Z</time>
      </trkpt>
      <trkpt lat="47.62579" lon="-2.11232">
        <ele>119</ele>
        <time>2018-03-18T11:11:47.000Z</time>
      </trkpt>
      <trkpt lat="47.62546" lon="-2.11214">
        <ele>117</ele>
        <time>2018-03-18T11:12:04.000Z</time>
      </trkpt>
      <trkpt lat="47.62521" lon="-2.11189">
        <ele>116</ele>
        <time>2018-03-18T11:12:16.000Z</time>
      </trkpt>
      <trkpt lat="47.62512" lon="-2.11196">
        <ele>115</ele>
        <time>2018-03-18T11:12:22.000Z</time>
      </trkpt>
      <trkpt lat="47.62496" lon="-2.11196">
        <ele>115</ele>
        <time>2018-03-18T11:12:29.000Z</time>
      </trkpt>
      <trkpt lat="47.62479" lon="-2.11213">
        <ele>113</ele>
        <time>2018-03-18T11:12:38.000Z</time>
      </trkpt>
      <trkpt lat="47.6245" lon="-2.11246">
        <ele>107</ele>
        <time>2018-03-18T11:12:49.000Z</time>
      </trkpt>
      <trkpt lat="47.62438" lon="-2.11265">
        <ele>104</ele>
        <time>2018-03-18T11:12:59.000Z</time>
      </trkpt>
      <trkpt lat="47.62446" lon="-2.11303">
        <ele>104</ele>
        <time>2018-03-18T11:13:08.000Z</time>
      </trkpt>
      <trkpt lat="47.62463" lon="-2.11354">
        <ele>101</ele>
        <time>2018-03-18T11:13:12.000Z</time>
      </trkpt>
      <trkpt lat="47.62463" lon="-2.11354">
        <ele>101</ele>
        <time>2018-03-18T11:13:13.000Z</time>
      </trkpt>
      <trkpt lat="47.62489" lon="-2.11408">
        <ele>97</ele>
        <time>2018-03-18T11:13:18.000Z</time>
      </trkpt>
      <trkpt lat="47.62513" lon="-2.1145">
        <ele>95</ele>
        <time>2018-03-18T11:13:22.000Z</time>
      </trkpt>
      <trkpt lat="47.6254" lon="-2.11486">
        <ele>92</ele>
        <time>2018-03-18T11:13:26.000Z</time>
      </trkpt>
      <trkpt lat="47.62569" lon="-2.11524">
        <ele>82</ele>
        <time>2018-03-18T11:13:32.000Z</time>
      </trkpt>
      <trkpt lat="47.62585" lon="-2.11559">
        <ele>77</ele>
        <time>2018-03-18T11:13:37.000Z</time>
      </trkpt>
      <trkpt lat="47.6259" lon="-2.11579">
        <ele>76</ele>
        <time>2018-03-18T11:13:39.000Z</time>
      </trkpt>
      <trkpt lat="47.62589" lon="-2.11604">
        <ele>72</ele>
        <time>2018-03-18T11:13:41.000Z</time>
      </trkpt>
      <trkpt lat="47.62585" lon="-2.11646">
        <ele>67</ele>
        <time>2018-03-18T11:13:44.000Z</time>
      </trkpt>
      <trkpt lat="47.6259" lon="-2.11701">
        <ele>63</ele>
        <time>2018-03-18T11:13:49.000Z</time>
      </trkpt>
      <trkpt lat="47.626" lon="-2.11754">
        <ele>63</ele>
        <time>2018-03-18T11:13:58.000Z</time>
      </trkpt>
      <trkpt lat="47.62611" lon="-2.11804">
        <ele>64</ele>
        <time>2018-03-18T11:14:09.000Z</time>
      </trkpt>
      <trkpt lat="47.62611" lon="-2.11804">
        <ele>64</ele>
        <time>2018-03-18T11:14:10.000Z</time>
      </trkpt>
      <trkpt lat="47.6261" lon="-2.11815">
        <ele>65</ele>
        <time>2018-03-18T11:14:35.000Z</time>
      </trkpt>
      <trkpt lat="47.62595" lon="-2.11765">
        <ele>66</ele>
        <time>2018-03-18T11:14:49.000Z</time>
      </trkpt>
      <trkpt lat="47.62587" lon="-2.11713">
        <ele>67</ele>
        <time>2018-03-18T11:15:01.000Z</time>
      </trkpt>
      <trkpt lat="47.62578" lon="-2.1166">
        <ele>65</ele>
        <time>2018-03-18T11:15:17.000Z</time>
      </trkpt>
      <trkpt lat="47.62577" lon="-2.11625">
        <ele>67</ele>
        <time>2018-03-18T11:15:27.000Z</time>
      </trkpt>
      <trkpt lat="47.6256" lon="-2.11612">
        <ele>65</ele>
        <time>2018-03-18T11:15:33.000Z</time>
      </trkpt>
      <trkpt lat="47.62528" lon="-2.11587">
        <ele>63</ele>
        <time>2018-03-18T11:15:41.000Z</time>
      </trkpt>
      <trkpt lat="47.62508" lon="-2.11563">
        <ele>61</ele>
        <time>2018-03-18T11:15:45.000Z</time>
      </trkpt>
      <trkpt lat="47.62494" lon="-2.11556">
        <ele>61</ele>
        <time>2018-03-18T11:15:47.000Z</time>
      </trkpt>
      <trkpt lat="47.62494" lon="-2.11556">
        <ele>61</ele>
        <time>2018-03-18T11:15:47.000Z</time>
      </trkpt>
      <trkpt lat="47.62486" lon="-2.11554">
        <ele>61</ele>
        <time>2018-03-18T11:15:48.000Z</time>
      </trkpt>
      <trkpt lat="47.62479" lon="-2.11553">
        <ele>61</ele>
        <time>2018-03-18T11:15:49.000Z</time>
      </trkpt>
      <trkpt lat="47.62465" lon="-2.11552">
        <ele>62</ele>
        <time>2018-03-18T11:15:51.000Z</time>
      </trkpt>
      <trkpt lat="47.62462" lon="-2.11556">
        <ele>61</ele>
        <time>2018-03-18T11:15:52.000Z</time>
      </trkpt>
      <trkpt lat="47.62461" lon="-2.11562">
        <ele>61</ele>
        <time>2018-03-18T11:15:53.000Z</time>
      </trkpt>
      <trkpt lat="47.62462" lon="-2.1157">
        <ele>61</ele>
        <time>2018-03-18T11:15:54.000Z</time>
      </trkpt>
      <trkpt lat="47.62462" lon="-2.11578">
        <ele>61</ele>
        <time>2018-03-18T11:15:55.000Z</time>
      </trkpt>
      <trkpt lat="47.6243" lon="-2.11611">
        <ele>62</ele>
        <time>2018-03-18T11:16:08.000Z</time>
      </trkpt>
      <trkpt lat="47.62395" lon="-2.11628">
        <ele>61</ele>
        <time>2018-03-18T11:16:21.000Z</time>
      </trkpt>
      <trkpt lat="47.62363" lon="-2.11653">
        <ele>60</ele>
        <time>2018-03-18T11:16:35.000Z</time>
      </trkpt>
      <trkpt lat="47.6234" lon="-2.11697">
        <ele>63</ele>
        <time>2018-03-18T11:16:52.000Z</time>
      </trkpt>
      <trkpt lat="47.6232" lon="-2.11744">
        <ele>65</ele>
        <time>2018-03-18T11:17:11.000Z</time>
      </trkpt>
      <trkpt lat="47.62306" lon="-2.11794">
        <ele>68</ele>
        <time>2018-03-18T11:17:27.000Z</time>
      </trkpt>
      <trkpt lat="47.62294" lon="-2.11848">
        <ele>69</ele>
        <time>2018-03-18T11:17:40.000Z</time>
      </trkpt>
      <trkpt lat="47.62282" lon="-2.11899">
        <ele>70</ele>
        <time>2018-03-18T11:17:52.000Z</time>
      </trkpt>
      <trkpt lat="47.62276" lon="-2.11929">
        <ele>71</ele>
        <time>2018-03-18T11:17:59.000Z</time>
      </trkpt>
      <trkpt lat="47.62275" lon="-2.11955">
        <ele>72</ele>
        <time>2018-03-18T11:18:05.000Z</time>
      </trkpt>
      <trkpt lat="47.62272" lon="-2.11979">
        <ele>71</ele>
        <time>2018-03-18T11:18:10.000Z</time>
      </trkpt>
      <trkpt lat="47.6227" lon="-2.12014">
        <ele>72</ele>
        <time>2018-03-18T11:18:16.000Z</time>
      </trkpt>
      <trkpt lat="47.62268" lon="-2.12035">
        <ele>72</ele>
        <time>2018-03-18T11:18:19.000Z</time>
      </trkpt>
      <trkpt lat="47.62262" lon="-2.12069">
        <ele>71</ele>
        <time>2018-03-18T11:18:23.000Z</time>
      </trkpt>
      <trkpt lat="47.62253" lon="-2.12105">
        <ele>70</ele>
        <time>2018-03-18T11:18:27.000Z</time>
      </trkpt>
      <trkpt lat="47.62245" lon="-2.12118">
        <ele>70</ele>
        <time>2018-03-18T11:18:29.000Z</time>
      </trkpt>
      <trkpt lat="47.62225" lon="-2.12145">
        <ele>70</ele>
        <time>2018-03-18T11:18:34.000Z</time>
      </trkpt>
      <trkpt lat="47.6222" lon="-2.12157">
        <ele>69</ele>
        <time>2018-03-18T11:18:36.000Z</time>
      </trkpt>
      <trkpt lat="47.6222" lon="-2.12157">
        <ele>69</ele>
        <time>2018-03-18T11:18:36.000Z</time>
      </trkpt>
      <trkpt lat="47.62218" lon="-2.12163">
        <ele>69</ele>
        <time>2018-03-18T11:18:37.000Z</time>
      </trkpt>
      <trkpt lat="47.62217" lon="-2.1217">
        <ele>70</ele>
        <time>2018-03-18T11:18:38.000Z</time>
      </trkpt>
      <trkpt lat="47.62216" lon="-2.12177">
        <ele>69</ele>
        <time>2018-03-18T11:18:39.000Z</time>
      </trkpt>
      <trkpt lat="47.62217" lon="-2.12182">
        <ele>69</ele>
        <time>2018-03-18T11:18:40.000Z</time>
      </trkpt>
      <trkpt lat="47.62225" lon="-2.12185">
        <ele>69</ele>
        <time>2018-03-18T11:18:42.000Z</time>
      </trkpt>
      <trkpt lat="47.6223" lon="-2.12185">
        <ele>69</ele>
        <time>2018-03-18T11:18:43.000Z</time>
      </trkpt>
      <trkpt lat="47.62234" lon="-2.12183">
        <ele>70</ele>
        <time>2018-03-18T11:18:44.000Z</time>
      </trkpt>
      <trkpt lat="47.62238" lon="-2.12181">
        <ele>70</ele>
        <time>2018-03-18T11:18:45.000Z</time>
      </trkpt>
      <trkpt lat="47.62243" lon="-2.1218">
        <ele>70</ele>
        <time>2018-03-18T11:18:46.000Z</time>
      </trkpt>
      <trkpt lat="47.62247" lon="-2.1218">
        <ele>70</ele>
        <time>2018-03-18T11:18:47.000Z</time>
      </trkpt>
      <trkpt lat="47.62251" lon="-2.12179">
        <ele>70</ele>
        <time>2018-03-18T11:18:48.000Z</time>
      </trkpt>
      <trkpt lat="47.62289" lon="-2.12196">
        <ele>71</ele>
        <time>2018-03-18T11:19:02.000Z</time>
      </trkpt>
      <trkpt lat="47.62325" lon="-2.12211">
        <ele>73</ele>
        <time>2018-03-18T11:19:16.000Z</time>
      </trkpt>
      <trkpt lat="47.6236" lon="-2.12224">
        <ele>75</ele>
        <time>2018-03-18T11:19:30.000Z</time>
      </trkpt>
      <trkpt lat="47.62377" lon="-2.1223">
        <ele>76</ele>
        <time>2018-03-18T11:19:36.000Z</time>
      </trkpt>
      <trkpt lat="47.62396" lon="-2.12235">
        <ele>76</ele>
        <time>2018-03-18T11:19:43.000Z</time>
      </trkpt>
      <trkpt lat="47.62433" lon="-2.12242">
        <ele>77</ele>
        <time>2018-03-18T11:19:56.000Z</time>
      </trkpt>
      <trkpt lat="47.62456" lon="-2.12247">
        <ele>77</ele>
        <time>2018-03-18T11:20:04.000Z</time>
      </trkpt>
      <trkpt lat="47.6247" lon="-2.12245">
        <ele>77</ele>
        <time>2018-03-18T11:20:11.000Z</time>
      </trkpt>
      <trkpt lat="47.62473" lon="-2.1219">
        <ele>81</ele>
        <time>2018-03-18T11:20:29.000Z</time>
      </trkpt>
      <trkpt lat="47.62474" lon="-2.12136">
        <ele>82</ele>
        <time>2018-03-18T11:20:40.000Z</time>
      </trkpt>
      <trkpt lat="47.62481" lon="-2.12087">
        <ele>80</ele>
        <time>2018-03-18T11:20:59.000Z</time>
      </trkpt>
      <trkpt lat="47.62487" lon="-2.12039">
        <ele>77</ele>
        <time>2018-03-18T11:21:11.000Z</time>
      </trkpt>
      <trkpt lat="47.62492" lon="-2.12021">
        <ele>76</ele>
        <time>2018-03-18T11:21:14.000Z</time>
      </trkpt>
      <trkpt lat="47.62511" lon="-2.12006">
        <ele>73</ele>
        <time>2018-03-18T11:21:19.000Z</time>
      </trkpt>
      <trkpt lat="47.62524" lon="-2.12009">
        <ele>71</ele>
        <time>2018-03-18T11:21:22.000Z</time>
      </trkpt>
      <trkpt lat="47.62534" lon="-2.12045">
        <ele>71</ele>
        <time>2018-03-18T11:21:31.000Z</time>
      </trkpt>
      <trkpt lat="47.62532" lon="-2.12099">
        <ele>69</ele>
        <time>2018-03-18T11:21:42.000Z</time>
      </trkpt>
      <trkpt lat="47.62524" lon="-2.12151">
        <ele>68</ele>
        <time>2018-03-18T11:21:55.000Z</time>
      </trkpt>
      <trkpt lat="47.62519" lon="-2.12206">
        <ele>68</ele>
        <time>2018-03-18T11:22:10.000Z</time>
      </trkpt>
      <trkpt lat="47.62521" lon="-2.12257">
        <ele>71</ele>
        <time>2018-03-18T11:22:24.000Z</time>
      </trkpt>
      <trkpt lat="47.62526" lon="-2.12313">
        <ele>74</ele>
        <time>2018-03-18T11:22:37.000Z</time>
      </trkpt>
      <trkpt lat="47.62529" lon="-2.12368">
        <ele>75</ele>
        <time>2018-03-18T11:22:49.000Z</time>
      </trkpt>
      <trkpt lat="47.6253" lon="-2.12421">
        <ele>73</ele>
        <time>2018-03-18T11:22:59.000Z</time>
      </trkpt>
      <trkpt lat="47.62528" lon="-2.12473">
        <ele>73</ele>
        <time>2018-03-18T11:23:16.000Z</time>
      </trkpt>
      <trkpt lat="47.62535" lon="-2.12523">
        <ele>74</ele>
        <time>2018-03-18T11:23:31.000Z</time>
      </trkpt>
      <trkpt lat="47.62538" lon="-2.12572">
        <ele>76</ele>
        <time>2018-03-18T11:23:48.000Z</time>
      </trkpt>
      <trkpt lat="47.62532" lon="-2.12622">
        <ele>77</ele>
        <time>2018-03-18T11:24:00.000Z</time>
      </trkpt>
      <trkpt lat="47.62531" lon="-2.1263">
        <ele>77</ele>
        <time>2018-03-18T11:24:02.000Z</time>
      </trkpt>
      <trkpt lat="47.62531" lon="-2.12634">
        <ele>76</ele>
        <time>2018-03-18T11:24:03.000Z</time>
      </trkpt>
      <trkpt lat="47.62529" lon="-2.12639">
        <ele>75</ele>
        <time>2018-03-18T11:24:04.000Z</time>
      </trkpt>
      <trkpt lat="47.62528" lon="-2.12643">
        <ele>75</ele>
        <time>2018-03-18T11:24:05.000Z</time>
      </trkpt>
      <trkpt lat="47.62527" lon="-2.1265">
        <ele>75</ele>
        <time>2018-03-18T11:24:07.000Z</time>
      </trkpt>
      <trkpt lat="47.62526" lon="-2.12655">
        <ele>74</ele>
        <time>2018-03-18T11:24:08.000Z</time>
      </trkpt>
      <trkpt lat="47.62524" lon="-2.12659">
        <ele>74</ele>
        <time>2018-03-18T11:24:09.000Z</time>
      </trkpt>
      <trkpt lat="47.62521" lon="-2.12663">
        <ele>74</ele>
        <time>2018-03-18T11:24:11.000Z</time>
      </trkpt>
      <trkpt lat="47.62516" lon="-2.12663">
        <ele>74</ele>
        <time>2018-03-18T11:24:13.000Z</time>
      </trkpt>
      <trkpt lat="47.62512" lon="-2.12661">
        <ele>74</ele>
        <time>2018-03-18T11:24:15.000Z</time>
      </trkpt>
      <trkpt lat="47.62511" lon="-2.12656">
        <ele>74</ele>
        <time>2018-03-18T11:24:18.000Z</time>
      </trkpt>
      <trkpt lat="47.62512" lon="-2.1265">
        <ele>76</ele>
        <time>2018-03-18T11:24:23.000Z</time>
      </trkpt>
      <trkpt lat="47.62513" lon="-2.12645">
        <ele>76</ele>
        <time>2018-03-18T11:24:25.000Z</time>
      </trkpt>
      <trkpt lat="47.62513" lon="-2.1264">
        <ele>77</ele>
        <time>2018-03-18T11:24:27.000Z</time>
      </trkpt>
      <trkpt lat="47.62513" lon="-2.12635">
        <ele>77</ele>
        <time>2018-03-18T11:24:29.000Z</time>
      </trkpt>
      <trkpt lat="47.6251" lon="-2.12633">
        <ele>76</ele>
        <time>2018-03-18T11:24:37.000Z</time>
      </trkpt>
      <trkpt lat="47.62508" lon="-2.12636">
        <ele>76</ele>
        <time>2018-03-18T11:24:40.000Z</time>
      </trkpt>
      <trkpt lat="47.62506" lon="-2.12638">
        <ele>76</ele>
        <time>2018-03-18T11:24:42.000Z</time>
      </trkpt>
      <trkpt lat="47.62495" lon="-2.12641">
        <ele>76</ele>
        <time>2018-03-18T11:24:51.000Z</time>
      </trkpt>
      <trkpt lat="47.62481" lon="-2.12601">
        <ele>79</ele>
        <time>2018-03-18T11:25:34.000Z</time>
      </trkpt>
      <trkpt lat="47.62461" lon="-2.12597">
        <ele>77</ele>
        <time>2018-03-18T11:25:45.000Z</time>
      </trkpt>
      <trkpt lat="47.62461" lon="-2.12597">
        <ele>77</ele>
        <time>2018-03-18T11:25:46.000Z</time>
      </trkpt>
      <trkpt lat="47.62426" lon="-2.12601">
        <ele>76</ele>
        <time>2018-03-18T11:26:04.000Z</time>
      </trkpt>
      <trkpt lat="47.6242" lon="-2.12614">
        <ele>74</ele>
        <time>2018-03-18T11:26:09.000Z</time>
      </trkpt>
      <trkpt lat="47.6245" lon="-2.1264">
        <ele>73</ele>
        <time>2018-03-18T11:26:16.000Z</time>
      </trkpt>
      <trkpt lat="47.62482" lon="-2.12674">
        <ele>73</ele>
        <time>2018-03-18T11:26:22.000Z</time>
      </trkpt>
      <trkpt lat="47.62511" lon="-2.12707">
        <ele>73</ele>
        <time>2018-03-18T11:26:30.000Z</time>
      </trkpt>
      <trkpt lat="47.62531" lon="-2.12733">
        <ele>71</ele>
        <time>2018-03-18T11:26:46.000Z</time>
      </trkpt>
      <trkpt lat="47.62516" lon="-2.1276">
        <ele>72</ele>
        <time>2018-03-18T11:27:02.000Z</time>
      </trkpt>
      <trkpt lat="47.62499" lon="-2.12807">
        <ele>74</ele>
        <time>2018-03-18T11:27:31.000Z</time>
      </trkpt>
      <trkpt lat="47.62492" lon="-2.12834">
        <ele>76</ele>
        <time>2018-03-18T11:27:45.000Z</time>
      </trkpt>
      <trkpt lat="47.62501" lon="-2.12844">
        <ele>79</ele>
        <time>2018-03-18T11:27:57.000Z</time>
      </trkpt>
      <trkpt lat="47.625" lon="-2.12869">
        <ele>88</ele>
        <time>2018-03-18T11:28:29.000Z</time>
      </trkpt>
      <trkpt lat="47.62492" lon="-2.12902">
        <ele>90</ele>
        <time>2018-03-18T11:28:47.000Z</time>
      </trkpt>
      <trkpt lat="47.62492" lon="-2.12902">
        <ele>90</ele>
        <time>2018-03-18T11:28:48.000Z</time>
      </trkpt>
      <trkpt lat="47.62478" lon="-2.12942">
        <ele>91</ele>
        <time>2018-03-18T11:29:08.000Z</time>
      </trkpt>
      <trkpt lat="47.62462" lon="-2.12983">
        <ele>93</ele>
        <time>2018-03-18T11:29:28.000Z</time>
      </trkpt>
      <trkpt lat="47.62438" lon="-2.1301">
        <ele>93</ele>
        <time>2018-03-18T11:29:47.000Z</time>
      </trkpt>
      <trkpt lat="47.62418" lon="-2.13047">
        <ele>91</ele>
        <time>2018-03-18T11:30:05.000Z</time>
      </trkpt>
      <trkpt lat="47.62404" lon="-2.13094">
        <ele>92</ele>
        <time>2018-03-18T11:30:22.000Z</time>
      </trkpt>
      <trkpt lat="47.62407" lon="-2.13145">
        <ele>91</ele>
        <time>2018-03-18T11:30:37.000Z</time>
      </trkpt>
      <trkpt lat="47.62405" lon="-2.13196">
        <ele>90</ele>
        <time>2018-03-18T11:30:52.000Z</time>
      </trkpt>
      <trkpt lat="47.62399" lon="-2.13248">
        <ele>91</ele>
        <time>2018-03-18T11:31:08.000Z</time>
      </trkpt>
      <trkpt lat="47.62399" lon="-2.13303">
        <ele>90</ele>
        <time>2018-03-18T11:31:24.000Z</time>
      </trkpt>
      <trkpt lat="47.62397" lon="-2.13335">
        <ele>95</ele>
        <time>2018-03-18T11:31:36.000Z</time>
      </trkpt>
      <trkpt lat="47.62385" lon="-2.13344">
        <ele>96</ele>
        <time>2018-03-18T11:31:43.000Z</time>
      </trkpt>
      <trkpt lat="47.62385" lon="-2.13344">
        <ele>96</ele>
        <time>2018-03-18T11:31:43.000Z</time>
      </trkpt>
      <trkpt lat="47.62381" lon="-2.13346">
        <ele>96</ele>
        <time>2018-03-18T11:31:44.000Z</time>
      </trkpt>
      <trkpt lat="47.62377" lon="-2.13348">
        <ele>96</ele>
        <time>2018-03-18T11:31:45.000Z</time>
      </trkpt>
      <trkpt lat="47.62374" lon="-2.13351">
        <ele>96</ele>
        <time>2018-03-18T11:31:46.000Z</time>
      </trkpt>
      <trkpt lat="47.62371" lon="-2.13355">
        <ele>95</ele>
        <time>2018-03-18T11:31:48.000Z</time>
      </trkpt>
      <trkpt lat="47.62371" lon="-2.13361">
        <ele>94</ele>
        <time>2018-03-18T11:31:51.000Z</time>
      </trkpt>
      <trkpt lat="47.6237" lon="-2.13368">
        <ele>95</ele>
        <time>2018-03-18T11:31:53.000Z</time>
      </trkpt>
      <trkpt lat="47.6237" lon="-2.13376">
        <ele>95</ele>
        <time>2018-03-18T11:31:55.000Z</time>
      </trkpt>
      <trkpt lat="47.62369" lon="-2.13381">
        <ele>95</ele>
        <time>2018-03-18T11:31:57.000Z</time>
      </trkpt>
      <trkpt lat="47.62371" lon="-2.13385">
        <ele>94</ele>
        <time>2018-03-18T11:32:00.000Z</time>
      </trkpt>
      <trkpt lat="47.62373" lon="-2.13387">
        <ele>95</ele>
        <time>2018-03-18T11:32:03.000Z</time>
      </trkpt>
      <trkpt lat="47.62376" lon="-2.1339">
        <ele>95</ele>
        <time>2018-03-18T11:32:06.000Z</time>
      </trkpt>
      <trkpt lat="47.62379" lon="-2.1339">
        <ele>96</ele>
        <time>2018-03-18T11:32:11.000Z</time>
      </trkpt>
      <trkpt lat="47.62382" lon="-2.13392">
        <ele>97</ele>
        <time>2018-03-18T11:32:15.000Z</time>
      </trkpt>
      <trkpt lat="47.62385" lon="-2.13393">
        <ele>99</ele>
        <time>2018-03-18T11:32:18.000Z</time>
      </trkpt>
      <trkpt lat="47.62407" lon="-2.1342">
        <ele>103</ele>
        <time>2018-03-18T11:32:31.000Z</time>
      </trkpt>
      <trkpt lat="47.62419" lon="-2.13417">
        <ele>102</ele>
        <time>2018-03-18T11:32:41.000Z</time>
      </trkpt>
      <trkpt lat="47.62439" lon="-2.13376">
        <ele>110</ele>
        <time>2018-03-18T11:33:07.000Z</time>
      </trkpt>
      <trkpt lat="47.62441" lon="-2.13374">
        <ele>111</ele>
        <time>2018-03-18T11:33:09.000Z</time>
      </trkpt>
      <trkpt lat="47.62444" lon="-2.13369">
        <ele>111</ele>
        <time>2018-03-18T11:33:11.000Z</time>
      </trkpt>
      <trkpt lat="47.62445" lon="-2.13364">
        <ele>112</ele>
        <time>2018-03-18T11:33:13.000Z</time>
      </trkpt>
      <trkpt lat="47.62447" lon="-2.1336">
        <ele>113</ele>
        <time>2018-03-18T11:33:15.000Z</time>
      </trkpt>
      <trkpt lat="47.62447" lon="-2.13355">
        <ele>112</ele>
        <time>2018-03-18T11:33:18.000Z</time>
      </trkpt>
      <trkpt lat="47.62447" lon="-2.13361">
        <ele>113</ele>
        <time>2018-03-18T11:33:27.000Z</time>
      </trkpt>
      <trkpt lat="47.62445" lon="-2.13367">
        <ele>112</ele>
        <time>2018-03-18T11:33:29.000Z</time>
      </trkpt>
      <trkpt lat="47.62444" lon="-2.1337">
        <ele>112</ele>
        <time>2018-03-18T11:33:30.000Z</time>
      </trkpt>
      <trkpt lat="47.62441" lon="-2.13373">
        <ele>112</ele>
        <time>2018-03-18T11:33:31.000Z</time>
      </trkpt>
      <trkpt lat="47.62437" lon="-2.13375">
        <ele>111</ele>
        <time>2018-03-18T11:33:32.000Z</time>
      </trkpt>
      <trkpt lat="47.62434" lon="-2.13375">
        <ele>110</ele>
        <time>2018-03-18T11:33:33.000Z</time>
      </trkpt>
      <trkpt lat="47.6243" lon="-2.13374">
        <ele>110</ele>
        <time>2018-03-18T11:33:34.000Z</time>
      </trkpt>
      <trkpt lat="47.62427" lon="-2.13372">
        <ele>110</ele>
        <time>2018-03-18T11:33:35.000Z</time>
      </trkpt>
      <trkpt lat="47.62424" lon="-2.13371">
        <ele>110</ele>
        <time>2018-03-18T11:33:36.000Z</time>
      </trkpt>
      <trkpt lat="47.6242" lon="-2.13368">
        <ele>109</ele>
        <time>2018-03-18T11:33:37.000Z</time>
      </trkpt>
      <trkpt lat="47.62418" lon="-2.13366">
        <ele>109</ele>
        <time>2018-03-18T11:33:38.000Z</time>
      </trkpt>
      <trkpt lat="47.62415" lon="-2.13363">
        <ele>109</ele>
        <time>2018-03-18T11:33:39.000Z</time>
      </trkpt>
      <trkpt lat="47.62412" lon="-2.13362">
        <ele>109</ele>
        <time>2018-03-18T11:33:40.000Z</time>
      </trkpt>
      <trkpt lat="47.62385" lon="-2.13316">
        <ele>107</ele>
        <time>2018-03-18T11:33:52.000Z</time>
      </trkpt>
      <trkpt lat="47.6238" lon="-2.13293">
        <ele>105</ele>
        <time>2018-03-18T11:33:56.000Z</time>
      </trkpt>
      <trkpt lat="47.62397" lon="-2.1327">
        <ele>105</ele>
        <time>2018-03-18T11:34:09.000Z</time>
      </trkpt>
      <trkpt lat="47.62422" lon="-2.13237">
        <ele>108</ele>
        <time>2018-03-18T11:34:34.000Z</time>
      </trkpt>
      <trkpt lat="47.62439" lon="-2.13206">
        <ele>111</ele>
        <time>2018-03-18T11:34:50.000Z</time>
      </trkpt>
      <trkpt lat="47.62458" lon="-2.1317">
        <ele>112</ele>
        <time>2018-03-18T11:35:09.000Z</time>
      </trkpt>
      <trkpt lat="47.62479" lon="-2.13142">
        <ele>107</ele>
        <time>2018-03-18T11:35:28.000Z</time>
      </trkpt>
      <trkpt lat="47.625" lon="-2.13104">
        <ele>103</ele>
        <time>2018-03-18T11:35:42.000Z</time>
      </trkpt>
      <trkpt lat="47.62523" lon="-2.13069">
        <ele>104</ele>
        <time>2018-03-18T11:35:57.000Z</time>
      </trkpt>
      <trkpt lat="47.62551" lon="-2.1304">
        <ele>109</ele>
        <time>2018-03-18T11:36:09.000Z</time>
      </trkpt>
      <trkpt lat="47.62573" lon="-2.13002">
        <ele>109</ele>
        <time>2018-03-18T11:36:21.000Z</time>
      </trkpt>
      <trkpt lat="47.62592" lon="-2.13">
        <ele>110</ele>
        <time>2018-03-18T11:36:32.000Z</time>
      </trkpt>
      <trkpt lat="47.62601" lon="-2.12989">
        <ele>109</ele>
        <time>2018-03-18T11:36:43.000Z</time>
      </trkpt>
      <trkpt lat="47.62619" lon="-2.12948">
        <ele>105</ele>
        <time>2018-03-18T11:37:01.000Z</time>
      </trkpt>
      <trkpt lat="47.6265" lon="-2.12942">
        <ele>107</ele>
        <time>2018-03-18T11:37:13.000Z</time>
      </trkpt>
      <trkpt lat="47.62683" lon="-2.12944">
        <ele>109</ele>
        <time>2018-03-18T11:37:25.000Z</time>
      </trkpt>
      <trkpt lat="47.62715" lon="-2.12947">
        <ele>111</ele>
        <time>2018-03-18T11:37:43.000Z</time>
      </trkpt>
      <trkpt lat="47.62745" lon="-2.12943">
        <ele>114</ele>
        <time>2018-03-18T11:37:56.000Z</time>
      </trkpt>
      <trkpt lat="47.62745" lon="-2.12919">
        <ele>112</ele>
        <time>2018-03-18T11:38:04.000Z</time>
      </trkpt>
      <trkpt lat="47.62766" lon="-2.12877">
        <ele>110</ele>
        <time>2018-03-18T11:38:28.000Z</time>
      </trkpt>
      <trkpt lat="47.62798" lon="-2.12867">
        <ele>112</ele>
        <time>2018-03-18T11:38:47.000Z</time>
      </trkpt>
      <trkpt lat="47.62819" lon="-2.12827">
        <ele>111</ele>
        <time>2018-03-18T11:38:58.000Z</time>
      </trkpt>
      <trkpt lat="47.62848" lon="-2.128">
        <ele>110</ele>
        <time>2018-03-18T11:39:15.000Z</time>
      </trkpt>
      <trkpt lat="47.6287" lon="-2.12756">
        <ele>108</ele>
        <time>2018-03-18T11:39:36.000Z</time>
      </trkpt>
      <trkpt lat="47.62905" lon="-2.12762">
        <ele>108</ele>
        <time>2018-03-18T11:39:57.000Z</time>
      </trkpt>
      <trkpt lat="47.62907" lon="-2.12766">
        <ele>111</ele>
        <time>2018-03-18T11:40:00.000Z</time>
      </trkpt>
      <trkpt lat="47.62909" lon="-2.12769">
        <ele>111</ele>
        <time>2018-03-18T11:40:02.000Z</time>
      </trkpt>
      <trkpt lat="47.62911" lon="-2.12772">
        <ele>111</ele>
        <time>2018-03-18T11:40:03.000Z</time>
      </trkpt>
      <trkpt lat="47.62914" lon="-2.12777">
        <ele>112</ele>
        <time>2018-03-18T11:40:05.000Z</time>
      </trkpt>
      <trkpt lat="47.62915" lon="-2.12782">
        <ele>111</ele>
        <time>2018-03-18T11:40:07.000Z</time>
      </trkpt>
      <trkpt lat="47.62914" lon="-2.12788">
        <ele>111</ele>
        <time>2018-03-18T11:40:12.000Z</time>
      </trkpt>
      <trkpt lat="47.62912" lon="-2.12791">
        <ele>110</ele>
        <time>2018-03-18T11:40:15.000Z</time>
      </trkpt>
      <trkpt lat="47.62909" lon="-2.12792">
        <ele>110</ele>
        <time>2018-03-18T11:40:18.000Z</time>
      </trkpt>
      <trkpt lat="47.62906" lon="-2.12791">
        <ele>109</ele>
        <time>2018-03-18T11:40:20.000Z</time>
      </trkpt>
      <trkpt lat="47.62902" lon="-2.1279">
        <ele>110</ele>
        <time>2018-03-18T11:40:22.000Z</time>
      </trkpt>
      <trkpt lat="47.62899" lon="-2.12789">
        <ele>110</ele>
        <time>2018-03-18T11:40:24.000Z</time>
      </trkpt>
      <trkpt lat="47.62895" lon="-2.12791">
        <ele>111</ele>
        <time>2018-03-18T11:40:27.000Z</time>
      </trkpt>
      <trkpt lat="47.62893" lon="-2.12794">
        <ele>112</ele>
        <time>2018-03-18T11:40:30.000Z</time>
      </trkpt>
      <trkpt lat="47.62892" lon="-2.12799">
        <ele>112</ele>
        <time>2018-03-18T11:40:34.000Z</time>
      </trkpt>
      <trkpt lat="47.62892" lon="-2.12803">
        <ele>113</ele>
        <time>2018-03-18T11:40:37.000Z</time>
      </trkpt>
      <trkpt lat="47.62894" lon="-2.12808">
        <ele>114</ele>
        <time>2018-03-18T11:40:41.000Z</time>
      </trkpt>
      <trkpt lat="47.62909" lon="-2.12864">
        <ele>115</ele>
        <time>2018-03-18T11:41:11.000Z</time>
      </trkpt>
      <trkpt lat="47.62907" lon="-2.12886">
        <ele>115</ele>
        <time>2018-03-18T11:41:27.000Z</time>
      </trkpt>
      <trkpt lat="47.62941" lon="-2.12885">
        <ele>112</ele>
        <time>2018-03-18T11:41:44.000Z</time>
      </trkpt>
      <trkpt lat="47.62973" lon="-2.12882">
        <ele>113</ele>
        <time>2018-03-18T11:42:06.000Z</time>
      </trkpt>
      <trkpt lat="47.63003" lon="-2.12864">
        <ele>110</ele>
        <time>2018-03-18T11:42:23.000Z</time>
      </trkpt>
      <trkpt lat="47.63005" lon="-2.12859">
        <ele>110</ele>
        <time>2018-03-18T11:42:25.000Z</time>
      </trkpt>
      <trkpt lat="47.63007" lon="-2.12856">
        <ele>109</ele>
        <time>2018-03-18T11:42:27.000Z</time>
      </trkpt>
      <trkpt lat="47.63004" lon="-2.12853">
        <ele>111</ele>
        <time>2018-03-18T11:42:34.000Z</time>
      </trkpt>
      <trkpt lat="47.63" lon="-2.12851">
        <ele>112</ele>
        <time>2018-03-18T11:42:37.000Z</time>
      </trkpt>
      <trkpt lat="47.62997" lon="-2.12851">
        <ele>113</ele>
        <time>2018-03-18T11:42:39.000Z</time>
      </trkpt>
      <trkpt lat="47.62994" lon="-2.1285">
        <ele>113</ele>
        <time>2018-03-18T11:42:41.000Z</time>
      </trkpt>
      <trkpt lat="47.62991" lon="-2.12849">
        <ele>113</ele>
        <time>2018-03-18T11:42:43.000Z</time>
      </trkpt>
      <trkpt lat="47.62987" lon="-2.12849">
        <ele>113</ele>
        <time>2018-03-18T11:42:46.000Z</time>
      </trkpt>
      <trkpt lat="47.62984" lon="-2.1285">
        <ele>114</ele>
        <time>2018-03-18T11:42:48.000Z</time>
      </trkpt>
      <trkpt lat="47.6298" lon="-2.12851">
        <ele>113</ele>
        <time>2018-03-18T11:42:50.000Z</time>
      </trkpt>
      <trkpt lat="47.62977" lon="-2.12853">
        <ele>113</ele>
        <time>2018-03-18T11:42:52.000Z</time>
      </trkpt>
      <trkpt lat="47.62973" lon="-2.12853">
        <ele>112</ele>
        <time>2018-03-18T11:42:54.000Z</time>
      </trkpt>
      <trkpt lat="47.62971" lon="-2.12851">
        <ele>112</ele>
        <time>2018-03-18T11:42:56.000Z</time>
      </trkpt>
      <trkpt lat="47.62973" lon="-2.12847">
        <ele>112</ele>
        <time>2018-03-18T11:43:02.000Z</time>
      </trkpt>
      <trkpt lat="47.62976" lon="-2.12845">
        <ele>111</ele>
        <time>2018-03-18T11:43:05.000Z</time>
      </trkpt>
      <trkpt lat="47.6298" lon="-2.12844">
        <ele>111</ele>
        <time>2018-03-18T11:43:07.000Z</time>
      </trkpt>
      <trkpt lat="47.62983" lon="-2.12842">
        <ele>110</ele>
        <time>2018-03-18T11:43:09.000Z</time>
      </trkpt>
      <trkpt lat="47.62987" lon="-2.12839">
        <ele>110</ele>
        <time>2018-03-18T11:43:11.000Z</time>
      </trkpt>
      <trkpt lat="47.62991" lon="-2.12837">
        <ele>109</ele>
        <time>2018-03-18T11:43:13.000Z</time>
      </trkpt>
      <trkpt lat="47.62996" lon="-2.12836">
        <ele>109</ele>
        <time>2018-03-18T11:43:15.000Z</time>
      </trkpt>
      <trkpt lat="47.62999" lon="-2.12834">
        <ele>108</ele>
        <time>2018-03-18T11:43:17.000Z</time>
      </trkpt>
      <trkpt lat="47.63002" lon="-2.12834">
        <ele>108</ele>
        <time>2018-03-18T11:43:20.000Z</time>
      </trkpt>
      <trkpt lat="47.63007" lon="-2.12834">
        <ele>108</ele>
        <time>2018-03-18T11:43:22.000Z</time>
      </trkpt>
      <trkpt lat="47.63011" lon="-2.12833">
        <ele>107</ele>
        <time>2018-03-18T11:43:24.000Z</time>
      </trkpt>
      <trkpt lat="47.63014" lon="-2.1283">
        <ele>107</ele>
        <time>2018-03-18T11:43:26.000Z</time>
      </trkpt>
      <trkpt lat="47.63015" lon="-2.12826">
        <ele>108</ele>
        <time>2018-03-18T11:43:29.000Z</time>
      </trkpt>
      <trkpt lat="47.63012" lon="-2.12824">
        <ele>109</ele>
        <time>2018-03-18T11:43:33.000Z</time>
      </trkpt>
      <trkpt lat="47.63009" lon="-2.12823">
        <ele>109</ele>
        <time>2018-03-18T11:43:35.000Z</time>
      </trkpt>
      <trkpt lat="47.63003" lon="-2.12822">
        <ele>109</ele>
        <time>2018-03-18T11:43:37.000Z</time>
      </trkpt>
      <trkpt lat="47.62999" lon="-2.12821">
        <ele>109</ele>
        <time>2018-03-18T11:43:38.000Z</time>
      </trkpt>
      <trkpt lat="47.62997" lon="-2.12821">
        <ele>110</ele>
        <time>2018-03-18T11:43:39.000Z</time>
      </trkpt>
      <trkpt lat="47.62994" lon="-2.1282">
        <ele>110</ele>
        <time>2018-03-18T11:43:40.000Z</time>
      </trkpt>
      <trkpt lat="47.62965" lon="-2.12826">
        <ele>111</ele>
        <time>2018-03-18T11:43:56.000Z</time>
      </trkpt>
      <trkpt lat="47.62955" lon="-2.12814">
        <ele>109</ele>
        <time>2018-03-18T11:44:02.000Z</time>
      </trkpt>
      <trkpt lat="47.62941" lon="-2.1277">
        <ele>108</ele>
        <time>2018-03-18T11:44:10.000Z</time>
      </trkpt>
      <trkpt lat="47.62933" lon="-2.12721">
        <ele>103</ele>
        <time>2018-03-18T11:44:22.000Z</time>
      </trkpt>
      <trkpt lat="47.62931" lon="-2.12663">
        <ele>100</ele>
        <time>2018-03-18T11:44:30.000Z</time>
      </trkpt>
      <trkpt lat="47.62931" lon="-2.12609">
        <ele>93</ele>
        <time>2018-03-18T11:44:36.000Z</time>
      </trkpt>
      <trkpt lat="47.62931" lon="-2.12578">
        <ele>91</ele>
        <time>2018-03-18T11:44:46.000Z</time>
      </trkpt>
      <trkpt lat="47.62896" lon="-2.126">
        <ele>89</ele>
        <time>2018-03-18T11:45:01.000Z</time>
      </trkpt>
      <trkpt lat="47.62863" lon="-2.12626">
        <ele>91</ele>
        <time>2018-03-18T11:45:13.000Z</time>
      </trkpt>
      <trkpt lat="47.62824" lon="-2.12642">
        <ele>91</ele>
        <time>2018-03-18T11:45:23.000Z</time>
      </trkpt>
      <trkpt lat="47.62785" lon="-2.12654">
        <ele>89</ele>
        <time>2018-03-18T11:45:31.000Z</time>
      </trkpt>
      <trkpt lat="47.62746" lon="-2.12668">
        <ele>87</ele>
        <time>2018-03-18T11:45:39.000Z</time>
      </trkpt>
      <trkpt lat="47.62706" lon="-2.12684">
        <ele>84</ele>
        <time>2018-03-18T11:45:46.000Z</time>
      </trkpt>
      <trkpt lat="47.62671" lon="-2.127">
        <ele>82</ele>
        <time>2018-03-18T11:45:51.000Z</time>
      </trkpt>
      <trkpt lat="47.62631" lon="-2.1272">
        <ele>78</ele>
        <time>2018-03-18T11:45:56.000Z</time>
      </trkpt>
      <trkpt lat="47.62595" lon="-2.12734">
        <ele>74</ele>
        <time>2018-03-18T11:46:00.000Z</time>
      </trkpt>
      <trkpt lat="47.62555" lon="-2.12737">
        <ele>72</ele>
        <time>2018-03-18T11:46:05.000Z</time>
      </trkpt>
      <trkpt lat="47.62549" lon="-2.12737">
        <ele>72</ele>
        <time>2018-03-18T11:46:06.000Z</time>
      </trkpt>
      <trkpt lat="47.62545" lon="-2.12736">
        <ele>72</ele>
        <time>2018-03-18T11:46:07.000Z</time>
      </trkpt>
      <trkpt lat="47.62542" lon="-2.12735">
        <ele>72</ele>
        <time>2018-03-18T11:46:08.000Z</time>
      </trkpt>
      <trkpt lat="47.62539" lon="-2.12734">
        <ele>72</ele>
        <time>2018-03-18T11:46:09.000Z</time>
      </trkpt>
      <trkpt lat="47.62537" lon="-2.12726">
        <ele>72</ele>
        <time>2018-03-18T11:46:12.000Z</time>
      </trkpt>
      <trkpt lat="47.62537" lon="-2.12719">
        <ele>73</ele>
        <time>2018-03-18T11:46:14.000Z</time>
      </trkpt>
      <trkpt lat="47.62537" lon="-2.12714">
        <ele>73</ele>
        <time>2018-03-18T11:46:16.000Z</time>
      </trkpt>
      <trkpt lat="47.62538" lon="-2.12709">
        <ele>73</ele>
        <time>2018-03-18T11:46:18.000Z</time>
      </trkpt>
      <trkpt lat="47.62539" lon="-2.12704">
        <ele>73</ele>
        <time>2018-03-18T11:46:20.000Z</time>
      </trkpt>
      <trkpt lat="47.6254" lon="-2.127">
        <ele>73</ele>
        <time>2018-03-18T11:46:22.000Z</time>
      </trkpt>
      <trkpt lat="47.62543" lon="-2.12696">
        <ele>73</ele>
        <time>2018-03-18T11:46:26.000Z</time>
      </trkpt>
      <trkpt lat="47.62546" lon="-2.12693">
        <ele>73</ele>
        <time>2018-03-18T11:46:28.000Z</time>
      </trkpt>
      <trkpt lat="47.6255" lon="-2.12688">
        <ele>73</ele>
        <time>2018-03-18T11:46:30.000Z</time>
      </trkpt>
      <trkpt lat="47.62587" lon="-2.12665">
        <ele>72</ele>
        <time>2018-03-18T11:46:49.000Z</time>
      </trkpt>
      <trkpt lat="47.62587" lon="-2.12665">
        <ele>72</ele>
        <time>2018-03-18T11:46:50.000Z</time>
      </trkpt>
      <trkpt lat="47.62612" lon="-2.12633">
        <ele>72</ele>
        <time>2018-03-18T11:47:41.000Z</time>
      </trkpt>
      <trkpt lat="47.62613" lon="-2.12582">
        <ele>71</ele>
        <time>2018-03-18T11:48:08.000Z</time>
      </trkpt>
      <trkpt lat="47.62622" lon="-2.12528">
        <ele>68</ele>
        <time>2018-03-18T11:48:35.000Z</time>
      </trkpt>
      <trkpt lat="47.62623" lon="-2.12472">
        <ele>66</ele>
        <time>2018-03-18T11:48:54.000Z</time>
      </trkpt>
      <trkpt lat="47.62627" lon="-2.12448">
        <ele>66</ele>
        <time>2018-03-18T11:49:01.000Z</time>
      </trkpt>
      <trkpt lat="47.62635" lon="-2.12422">
        <ele>65</ele>
        <time>2018-03-18T11:49:09.000Z</time>
      </trkpt>
      <trkpt lat="47.62645" lon="-2.12395">
        <ele>65</ele>
        <time>2018-03-18T11:49:17.000Z</time>
      </trkpt>
      <trkpt lat="47.62652" lon="-2.12371">
        <ele>64</ele>
        <time>2018-03-18T11:49:22.000Z</time>
      </trkpt>
      <trkpt lat="47.62658" lon="-2.12339">
        <ele>64</ele>
        <time>2018-03-18T11:49:29.000Z</time>
      </trkpt>
      <trkpt lat="47.62659" lon="-2.12319">
        <ele>65</ele>
        <time>2018-03-18T11:49:34.000Z</time>
      </trkpt>
      <trkpt lat="47.62659" lon="-2.12319">
        <ele>65</ele>
        <time>2018-03-18T11:49:34.000Z</time>
      </trkpt>
      <trkpt lat="47.62659" lon="-2.12312">
        <ele>65</ele>
        <time>2018-03-18T11:49:36.000Z</time>
      </trkpt>
      <trkpt lat="47.6266" lon="-2.12306">
        <ele>64</ele>
        <time>2018-03-18T11:49:38.000Z</time>
      </trkpt>
      <trkpt lat="47.6266" lon="-2.123">
        <ele>64</ele>
        <time>2018-03-18T11:49:40.000Z</time>
      </trkpt>
      <trkpt lat="47.6266" lon="-2.12295">
        <ele>65</ele>
        <time>2018-03-18T11:49:41.000Z</time>
      </trkpt>
      <trkpt lat="47.62661" lon="-2.12289">
        <ele>66</ele>
        <time>2018-03-18T11:49:43.000Z</time>
      </trkpt>
      <trkpt lat="47.62661" lon="-2.12284">
        <ele>66</ele>
        <time>2018-03-18T11:49:45.000Z</time>
      </trkpt>
      <trkpt lat="47.62658" lon="-2.1228">
        <ele>67</ele>
        <time>2018-03-18T11:49:48.000Z</time>
      </trkpt>
      <trkpt lat="47.62656" lon="-2.12275">
        <ele>68</ele>
        <time>2018-03-18T11:49:54.000Z</time>
      </trkpt>
      <trkpt lat="47.62652" lon="-2.12273">
        <ele>70</ele>
        <time>2018-03-18T11:49:57.000Z</time>
      </trkpt>
      <trkpt lat="47.62649" lon="-2.12272">
        <ele>70</ele>
        <time>2018-03-18T11:49:59.000Z</time>
      </trkpt>
      <trkpt lat="47.62617" lon="-2.1227">
        <ele>71</ele>
        <time>2018-03-18T11:50:13.000Z</time>
      </trkpt>
      <trkpt lat="47.62612" lon="-2.12248">
        <ele>70</ele>
        <time>2018-03-18T11:50:18.000Z</time>
      </trkpt>
      <trkpt lat="47.62611" lon="-2.12197">
        <ele>69</ele>
        <time>2018-03-18T11:50:35.000Z</time>
      </trkpt>
      <trkpt lat="47.6261" lon="-2.1218">
        <ele>69</ele>
        <time>2018-03-18T11:50:41.000Z</time>
      </trkpt>
      <trkpt lat="47.62627" lon="-2.12151">
        <ele>67</ele>
        <time>2018-03-18T11:50:57.000Z</time>
      </trkpt>
      <trkpt lat="47.62627" lon="-2.12096">
        <ele>64</ele>
        <time>2018-03-18T11:51:10.000Z</time>
      </trkpt>
      <trkpt lat="47.62622" lon="-2.12041">
        <ele>63</ele>
        <time>2018-03-18T11:51:24.000Z</time>
      </trkpt>
      <trkpt lat="47.62624" lon="-2.11986">
        <ele>63</ele>
        <time>2018-03-18T11:51:39.000Z</time>
      </trkpt>
      <trkpt lat="47.62624" lon="-2.1193">
        <ele>63</ele>
        <time>2018-03-18T11:51:55.000Z</time>
      </trkpt>
      <trkpt lat="47.62625" lon="-2.11908">
        <ele>63</ele>
        <time>2018-03-18T11:52:01.000Z</time>
      </trkpt>
      <trkpt lat="47.6262" lon="-2.11877">
        <ele>63</ele>
        <time>2018-03-18T11:52:10.000Z</time>
      </trkpt>
      <trkpt lat="47.6261" lon="-2.11824">
        <ele>64</ele>
        <time>2018-03-18T11:52:25.000Z</time>
      </trkpt>
      <trkpt lat="47.62597" lon="-2.11774">
        <ele>66</ele>
        <time>2018-03-18T11:52:38.000Z</time>
      </trkpt>
      <trkpt lat="47.62589" lon="-2.1172">
        <ele>65</ele>
        <time>2018-03-18T11:52:50.000Z</time>
      </trkpt>
      <trkpt lat="47.62577" lon="-2.11669">
        <ele>64</ele>
        <time>2018-03-18T11:53:03.000Z</time>
      </trkpt>
      <trkpt lat="47.62584" lon="-2.11647">
        <ele>65</ele>
        <time>2018-03-18T11:53:10.000Z</time>
      </trkpt>
      <trkpt lat="47.62613" lon="-2.11654">
        <ele>67</ele>
        <time>2018-03-18T11:53:22.000Z</time>
      </trkpt>
      <trkpt lat="47.6265" lon="-2.11662">
        <ele>68</ele>
        <time>2018-03-18T11:53:37.000Z</time>
      </trkpt>
      <trkpt lat="47.62686" lon="-2.11673">
        <ele>69</ele>
        <time>2018-03-18T11:53:54.000Z</time>
      </trkpt>
      <trkpt lat="47.62697" lon="-2.11675">
        <ele>70</ele>
        <time>2018-03-18T11:54:00.000Z</time>
      </trkpt>
      <trkpt lat="47.6272" lon="-2.11657">
        <ele>74</ele>
        <time>2018-03-18T11:54:17.000Z</time>
      </trkpt>
      <trkpt lat="47.62729" lon="-2.11657">
        <ele>74</ele>
        <time>2018-03-18T11:54:24.000Z</time>
      </trkpt>
      <trkpt lat="47.62733" lon="-2.11622">
        <ele>81</ele>
        <time>2018-03-18T11:54:49.000Z</time>
      </trkpt>
      <trkpt lat="47.62754" lon="-2.1159">
        <ele>87</ele>
        <time>2018-03-18T11:55:50.000Z</time>
      </trkpt>
      <trkpt lat="47.62754" lon="-2.1159">
        <ele>87</ele>
        <time>2018-03-18T11:55:51.000Z</time>
      </trkpt>
      <trkpt lat="47.62785" lon="-2.11582">
        <ele>89</ele>
        <time>2018-03-18T11:56:28.000Z</time>
      </trkpt>
      <trkpt lat="47.62805" lon="-2.11596">
        <ele>90</ele>
        <time>2018-03-18T11:56:39.000Z</time>
      </trkpt>
      <trkpt lat="47.62805" lon="-2.11596">
        <ele>90</ele>
        <time>2018-03-18T11:56:40.000Z</time>
      </trkpt>
      <trkpt lat="47.62833" lon="-2.11627">
        <ele>91</ele>
        <time>2018-03-18T11:56:59.000Z</time>
      </trkpt>
      <trkpt lat="47.62839" lon="-2.11636">
        <ele>90</ele>
        <time>2018-03-18T11:57:05.000Z</time>
      </trkpt>
      <trkpt lat="47.62866" lon="-2.11637">
        <ele>88</ele>
        <time>2018-03-18T11:57:28.000Z</time>
      </trkpt>
      <trkpt lat="47.62877" lon="-2.11637">
        <ele>89</ele>
        <time>2018-03-18T11:57:37.000Z</time>
      </trkpt>
      <trkpt lat="47.62891" lon="-2.11601">
        <ele>93</ele>
        <time>2018-03-18T11:57:59.000Z</time>
      </trkpt>
      <trkpt lat="47.62891" lon="-2.11601">
        <ele>93</ele>
        <time>2018-03-18T11:58:00.000Z</time>
      </trkpt>
      <trkpt lat="47.62907" lon="-2.11602">
        <ele>95</ele>
        <time>2018-03-18T11:58:29.000Z</time>
      </trkpt>
      <trkpt lat="47.62938" lon="-2.11625">
        <ele>96</ele>
        <time>2018-03-18T11:58:53.000Z</time>
      </trkpt>
      <trkpt lat="47.62969" lon="-2.11651">
        <ele>96</ele>
        <time>2018-03-18T11:59:12.000Z</time>
      </trkpt>
      <trkpt lat="47.62972" lon="-2.11654">
        <ele>97</ele>
        <time>2018-03-18T11:59:14.000Z</time>
      </trkpt>
      <trkpt lat="47.62975" lon="-2.11657">
        <ele>97</ele>
        <time>2018-03-18T11:59:16.000Z</time>
      </trkpt>
      <trkpt lat="47.62978" lon="-2.11659">
        <ele>97</ele>
        <time>2018-03-18T11:59:18.000Z</time>
      </trkpt>
      <trkpt lat="47.62981" lon="-2.11662">
        <ele>97</ele>
        <time>2018-03-18T11:59:20.000Z</time>
      </trkpt>
      <trkpt lat="47.62984" lon="-2.11664">
        <ele>97</ele>
        <time>2018-03-18T11:59:23.000Z</time>
      </trkpt>
      <trkpt lat="47.62987" lon="-2.1166">
        <ele>98</ele>
        <time>2018-03-18T11:59:27.000Z</time>
      </trkpt>
      <trkpt lat="47.62986" lon="-2.11656">
        <ele>98</ele>
        <time>2018-03-18T11:59:30.000Z</time>
      </trkpt>
      <trkpt lat="47.62983" lon="-2.11654">
        <ele>98</ele>
        <time>2018-03-18T11:59:32.000Z</time>
      </trkpt>
      <trkpt lat="47.6298" lon="-2.1165">
        <ele>98</ele>
        <time>2018-03-18T11:59:34.000Z</time>
      </trkpt>
      <trkpt lat="47.62978" lon="-2.11647">
        <ele>98</ele>
        <time>2018-03-18T11:59:36.000Z</time>
      </trkpt>
      <trkpt lat="47.62974" lon="-2.11646">
        <ele>99</ele>
        <time>2018-03-18T11:59:39.000Z</time>
      </trkpt>
      <trkpt lat="47.62971" lon="-2.11644">
        <ele>99</ele>
        <time>2018-03-18T11:59:41.000Z</time>
      </trkpt>
      <trkpt lat="47.62968" lon="-2.1164">
        <ele>100</ele>
        <time>2018-03-18T11:59:43.000Z</time>
      </trkpt>
      <trkpt lat="47.62967" lon="-2.11636">
        <ele>100</ele>
        <time>2018-03-18T11:59:45.000Z</time>
      </trkpt>
      <trkpt lat="47.62966" lon="-2.11631">
        <ele>100</ele>
        <time>2018-03-18T11:59:47.000Z</time>
      </trkpt>
      <trkpt lat="47.62965" lon="-2.11625">
        <ele>100</ele>
        <time>2018-03-18T11:59:49.000Z</time>
      </trkpt>
      <trkpt lat="47.62963" lon="-2.11621">
        <ele>100</ele>
        <time>2018-03-18T11:59:51.000Z</time>
      </trkpt>
      <trkpt lat="47.62963" lon="-2.11615">
        <ele>101</ele>
        <time>2018-03-18T11:59:53.000Z</time>
      </trkpt>
      <trkpt lat="47.62962" lon="-2.1161">
        <ele>101</ele>
        <time>2018-03-18T11:59:55.000Z</time>
      </trkpt>
      <trkpt lat="47.62961" lon="-2.11606">
        <ele>101</ele>
        <time>2018-03-18T11:59:57.000Z</time>
      </trkpt>
      <trkpt lat="47.62959" lon="-2.11602">
        <ele>101</ele>
        <time>2018-03-18T11:59:59.000Z</time>
      </trkpt>
      <trkpt lat="47.62955" lon="-2.116">
        <ele>102</ele>
        <time>2018-03-18T12:00:02.000Z</time>
      </trkpt>
      <trkpt lat="47.62952" lon="-2.11602">
        <ele>101</ele>
        <time>2018-03-18T12:00:05.000Z</time>
      </trkpt>
      <trkpt lat="47.62947" lon="-2.11603">
        <ele>101</ele>
        <time>2018-03-18T12:00:07.000Z</time>
      </trkpt>
      <trkpt lat="47.62943" lon="-2.116">
        <ele>100</ele>
        <time>2018-03-18T12:00:09.000Z</time>
      </trkpt>
      <trkpt lat="47.6294" lon="-2.11596">
        <ele>100</ele>
        <time>2018-03-18T12:00:11.000Z</time>
      </trkpt>
      <trkpt lat="47.62938" lon="-2.11592">
        <ele>101</ele>
        <time>2018-03-18T12:00:13.000Z</time>
      </trkpt>
      <trkpt lat="47.62937" lon="-2.11587">
        <ele>101</ele>
        <time>2018-03-18T12:00:15.000Z</time>
      </trkpt>
      <trkpt lat="47.62936" lon="-2.11583">
        <ele>101</ele>
        <time>2018-03-18T12:00:17.000Z</time>
      </trkpt>
      <trkpt lat="47.62938" lon="-2.11579">
        <ele>100</ele>
        <time>2018-03-18T12:00:19.000Z</time>
      </trkpt>
      <trkpt lat="47.62942" lon="-2.11576">
        <ele>101</ele>
        <time>2018-03-18T12:00:21.000Z</time>
      </trkpt>
      <trkpt lat="47.62946" lon="-2.11576">
        <ele>100</ele>
        <time>2018-03-18T12:00:23.000Z</time>
      </trkpt>
      <trkpt lat="47.62949" lon="-2.11576">
        <ele>101</ele>
        <time>2018-03-18T12:00:25.000Z</time>
      </trkpt>
      <trkpt lat="47.62952" lon="-2.11577">
        <ele>101</ele>
        <time>2018-03-18T12:00:27.000Z</time>
      </trkpt>
      <trkpt lat="47.62955" lon="-2.1158">
        <ele>101</ele>
        <time>2018-03-18T12:00:30.000Z</time>
      </trkpt>
      <trkpt lat="47.62958" lon="-2.11581">
        <ele>101</ele>
        <time>2018-03-18T12:00:33.000Z</time>
      </trkpt>
      <trkpt lat="47.62961" lon="-2.11582">
        <ele>101</ele>
        <time>2018-03-18T12:00:36.000Z</time>
      </trkpt>
      <trkpt lat="47.62964" lon="-2.11585">
        <ele>102</ele>
        <time>2018-03-18T12:00:39.000Z</time>
      </trkpt>
      <trkpt lat="47.62967" lon="-2.11589">
        <ele>102</ele>
        <time>2018-03-18T12:00:41.000Z</time>
      </trkpt>
      <trkpt lat="47.6297" lon="-2.11595">
        <ele>102</ele>
        <time>2018-03-18T12:00:43.000Z</time>
      </trkpt>
      <trkpt lat="47.62973" lon="-2.11598">
        <ele>102</ele>
        <time>2018-03-18T12:00:45.000Z</time>
      </trkpt>
      <trkpt lat="47.62976" lon="-2.116">
        <ele>102</ele>
        <time>2018-03-18T12:00:47.000Z</time>
      </trkpt>
      <trkpt lat="47.6298" lon="-2.116">
        <ele>102</ele>
        <time>2018-03-18T12:00:50.000Z</time>
      </trkpt>
      <trkpt lat="47.62984" lon="-2.11599">
        <ele>103</ele>
        <time>2018-03-18T12:00:53.000Z</time>
      </trkpt>
      <trkpt lat="47.62986" lon="-2.11597">
        <ele>102</ele>
        <time>2018-03-18T12:00:56.000Z</time>
      </trkpt>
      <trkpt lat="47.6299" lon="-2.11596">
        <ele>103</ele>
        <time>2018-03-18T12:00:59.000Z</time>
      </trkpt>
      <trkpt lat="47.63001" lon="-2.11577">
        <ele>105</ele>
        <time>2018-03-18T12:01:15.000Z</time>
      </trkpt>
      <trkpt lat="47.62983" lon="-2.11545">
        <ele>108</ele>
        <time>2018-03-18T12:01:33.000Z</time>
      </trkpt>
      <trkpt lat="47.62959" lon="-2.11505">
        <ele>107</ele>
        <time>2018-03-18T12:01:49.000Z</time>
      </trkpt>
      <trkpt lat="47.62965" lon="-2.11493">
        <ele>108</ele>
        <time>2018-03-18T12:01:54.000Z</time>
      </trkpt>
      <trkpt lat="47.62992" lon="-2.11482">
        <ele>105</ele>
        <time>2018-03-18T12:02:06.000Z</time>
      </trkpt>
      <trkpt lat="47.63029" lon="-2.11482">
        <ele>104</ele>
        <time>2018-03-18T12:02:19.000Z</time>
      </trkpt>
      <trkpt lat="47.63065" lon="-2.11497">
        <ele>104</ele>
        <time>2018-03-18T12:02:32.000Z</time>
      </trkpt>
      <trkpt lat="47.631" lon="-2.1152">
        <ele>104</ele>
        <time>2018-03-18T12:02:45.000Z</time>
      </trkpt>
      <trkpt lat="47.63134" lon="-2.11545">
        <ele>105</ele>
        <time>2018-03-18T12:02:59.000Z</time>
      </trkpt>
      <trkpt lat="47.63166" lon="-2.11568">
        <ele>105</ele>
        <time>2018-03-18T12:03:12.000Z</time>
      </trkpt>
      <trkpt lat="47.63198" lon="-2.11594">
        <ele>105</ele>
        <time>2018-03-18T12:03:24.000Z</time>
      </trkpt>
      <trkpt lat="47.6318" lon="-2.11648">
        <ele>102</ele>
        <time>2018-03-18T12:03:33.000Z</time>
      </trkpt>
      <trkpt lat="47.63179" lon="-2.11702">
        <ele>100</ele>
        <time>2018-03-18T12:03:42.000Z</time>
      </trkpt>
      <trkpt lat="47.63184" lon="-2.11712">
        <ele>101</ele>
        <time>2018-03-18T12:03:45.000Z</time>
      </trkpt>
      <trkpt lat="47.63213" lon="-2.1172">
        <ele>103</ele>
        <time>2018-03-18T12:04:05.000Z</time>
      </trkpt>
      <trkpt lat="47.63247" lon="-2.11731">
        <ele>107</ele>
        <time>2018-03-18T12:04:29.000Z</time>
      </trkpt>
      <trkpt lat="47.63271" lon="-2.11739">
        <ele>111</ele>
        <time>2018-03-18T12:04:46.000Z</time>
      </trkpt>
      <trkpt lat="47.63283" lon="-2.11722">
        <ele>113</ele>
        <time>2018-03-18T12:04:59.000Z</time>
      </trkpt>
      <trkpt lat="47.63304" lon="-2.11682">
        <ele>118</ele>
        <time>2018-03-18T12:05:26.000Z</time>
      </trkpt>
      <trkpt lat="47.63318" lon="-2.11669">
        <ele>118</ele>
        <time>2018-03-18T12:05:36.000Z</time>
      </trkpt>
      <trkpt lat="47.63335" lon="-2.11703">
        <ele>120</ele>
        <time>2018-03-18T12:05:51.000Z</time>
      </trkpt>
      <trkpt lat="47.63354" lon="-2.11751">
        <ele>121</ele>
        <time>2018-03-18T12:06:06.000Z</time>
      </trkpt>
      <trkpt lat="47.63367" lon="-2.11785">
        <ele>119</ele>
        <time>2018-03-18T12:06:16.000Z</time>
      </trkpt>
      <trkpt lat="47.63364" lon="-2.11804">
        <ele>118</ele>
        <time>2018-03-18T12:06:20.000Z</time>
      </trkpt>
      <trkpt lat="47.63354" lon="-2.11817">
        <ele>119</ele>
        <time>2018-03-18T12:06:23.000Z</time>
      </trkpt>
      <trkpt lat="47.6334" lon="-2.11848">
        <ele>119</ele>
        <time>2018-03-18T12:06:28.000Z</time>
      </trkpt>
      <trkpt lat="47.63319" lon="-2.11897">
        <ele>115</ele>
        <time>2018-03-18T12:06:34.000Z</time>
      </trkpt>
      <trkpt lat="47.63301" lon="-2.11949">
        <ele>112</ele>
        <time>2018-03-18T12:06:42.000Z</time>
      </trkpt>
      <trkpt lat="47.63287" lon="-2.11977">
        <ele>109</ele>
        <time>2018-03-18T12:06:48.000Z</time>
      </trkpt>
      <trkpt lat="47.63275" lon="-2.1198">
        <ele>104</ele>
        <time>2018-03-18T12:06:57.000Z</time>
      </trkpt>
      <trkpt lat="47.63268" lon="-2.11975">
        <ele>104</ele>
        <time>2018-03-18T12:07:08.000Z</time>
      </trkpt>
      <trkpt lat="47.63268" lon="-2.11975">
        <ele>104</ele>
        <time>2018-03-18T12:07:09.000Z</time>
      </trkpt>
      <trkpt lat="47.63272" lon="-2.12008">
        <ele>98</ele>
        <time>2018-03-18T12:07:34.000Z</time>
      </trkpt>
      <trkpt lat="47.63283" lon="-2.12041">
        <ele>96</ele>
        <time>2018-03-18T12:07:41.000Z</time>
      </trkpt>
      <trkpt lat="47.63283" lon="-2.12041">
        <ele>96</ele>
        <time>2018-03-18T12:07:42.000Z</time>
      </trkpt>
      <trkpt lat="47.63314" lon="-2.12072">
        <ele>94</ele>
        <time>2018-03-18T12:07:55.000Z</time>
      </trkpt>
      <trkpt lat="47.63308" lon="-2.12088">
        <ele>102</ele>
        <time>2018-03-18T12:08:12.000Z</time>
      </trkpt>
      <trkpt lat="47.63306" lon="-2.12087">
        <ele>100</ele>
        <time>2018-03-18T12:08:23.000Z</time>
      </trkpt>
      <trkpt lat="47.63305" lon="-2.12086">
        <ele>100</ele>
        <time>2018-03-18T12:08:24.000Z</time>
      </trkpt>
      <trkpt lat="47.63272" lon="-2.12067">
        <ele>99</ele>
        <time>2018-03-18T12:08:30.000Z</time>
      </trkpt>
      <trkpt lat="47.63238" lon="-2.12052">
        <ele>97</ele>
        <time>2018-03-18T12:08:45.000Z</time>
      </trkpt>
      <trkpt lat="47.6321" lon="-2.12046">
        <ele>95</ele>
        <time>2018-03-18T12:09:08.000Z</time>
      </trkpt>
    </trkseg>
  </trk>
</gpx>